[[{"header":{"parameterUnit":"m.s-1","parameterCategory":1,"la1":30.6,"la2":29.2853,"lo1":-89.7004,"lo2":-87.6739,"dy":0.0162,"dx":0.0183,"nx":112,"ny":82,"refTime":"2024-06-06T18:00:00:Z","depth":0,"parameterNumber":2,"parameterNumberName":"U-component_of_WINDS"},"data":[0.0,0.0,0.0,0.0,0.0,0.0,0.0,0.0,0.0,0.0,0.0,0.0,0.0,0.0,0.0,0.0,0.0,0.0,0.0,0.0,0.0,0.0,0.0,0.0,0.0,0.0,0.0,0.0,0.0,0.0,0.0,0.0,0.0,0.0,0.0,0.0,0.0,0.0,0.0,0.0,0.0,0.0,0.0,0.0,0.0,0.0,0.0,0.0,0.0,0.0,0.0,0.0,0.0,0.0,0.0,0.0,0.0,0.0,0.0,0.0,0.0,0.0,0.0,0.0,0.0,0.0,0.0,0.0,0.0,0.0,0.0,0.0,0.0,0.0,0.0,0.0,0.0,0.0,0.0,0.0,0.0,0.0,0.0,0.0,0.0,0.0,0.0,0.0,0.0,0.0,-1.1825,-1.2734,-1.2926,-1.2864,-1.2543,-1.2668,-1.3004,-1.3524,0.0,0.0,0.0,0.0,0.0,0.0,0.0,0.0,0.0,0.0,0.0,0.0,0.0,0.0,0.0,0.0,0.0,0.0,0.0,0.0,0.0,0.0,0.0,0.0,0.0,0.0,0.0,0.0,0.0,0.0,0.0,0.0,0.0,0.0,0.0,0.0,0.0,0.0,0.0,0.0,0.0,0.0,0.0,0.0,0.0,0.0,0.0,0.0,0.0,0.0,0.0,0.0,0.0,0.0,0.0,0.0,0.0,0.0,0.0,0.0,0.0,0.0,0.0,0.0,0.0,0.0,0.0,0.0,0.0,0.0,0.0,0.0,0.0,0.0,0.0,0.0,0.0,0.0,0.0,0.0,0.0,0.0,0.0,0.0,0.0,0.0,0.0,0.0,0.0,0.0,0.0,0.0,0.0,0.0,0.0,0.0,0.0,0.0,0.0,0.0,0.0,0.0,0.0,0.0,-1.2481,-1.2917,-1.2158,-1.1849,-1.2451,-1.2081,-1.2237,-1.329,0.0,0.0,0.0,0.0,0.0,0.0,0.0,0.0,0.0,0.0,0.0,0.0,0.0,0.0,0.0,0.0,0.0,0.0,0.0,0.0,0.0,0.0,0.0,0.0,0.0,0.0,0.0,0.0,0.0,0.0,0.0,0.0,0.0,0.0,0.0,0.0,0.0,0.0,0.0,0.0,0.0,0.0,0.0,0.0,0.0,0.0,0.0,0.0,0.0,0.0,0.0,0.0,0.0,0.0,0.0,0.0,0.0,0.0,0.0,0.0,0.0,0.0,0.0,0.0,0.0,0.0,0.0,0.0,0.0,0.0,0.0,0.0,0.0,0.0,0.0,0.0,0.0,0.0,0.0,0.0,0.0,0.0,0.0,0.0,0.0,0.0,0.0,0.0,0.0,0.0,0.0,0.0,0.0,0.0,0.0,0.0,0.0,0.0,0.0,0.0,0.0,0.0,0.0,-1.1543,-1.188,-1.1973,-1.1677,-1.1732,-1.2451,-1.1783,-1.1861,-1.3049,-1.2761,0.0,0.0,0.0,0.0,0.0,0.0,0.0,0.0,0.0,0.0,0.0,0.0,0.0,0.0,0.0,0.0,0.0,0.0,0.0,0.0,0.0,0.0,0.0,0.0,0.0,0.0,0.0,0.0,0.0,0.0,0.0,0.0,0.0,0.0,0.0,0.0,0.0,0.0,0.0,0.0,0.0,0.0,0.0,0.0,0.0,0.0,0.0,0.0,0.0,0.0,0.0,0.0,0.0,0.0,0.0,0.0,0.0,0.0,0.0,0.0,0.0,0.0,0.0,0.0,0.0,0.0,0.0,0.0,0.0,0.0,0.0,0.0,0.0,0.0,0.0,0.0,0.0,0.0,0.0,0.0,0.0,0.0,0.0,0.0,0.0,0.0,0.0,0.0,0.0,0.0,0.0,0.0,0.0,0.0,0.0,0.0,0.0,0.0,0.0,0.0,0.0,0.0,-1.0839,-1.1146,-1.1122,-1.1373,-1.174,-1.2243,-1.1624,-1.1654,-1.2683,-1.2413,0.0,0.0,0.0,0.0,0.0,0.0,0.0,0.0,0.0,0.0,0.0,0.0,0.0,0.0,0.0,0.0,0.0,0.0,0.0,0.0,0.0,0.0,0.0,0.0,0.0,0.0,0.0,0.0,0.0,0.0,0.0,0.0,0.0,0.0,0.0,0.0,0.0,0.0,0.0,0.0,0.0,0.0,0.0,0.0,0.0,0.0,0.0,0.0,0.0,0.0,0.0,0.0,0.0,0.0,0.0,0.0,0.0,0.0,0.0,0.0,0.0,0.0,0.0,0.0,0.0,0.0,0.0,0.0,0.0,0.0,0.0,0.0,0.0,0.0,0.0,0.0,0.0,0.0,0.0,0.0,0.0,0.0,0.0,0.0,0.0,0.0,0.0,0.0,0.0,0.0,0.0,0.0,0.0,0.0,0.0,0.0,0.0,0.0,0.0,0.0,0.0,0.0,-1.0713,-1.0902,-1.109,-1.1216,-1.1397,-1.1654,-1.16,-1.1699,-1.2044,-1.2384,0.0,0.0,0.0,0.0,0.0,0.0,0.0,0.0,0.0,0.0,0.0,0.0,0.0,0.0,0.0,0.0,0.0,0.0,0.0,0.0,0.0,0.0,0.0,0.0,0.0,0.0,0.0,0.0,0.0,0.0,0.0,0.0,0.0,0.0,0.0,0.0,0.0,0.0,0.0,0.0,0.0,0.0,0.0,0.0,0.0,0.0,0.0,0.0,0.0,0.0,0.0,0.0,0.0,0.0,0.0,0.0,0.0,0.0,0.0,0.0,0.0,0.0,0.0,0.0,0.0,0.0,0.0,0.0,0.0,0.0,0.0,0.0,0.0,0.0,0.0,0.0,0.0,0.0,0.0,0.0,0.0,0.0,0.0,0.0,0.0,0.0,0.0,0.0,0.0,0.0,0.0,0.0,0.0,0.0,0.0,0.0,0.0,0.0,0.0,0.0,0.0,0.0,-1.0713,-1.087,-1.109,-1.1216,-1.1365,-1.1591,-1.1591,-1.1616,-1.1619,0.0,0.0,0.0,0.0,0.0,0.0,0.0,0.0,0.0,0.0,0.0,0.0,0.0,0.0,0.0,0.0,0.0,0.0,0.0,0.0,0.0,0.0,0.0,0.0,0.0,0.0,0.0,0.0,0.0,0.0,0.0,0.0,0.0,0.0,0.0,0.0,0.0,0.0,0.0,0.0,0.0,0.0,0.0,0.0,0.0,0.0,0.0,0.0,0.0,0.0,0.0,0.0,0.0,0.0,0.0,0.0,0.0,0.0,0.0,0.0,0.0,0.0,0.0,0.0,0.0,0.0,0.0,0.0,0.0,0.0,0.0,0.0,0.0,0.0,0.0,0.0,0.0,0.0,0.0,0.0,0.0,0.0,0.0,0.0,0.0,0.0,0.0,0.0,0.0,0.0,0.0,0.0,0.0,0.0,0.0,0.0,0.0,0.0,0.0,0.0,0.0,0.0,-1.013,-1.0463,-1.0776,-1.1059,-1.1185,-1.1341,-1.1591,-1.1591,-1.1533,-1.1409,0.0,0.0,0.0,0.0,0.0,0.0,0.0,0.0,0.0,0.0,0.0,0.0,0.0,0.0,0.0,0.0,0.0,0.0,0.0,0.0,0.0,0.0,0.0,0.0,0.0,0.0,0.0,0.0,0.0,0.0,0.0,0.0,0.0,0.0,0.0,0.0,0.0,0.0,0.0,0.0,0.0,0.0,0.0,0.0,0.0,0.0,0.0,0.0,0.0,0.0,0.0,0.0,0.0,0.0,0.0,0.0,0.0,0.0,0.0,0.0,0.0,0.0,0.0,0.0,0.0,0.0,0.0,0.0,0.0,0.0,0.0,0.0,0.0,0.0,0.0,0.0,0.0,0.0,0.0,0.0,0.0,0.0,0.0,0.0,0.0,0.0,0.0,0.0,0.0,0.0,0.0,0.0,0.0,0.0,0.0,0.0,0.0,0.0,0.0,0.0,0.0,0.0,-0.9297,-0.9894,-1.0491,-1.1028,-1.109,-1.1216,-1.156,-1.1591,-1.1533,0.0,0.0,0.0,0.0,0.0,0.0,0.0,0.0,0.0,0.0,0.0,0.0,0.0,0.0,0.0,0.0,0.0,0.0,0.0,0.0,0.0,0.0,0.0,0.0,0.0,0.0,0.0,0.0,0.0,0.0,0.0,0.0,0.0,0.0,0.0,0.0,0.0,0.0,0.0,0.0,0.0,0.0,0.0,0.0,0.0,0.0,0.0,0.0,0.0,0.0,0.0,0.0,0.0,0.0,0.0,0.0,0.0,0.0,0.0,0.0,0.0,0.0,0.0,0.0,0.0,0.0,0.0,0.0,0.0,0.0,0.0,0.0,0.0,0.0,0.0,0.0,0.0,0.0,0.0,0.0,0.0,0.0,0.0,0.0,0.0,0.0,0.0,0.0,0.0,0.0,0.0,0.0,0.0,0.0,0.0,0.0,0.0,0.0,0.0,0.0,0.0,0.0,0.0,-0.9236,-0.9775,-1.0301,-1.0839,-1.0902,-1.1028,-1.1365,-1.1404,-1.1313,-1.1132,0.0,0.0,0.0,0.0,0.0,0.0,0.0,0.0,0.0,0.0,0.0,0.0,0.0,0.0,0.0,0.0,0.0,0.0,0.0,0.0,0.0,0.0,0.0,0.0,0.0,0.0,0.0,0.0,0.0,0.0,0.0,0.0,0.0,0.0,0.0,0.0,0.0,0.0,0.0,0.0,0.0,0.0,0.0,0.0,0.0,0.0,0.0,0.0,0.0,0.0,0.0,0.0,0.0,0.0,0.0,0.0,0.0,0.0,0.0,0.0,0.0,0.0,0.0,0.0,0.0,0.0,0.0,0.0,0.0,0.0,0.0,0.0,0.0,0.0,0.0,0.0,0.0,0.0,0.0,0.0,0.0,0.0,0.0,0.0,0.0,0.0,0.0,0.0,0.0,0.0,0.0,0.0,0.0,0.0,0.0,0.0,0.0,0.0,0.0,0.0,0.0,0.0,-0.9029,-0.9637,-1.0206,-1.0744,-1.0807,-1.0902,-1.1216,-1.1216,-1.1099,-1.081,0.0,0.0,0.0,0.0,0.0,0.0,0.0,0.0,0.0,0.0,0.0,0.0,0.0,0.0,0.0,0.0,0.0,0.0,0.0,0.0,0.0,0.0,0.0,0.0,0.0,0.0,0.0,0.0,0.0,0.0,0.0,0.0,0.0,0.0,0.0,0.0,0.0,0.0,0.0,0.0,0.0,0.0,0.0,0.0,0.0,0.0,0.0,0.0,0.0,0.0,0.0,0.0,0.0,0.0,0.0,0.0,0.0,0.0,0.0,0.0,0.0,0.0,0.0,0.0,0.0,0.0,0.0,0.0,0.0,0.0,0.0,0.0,0.0,0.0,0.0,0.0,0.0,0.0,0.0,0.0,0.0,0.0,0.0,0.0,0.0,0.0,0.0,0.0,0.0,0.0,0.0,0.0,0.0,0.0,0.0,0.0,0.0,0.0,0.0,0.0,0.0,0.0,-0.8627,-0.9346,-1.004,-1.0611,-1.0674,-1.08,-1.1059,-1.1059,-1.0916,-1.0502,0.0,0.0,0.0,0.0,0.0,0.0,0.0,0.0,0.0,0.0,0.0,0.0,0.0,0.0,0.0,0.0,0.0,0.0,0.0,0.0,0.0,0.0,0.0,0.0,0.0,0.0,0.0,0.0,0.0,0.0,0.0,0.0,0.0,0.0,0.0,0.0,0.0,0.0,0.0,0.0,0.0,0.0,0.0,0.0,0.0,0.0,0.0,0.0,0.0,0.0,0.0,0.0,0.0,0.0,0.0,0.0,0.0,0.0,0.0,0.0,-1.3114,-1.3109,0.0,0.0,0.0,0.0,0.0,0.0,0.0,0.0,0.0,0.0,0.0,0.0,0.0,0.0,0.0,0.0,0.0,0.0,0.0,0.0,0.0,0.0,0.0,0.0,0.0,0.0,0.0,0.0,0.0,0.0,0.0,0.0,0.0,0.0,0.0,0.0,0.0,0.0,0.0,0.0,-0.775,-0.8157,-0.8742,-0.9524,-0.9716,-1.0066,-1.0807,-1.087,-1.067,-1.0221,-1.0437,0.0,0.0,0.0,0.0,0.0,0.0,0.0,0.0,0.0,0.0,0.0,0.0,0.0,0.0,0.0,0.0,0.0,0.0,0.0,0.0,0.0,0.0,0.0,0.0,0.0,0.0,0.0,0.0,0.0,0.0,0.0,0.0,0.0,0.0,0.0,0.0,0.0,0.0,0.0,0.0,0.0,0.0,0.0,0.0,0.0,0.0,0.0,0.0,0.0,0.0,0.0,0.0,0.0,0.0,0.0,0.0,0.0,0.0,0.0,-1.2618,-1.2536,0.0,0.0,0.0,0.0,0.0,0.0,0.0,0.0,0.0,0.0,0.0,0.0,0.0,0.0,0.0,0.0,0.0,0.0,0.0,0.0,0.0,0.0,0.0,0.0,0.0,0.0,0.0,0.0,0.0,0.0,0.0,0.0,0.0,0.0,0.0,0.0,0.0,0.0,0.0,0.0,-0.7685,-0.782,-0.81,-0.8805,-0.9177,-0.962,-1.0129,-1.0485,-1.0492,-0.9945,-1.0099,0.0,0.0,0.0,0.0,0.0,0.0,0.0,0.0,0.0,0.0,0.0,0.0,0.0,0.0,0.0,0.0,0.0,0.0,0.0,0.0,0.0,0.0,0.0,0.0,0.0,0.0,0.0,0.0,0.0,0.0,0.0,0.0,0.0,0.0,0.0,0.0,0.0,0.0,0.0,0.0,0.0,0.0,0.0,0.0,0.0,0.0,0.0,0.0,0.0,0.0,0.0,0.0,0.0,-1.4848,-1.4247,-1.3086,-1.2975,-1.2605,-1.2089,-1.1875,-1.1905,-1.2116,-1.211,0.0,0.0,0.0,0.0,0.0,0.0,0.0,0.0,0.0,0.0,0.0,0.0,0.0,0.0,0.0,0.0,0.0,0.0,0.0,0.0,0.0,0.0,-0.8025,-0.7416,-0.7811,-0.8325,-0.8271,0.0,0.0,0.0,0.0,0.0,0.0,0.0,0.0,0.0,0.0,0.0,-0.7648,-0.7508,-0.7579,-0.8151,-0.8788,-0.9268,-0.9526,-1.02,-1.0358,-0.9793,-0.9822,-0.9608,0.0,0.0,0.0,0.0,0.0,0.0,0.0,0.0,0.0,0.0,0.0,0.0,0.0,0.0,0.0,0.0,0.0,0.0,0.0,0.0,0.0,0.0,0.0,0.0,0.0,0.0,0.0,0.0,0.0,0.0,0.0,0.0,-1.0838,-1.1265,0.0,0.0,0.0,0.0,0.0,0.0,0.0,0.0,0.0,0.0,0.0,0.0,0.0,-1.5391,-1.6113,-1.5674,-1.4914,-1.3942,-1.4209,-1.3488,-1.1935,-1.2613,-1.2192,-1.0923,-1.0882,0.0,-1.2198,-1.2367,0.0,0.0,0.0,0.0,0.0,0.0,0.0,0.0,0.0,0.0,0.0,0.0,0.0,0.0,0.0,0.0,0.0,0.0,0.0,0.0,0.0,0.0,-0.7014,-0.7372,-0.7553,-0.7817,-0.8428,-0.8148,-0.7731,-0.7564,-0.7046,-0.6678,0.0,0.0,0.0,0.0,0.0,0.0,-0.66,-0.6269,-0.6429,-0.7438,-0.8142,-0.8853,-0.9708,-1.0283,-1.0445,-1.008,-0.9849,-0.9561,-0.9198,-0.8938,0.0,0.0,0.0,0.0,0.0,0.0,0.0,0.0,0.0,0.0,0.0,0.0,0.0,0.0,0.0,0.0,0.0,0.0,0.0,0.0,0.0,0.0,0.0,0.0,0.0,0.0,0.0,0.0,0.0,-1.0154,-1.057,-1.0881,-1.0933,-1.0965,0.0,0.0,0.0,0.0,0.0,0.0,0.0,0.0,0.0,-1.4717,-1.474,-1.4964,-1.547,-1.5234,-1.4753,-1.4068,-1.4183,-1.3377,-1.1777,-1.2107,-1.1646,-1.0544,-1.0663,-1.0919,-1.1223,-1.094,-1.1263,-1.189,0.0,0.0,0.0,0.0,-1.145,-1.1338,-1.049,-0.9987,-0.9661,-0.9188,0.0,0.0,0.0,0.0,0.0,0.0,0.0,-0.8405,-0.7855,-0.7504,-0.7284,-0.7304,-0.7588,-0.7894,-0.8065,-0.8283,-0.8466,-0.8547,-0.7934,-0.742,-0.7516,-0.7042,0.0,0.0,0.0,-0.6156,-0.6316,-0.6029,-0.6044,-0.6703,-0.7246,-0.7918,-0.8806,-0.9409,-0.9725,-0.9805,-0.97,-0.9428,-0.9002,-0.8865,-0.8749,0.0,0.0,0.0,0.0,0.0,0.0,0.0,0.0,0.0,0.0,0.0,0.0,0.0,0.0,0.0,0.0,0.0,0.0,0.0,0.0,0.0,0.0,0.0,0.0,0.0,0.0,0.0,0.0,-1.0278,-1.0482,-1.0719,-1.0784,-1.0884,0.0,0.0,0.0,0.0,0.0,0.0,-1.3013,-1.3166,-1.3549,-1.4277,-1.4392,-1.4651,-1.5044,-1.4856,-1.4592,-1.4289,-1.386,-1.3002,-1.1794,-1.1542,-1.0933,-1.0115,-1.0232,-1.0138,-0.9862,-0.9741,-1.0266,-1.1069,-1.0522,-1.0945,-1.1737,-1.0985,-1.071,-1.0607,-0.9927,-0.955,-0.9319,-0.8848,-0.8594,-0.8484,-0.8312,0.0,0.0,0.0,0.0,-0.8306,-0.7619,-0.7483,-0.752,-0.7314,-0.7618,-0.7905,-0.7834,-0.8208,-0.8612,-0.8922,-0.8483,-0.804,-0.7903,-0.7045,0.0,-0.6417,-0.6105,-0.5946,-0.612,-0.5962,-0.5988,-0.6327,-0.6953,-0.758,-0.822,-0.8937,-0.9442,-0.9692,-0.9641,-0.9413,-0.8982,-0.883,-0.8631,-0.8375,0.0,0.0,0.0,0.0,0.0,0.0,0.0,0.0,0.0,0.0,0.0,0.0,0.0,0.0,0.0,0.0,0.0,0.0,0.0,0.0,0.0,0.0,0.0,0.0,0.0,0.0,0.0,0.0,0.0,-1.0626,-1.1049,0.0,0.0,0.0,0.0,-1.2326,-1.2354,-1.27,-1.352,-1.3227,-1.3577,-1.4827,-1.45,-1.4672,-1.5465,-1.4694,-1.4314,-1.4289,-1.2692,-1.1874,-1.1754,-1.0888,-1.0034,-0.9277,-0.9277,-0.8823,-0.8253,-0.9678,-1.0202,-1.0031,-0.9687,-0.9592,-0.9626,-0.9463,-0.9394,-0.9359,-0.912,-0.8634,-0.8108,-0.8266,-0.8386,-0.8479,-0.8256,-0.8484,0.0,0.0,-0.7889,-0.7494,-0.7278,-0.722,-0.7265,-0.7431,-0.7514,-0.7638,-0.8012,-0.7655,-0.7316,-0.7484,-0.7788,-0.7805,-0.7155,0.0,-0.6079,-0.62,-0.5818,-0.559,-0.5703,-0.5871,-0.6149,-0.6535,-0.7691,-0.844,-0.8468,-0.9615,-1.0222,-0.9983,-0.9749,-0.9523,-0.9364,-0.8872,-0.8509,-0.8295,-0.8054,0.0,0.0,0.0,0.0,0.0,0.0,0.0,0.0,0.0,0.0,0.0,0.0,0.0,0.0,0.0,0.0,0.0,0.0,0.0,0.0,0.0,0.0,0.0,0.0,0.0,0.0,0.0,0.0,-1.0702,-1.0827,0.0,-1.119,-1.1335,-1.1703,-1.233,-1.2408,-1.2685,-1.3289,-1.3364,-1.3606,-1.4062,-1.4122,-1.4323,-1.4609,-1.3734,-1.328,-1.3274,-1.2033,-1.1158,-1.0567,-1.0224,-0.9634,-0.8798,-0.8798,-0.8598,-0.8224,-0.8786,-0.9287,-0.9634,-0.9131,-0.9329,-0.982,-0.9406,-0.9218,-0.9179,-0.8874,-0.8567,-0.8307,-0.7897,-0.7889,-0.8009,-0.7651,-0.784,-0.8114,-0.7999,-0.7893,-0.7783,-0.762,-0.7569,-0.7553,-0.7496,-0.7215,-0.6945,-0.7103,-0.6822,-0.6398,-0.595,-0.6111,-0.6335,-0.6372,-0.5531,-0.5077,-0.5601,-0.543,-0.533,-0.5619,-0.5717,-0.5813,-0.5941,-0.641,-0.6797,-0.7063,-0.7946,-0.8538,-0.8694,-0.9148,-0.925,-0.8898,-0.8676,-0.8379,-0.8061,-0.7945,-0.7736,0.0,0.0,0.0,0.0,0.0,0.0,0.0,0.0,0.0,0.0,0.0,0.0,0.0,0.0,0.0,0.0,0.0,0.0,0.0,0.0,0.0,0.0,0.0,0.0,0.0,-0.9708,-0.9828,-1.0043,-1.0143,-1.0296,-1.0555,-1.0648,-1.0956,-1.1621,-1.1939,-1.2258,-1.25,-1.2893,-1.3079,-1.2918,-1.3096,-1.3237,-1.3237,-1.2709,-1.2397,-1.2266,-1.1308,-1.044,-0.9737,-0.945,-0.899,-0.8472,-0.8564,-0.8539,-0.8385,-0.8385,-0.8734,-0.9146,-0.8598,-0.8787,-0.9349,-0.8946,-0.8787,-0.8746,-0.8509,-0.8386,-0.8307,-0.7819,-0.7744,-0.7801,-0.7565,-0.7655,-0.7886,-0.7886,-0.7927,-0.7988,-0.7874,-0.7886,-0.7813,-0.7691,-0.719,-0.6716,-0.6716,-0.6238,-0.5637,-0.5084,-0.5262,-0.545,-0.5447,-0.4897,-0.4617,-0.5182,-0.5194,-0.5263,-0.5547,-0.5598,-0.5598,-0.5598,-0.5892,-0.6165,-0.6284,-0.7071,-0.7672,-0.7982,-0.8581,-0.8873,-0.8751,-0.8572,-0.8352,-0.8061,-0.7948,-0.7717,-0.7392,0.0,0.0,0.0,0.0,0.0,0.0,0.0,0.0,0.0,0.0,0.0,0.0,0.0,0.0,0.0,0.0,0.0,0.0,0.0,0.0,0.0,0.0,0.0,-0.8161,-0.8561,-0.8764,-0.8641,-0.9091,-0.9349,-0.9311,-0.9561,-0.986,-1.0161,-1.1066,-1.1442,-1.1201,-1.1805,-1.1958,-1.1518,-1.1477,-1.1477,-1.1477,-1.1711,-1.1711,-1.1431,-1.0353,-0.9723,-0.9448,-0.8601,-0.8212,-0.8208,-0.848,-0.8572,-0.8568,-0.8568,-0.8568,-0.8532,-0.817,-0.8028,-0.8028,-0.8028,-0.8028,-0.8028,-0.8028,-0.8028,-0.8028,-0.8024,-0.8024,-0.8028,-0.7983,-0.7983,-0.7987,-0.7987,-0.7987,-0.7987,-0.7983,-0.7983,-0.7979,-0.7934,-0.7435,-0.6898,-0.6898,-0.5859,-0.4946,-0.4946,-0.5293,-0.5285,-0.455,-0.4553,-0.4748,-0.4976,-0.5171,0.0,-0.5527,-0.5562,-0.5559,-0.5598,-0.6328,-0.6693,-0.6302,-0.7185,-0.7817,-0.7937,-0.8102,-0.8431,-0.8952,-0.867,-0.8466,-0.8404,-0.8015,-0.786,-0.8008,0.0,0.0,0.0,0.0,0.0,0.0,0.0,0.0,0.0,0.0,0.0,0.0,0.0,0.0,0.0,0.0,0.0,0.0,0.0,0.0,0.0,-0.7275,-0.7244,-0.8286,-0.8506,-0.8664,-0.8946,-0.9083,-0.9264,-0.9436,-0.9639,-0.9933,-1.0358,-1.0741,-1.1015,-1.1131,-1.1318,-1.1349,-1.1227,-1.1232,-1.1232,-1.1232,-1.0588,-1.0269,-1.0177,-0.9208,-0.8683,-0.8637,-0.836,-0.8234,-0.8125,-0.8219,-0.8195,-0.8076,-0.8076,-0.816,-0.8324,-0.8407,-0.8418,-0.8418,-0.8418,-0.8418,-0.8418,-0.8418,-0.8418,-0.8394,-0.826,-0.8304,-0.839,-0.8044,-0.8048,-0.8104,-0.7974,-0.8017,-0.8115,-0.7951,-0.7666,-0.7291,-0.6798,-0.5815,-0.4986,-0.4986,-0.4318,-0.3861,-0.4199,-0.4364,-0.4408,-0.4324,-0.4367,-0.449,-0.4736,-0.4751,-0.4741,-0.4781,-0.4867,-0.501,-0.5162,-0.5512,-0.5672,-0.5458,-0.6071,-0.6624,-0.6979,-0.7527,-0.8069,-0.8608,-0.8507,-0.8368,-0.8244,-0.7949,-0.7822,0.0,0.0,0.0,0.0,0.0,0.0,0.0,0.0,0.0,0.0,0.0,0.0,0.0,0.0,0.0,0.0,0.0,0.0,0.0,0.0,0.0,0.0,-0.6559,-0.6503,-0.7417,-0.7528,-0.7684,-0.8006,-0.8167,-0.8342,-0.8574,-0.8795,-0.8993,-0.9279,-0.9703,-0.9939,-0.9878,-1.0159,-1.0195,-0.9996,-0.9949,-0.9949,-0.9949,-0.9529,-0.9247,-0.9148,-0.8566,-0.8208,-0.8106,-0.8135,-0.8106,-0.8015,-0.809,-0.805,-0.8001,-0.7926,-0.7984,-0.8116,0.0,0.0,0.0,0.0,-0.8428,-0.8428,-0.8344,-0.83,-0.8285,-0.8178,-0.8214,-0.8237,-0.8005,-0.7996,-0.8072,-0.794,-0.7984,-0.7958,-0.7422,-0.705,-0.6677,-0.5863,-0.4863,-0.4054,-0.4054,-0.3753,-0.3499,-0.3759,-0.3974,0.0,-0.4271,-0.4291,-0.4406,-0.4659,-0.4649,-0.4594,-0.4632,-0.4611,-0.4631,-0.4737,-0.4851,-0.4881,-0.4728,-0.5129,0.0,0.0,0.0,-0.7302,-0.7978,-0.8001,0.0,0.0,0.0,0.0,0.0,0.0,0.0,0.0,-0.7505,-0.7409,0.0,0.0,0.0,0.0,0.0,0.0,0.0,0.0,0.0,0.0,0.0,0.0,0.0,0.0,0.0,0.0,-0.6019,-0.5709,-0.6059,-0.6125,-0.626,-0.6559,-0.6799,-0.7054,-0.7279,-0.7476,-0.7577,-0.7577,-0.8381,-0.8689,-0.8181,-0.8757,0.0,0.0,0.0,-0.8333,-0.8333,-0.8577,-0.8577,-0.8333,-0.8251,-0.8039,-0.7831,-0.7893,-0.7918,-0.7889,-0.8037,-0.8059,-0.8029,-0.7908,-0.7827,-0.7896,-0.8069,-0.8292,-0.8476,-0.8248,-0.8157,-0.8157,-0.794,0.0,0.0,-0.79,-0.79,-0.79,-0.7856,-0.7768,-0.7676,-0.7676,-0.7588,-0.7316,-0.6419,-0.6148,-0.5885,-0.4996,-0.4245,-0.3715,-0.3715,-0.3585,-0.3452,-0.3497,-0.3853,-0.4164,-0.4164,-0.4251,-0.4395,-0.461,-0.4646,-0.4645,-0.4716,-0.457,-0.4478,-0.4413,-0.4401,0.0,-0.4261,-0.439,-0.4848,-0.5713,-0.6057,-0.6588,-0.7358,-0.7493,-0.7502,-0.7375,-0.7497,-0.7527,-0.7494,-0.7494,-0.7301,-0.6904,-0.6974,-0.7053,0.0,0.0,0.0,0.0,0.0,0.0,0.0,0.0,0.0,0.0,0.0,0.0,0.0,0.0,0.0,-0.6384,-0.5903,-0.5557,-0.5626,-0.5722,-0.596,-0.6392,-0.6583,-0.6682,-0.6728,-0.719,-0.7437,-0.7437,-0.7931,-0.816,-0.8047,-0.8142,-0.8206,-0.8088,-0.8088,-0.8088,-0.8088,-0.8137,-0.8137,-0.8088,-0.806,0.0,-0.7944,-0.7963,-0.7934,-0.7815,-0.7835,-0.7804,-0.7683,-0.7573,-0.7527,-0.7591,-0.7856,-0.7988,-0.8032,-0.7984,-0.794,-0.794,-0.79,-0.79,-0.79,-0.79,-0.79,-0.7856,-0.7635,-0.7054,0.0,-0.6207,-0.5716,-0.5181,-0.5003,-0.4648,-0.4247,-0.3666,-0.3044,-0.2511,-0.2511,-0.2512,-0.2601,-0.2957,-0.3092,-0.3179,-0.3179,-0.3781,-0.4335,-0.4381,-0.432,-0.4312,-0.4293,-0.4347,-0.438,-0.4482,-0.4473,-0.451,-0.46,-0.4396,-0.4774,-0.6009,-0.7071,-0.7696,-0.7861,-0.7899,-0.7903,-0.7861,-0.7899,-0.7787,-0.7517,-0.7517,-0.7307,-0.6983,-0.7098,-0.7017,0.0,0.0,0.0,0.0,0.0,0.0,0.0,0.0,0.0,0.0,0.0,-0.7027,-0.668,0.0,-0.6165,-0.595,-0.5684,-0.5529,-0.5588,-0.5699,-0.5952,-0.6313,-0.6471,-0.6622,-0.6788,-0.7118,-0.7288,-0.7288,-0.7499,-0.7587,-0.7587,-0.7587,-0.7587,-0.7587,-0.7587,-0.7587,-0.7587,-0.7587,-0.7587,-0.7587,-0.7587,-0.7587,-0.7587,-0.7743,-0.7753,-0.7727,-0.7748,-0.777,-0.7689,-0.7465,-0.7372,-0.7279,-0.6922,-0.7231,-0.7896,-0.7768,-0.768,-0.768,-0.7544,-0.7496,-0.7496,-0.7496,-0.7187,-0.6786,-0.6656,-0.5938,-0.5179,-0.5048,-0.4734,-0.4336,-0.389,-0.358,-0.3224,-0.2463,-0.2061,-0.1794,-0.1794,-0.2019,-0.2288,-0.2511,-0.2734,-0.2911,-0.2911,-0.3269,-0.3673,-0.3898,-0.3911,-0.3959,-0.4179,-0.4216,-0.4236,-0.4264,-0.4253,-0.4256,-0.4316,-0.4284,-0.4718,-0.5725,-0.6571,-0.7158,-0.7477,-0.7513,-0.7513,-0.7513,-0.7513,-0.7411,-0.7237,-0.7237,-0.7166,-0.6988,-0.6623,-0.6623,0.0,0.0,0.0,0.0,0.0,0.0,0.0,-0.6767,-0.6802,-0.6599,-0.6718,-0.6632,-0.6028,-0.5992,-0.5935,-0.5561,-0.5526,-0.5583,-0.5704,-0.5844,-0.6015,-0.6253,-0.6391,-0.6587,-0.6843,-0.7017,-0.7138,-0.7138,-0.7188,-0.7188,-0.7188,-0.7188,-0.7188,-0.7188,-0.7188,-0.7188,-0.7188,-0.7188,-0.7188,-0.7188,-0.7188,-0.7188,-0.7188,-0.7444,-0.7547,-0.759,-0.7566,-0.753,-0.7459,-0.6994,-0.6666,-0.6381,-0.5581,-0.6024,-0.7048,-0.6922,-0.6877,-0.6833,-0.665,-0.6561,-0.6561,-0.6561,-0.6027,-0.5406,-0.5406,-0.4781,-0.4022,-0.4022,-0.3888,-0.3576,-0.2822,-0.2598,-0.2419,-0.1614,-0.1391,-0.1391,-0.1391,-0.1749,-0.2064,-0.2064,-0.2332,-0.2598,-0.2598,-0.2598,-0.2823,-0.3361,-0.3452,-0.3611,-0.4031,-0.4023,-0.3947,-0.3902,-0.3808,-0.3768,-0.3745,-0.419,-0.4698,-0.5246,-0.5811,-0.6368,-0.6913,-0.7021,-0.7094,-0.7058,-0.7094,-0.7094,-0.7021,-0.6872,-0.6796,-0.6764,-0.5858,-0.5976,-0.6327,-0.6721,-0.6519,-0.5814,-0.6017,-0.6092,0.0,-0.5514,-0.5831,-0.5181,-0.5259,-0.5388,-0.5322,-0.5438,-0.5561,-0.5502,-0.5599,-0.571,-0.5869,-0.5893,-0.5983,-0.6251,-0.6338,-0.6349,-0.6365,-0.6671,-0.6842,-0.6842,-0.7089,-0.7188,-0.7188,-0.7188,-0.7188,-0.7188,-0.7188,-0.7188,-0.7188,-0.7188,-0.7188,-0.7188,-0.7188,-0.7188,-0.7188,-0.7238,-0.7391,-0.7547,-0.6874,-0.6488,-0.6281,-0.5072,-0.444,-0.4241,-0.3927,-0.3927,-0.415,-0.451,-0.4645,-0.4645,-0.4645,-0.4601,-0.4601,-0.4601,-0.4556,-0.4467,-0.4467,-0.3801,-0.3045,-0.3045,-0.2419,-0.1704,-0.1614,-0.1569,-0.1524,-0.1436,-0.1391,-0.1391,-0.1391,-0.1436,-0.148,-0.148,-0.1524,-0.1569,-0.1569,-0.1569,-0.1883,-0.2823,-0.2957,-0.3133,-0.3621,-0.3304,-0.3189,-0.3512,-0.3117,-0.298,-0.3258,-0.4194,-0.478,-0.4766,-0.5864,-0.6587,-0.6625,-0.7156,-0.7351,-0.7164,-0.7351,-0.7351,-0.7164,-0.6419,-0.603,-0.5991,-0.5005,-0.5035,-0.4727,-0.5268,-0.5416,-0.4746,-0.4743,-0.483,-0.4494,-0.4699,-0.4911,-0.4675,-0.4946,-0.5186,-0.5186,-0.5408,-0.5613,-0.5613,-0.5712,-0.585,-0.5896,-0.6026,-0.6154,-0.6306,-0.6325,-0.6366,-0.6366,-0.6509,-0.6589,-0.6589,-0.6686,-0.6736,-0.6736,-0.6736,-0.6736,-0.6736,-0.6736,-0.6736,-0.6736,-0.6736,-0.6736,-0.6736,-0.6736,-0.6387,-0.5784,-0.5982,-0.5829,-0.5475,-0.5172,-0.4916,-0.4744,-0.4176,-0.3892,-0.366,-0.2994,-0.2727,-0.2816,-0.3618,-0.3974,-0.4063,-0.4063,-0.4154,-0.4287,-0.4109,-0.3708,-0.3266,-0.3266,-0.2596,-0.1882,-0.1973,-0.1704,-0.139,-0.1256,-0.1211,-0.1166,-0.1031,-0.0987,-0.0987,-0.0987,-0.0987,-0.1031,-0.1211,-0.1211,-0.1256,-0.1391,-0.1391,-0.1524,-0.1973,-0.2287,-0.2645,-0.3138,-0.3002,-0.2948,-0.3143,-0.2889,-0.2762,-0.2879,-0.3297,-0.3676,-0.3995,-0.4452,-0.5118,-0.5973,-0.5812,-0.6121,-0.7022,-0.6591,-0.6591,-0.7022,-0.6163,-0.5735,-0.5696,-0.4178,-0.3682,-0.3718,-0.417,-0.4543,-0.4076,-0.3932,-0.3979,-0.4197,-0.4338,-0.4454,-0.4529,-0.488,-0.516,-0.516,-0.5359,-0.5518,-0.5549,-0.5713,-0.5836,-0.5898,-0.6106,-0.6328,-0.6312,-0.6388,-0.6387,-0.6387,-0.6387,-0.6387,-0.6387,-0.6387,-0.6387,-0.6387,-0.6387,-0.6387,-0.6387,-0.6387,-0.6387,-0.6387,-0.6387,-0.6237,-0.5937,-0.5937,-0.5384,-0.4381,-0.4628,-0.4423,-0.3867,-0.3667,-0.3503,-0.3399,-0.3016,-0.2806,-0.2658,-0.185,-0.153,-0.1613,-0.2325,-0.2771,-0.3038,-0.3038,-0.3127,-0.3263,-0.3083,-0.255,-0.2015,-0.2015,-0.1524,-0.1031,-0.1166,-0.1211,-0.1166,-0.1031,-0.0987,-0.0942,-0.0762,-0.0718,-0.0718,-0.0718,-0.0718,-0.0762,-0.0942,-0.0987,-0.1031,-0.1166,-0.1211,-0.1211,-0.1211,-0.1525,-0.2018,-0.2644,-0.2689,-0.2644,-0.251,-0.2522,-0.2538,-0.2523,-0.2575,-0.2807,-0.3234,-0.3345,-0.3897,-0.4969,-0.4611,-0.4951,-0.6086,-0.558,-0.5541,-0.6125,-0.527,-0.4841,-0.4805,-0.3151,-0.2395,-0.3638,-0.3911,-0.4212,-0.421,-0.4035,-0.3984,-0.4315,-0.4542,-0.4694,-0.4699,-0.486,-0.5006,-0.5006,-0.5008,-0.5044,-0.51,-0.5399,-0.5663,-0.5879,-0.6114,-0.6309,-0.6368,-0.6384,-0.6387,-0.6387,-0.6387,-0.6387,-0.6387,-0.6387,-0.6387,-0.6387,-0.6387,-0.6387,-0.6387,-0.6387,-0.6387,-0.6387,-0.6387,-0.5887,-0.4834,-0.4834,-0.428,-0.3274,-0.3522,-0.3621,-0.3569,-0.2767,-0.244,-0.2346,-0.1029,-0.0479,-0.0462,-0.0185,-0.0046,-0.009,-0.009,-0.0404,-0.0807,-0.0807,-0.0807,-0.0807,-0.0807,-0.0762,-0.0762,-0.0762,-0.0718,-0.0718,-0.0718,-0.0718,-0.0718,-0.0718,-0.0718,-0.0718,-0.0718,-0.0718,-0.0718,-0.0718,-0.0718,-0.0718,-0.0718,-0.0718,-0.0718,-0.0718,-0.0718,-0.0718,-0.0718,-0.0718,-0.1121,-0.2109,-0.2199,-0.2019,-0.148,-0.1929,-0.2179,-0.2046,-0.2431,-0.2666,-0.265,-0.3183,-0.3519,-0.3562,-0.412,-0.4318,-0.4185,-0.4336,-0.4336,-0.4185,-0.3326,-0.2895,-0.2857,-0.1807,-0.1342,-0.307,-0.3403,-0.3736,-0.3786,-0.3741,-0.3764,-0.3973,-0.4106,-0.4243,-0.4243,-0.4471,-0.471,-0.4779,-0.487,-0.4968,-0.5093,-0.5276,-0.5469,-0.5613,-0.5741,-0.5847,-0.5882,-0.5887,-0.5887,-0.5887,-0.6187,-0.6387,-0.6387,-0.6387,-0.6387,-0.6387,-0.6387,-0.6387,-0.6387,-0.6387,-0.5984,-0.5081,-0.5081,-0.4529,-0.3473,-0.2922,-0.2469,-0.2116,-0.1512,-0.121,-0.121,-0.0908,-0.0798,-0.0784,-0.0343,-0.0145,-0.0141,-0.0047,0.0,0.0,0.0,-0.009,-0.0269,-0.0448,-0.0583,-0.0673,-0.0538,-0.0493,-0.0493,-0.0493,-0.0493,-0.0538,-0.0673,-0.0718,-0.0673,-0.0538,-0.0493,-0.0448,-0.0269,-0.0225,-0.0225,-0.0225,-0.0225,-0.0269,-0.0448,-0.0493,-0.0538,-0.0673,-0.0718,-0.0718,-0.0718,-0.0852,-0.1076,-0.1436,-0.157,-0.1615,-0.1436,-0.157,-0.1655,-0.1599,-0.1752,-0.1819,-0.1805,-0.1949,-0.2302,-0.2861,-0.2531,-0.2833,-0.3884,-0.3441,-0.3441,-0.3882,-0.3084,-0.2665,-0.2625,-0.1574,-0.1091,-0.2615,-0.288,-0.312,-0.3197,-0.3331,-0.3461,-0.3517,-0.3758,-0.3946,-0.3946,-0.4141,-0.4351,-0.4413,-0.4506,-0.4626,-0.481,-0.4997,-0.5194,-0.537,-0.5497,-0.5586,-0.5586,-0.5586,-0.5586,-0.5586,-0.5934,-0.6137,-0.6239,-0.6239,-0.6239,-0.6239,-0.6239,-0.6187,-0.6137,-0.6137,-0.5532,-0.4277,-0.4277,-0.3574,-0.2216,-0.131,-0.0958,-0.1009,-0.0303,0.0,0.0,0.0,0.0,0.0,0.0,0.0,0.0,0.0,0.0,0.0,0.0,0.0,-0.0045,-0.018,-0.0359,-0.0449,-0.0314,-0.0269,-0.0269,-0.0269,-0.0269,-0.0269,-0.0404,-0.0449,-0.0404,-0.0269,-0.0269,-0.0224,-0.0045,0.0,0.0,0.0,0.0,-0.0045,-0.0224,-0.0269,-0.0314,-0.0449,-0.0449,-0.0449,-0.0449,-0.0673,-0.0897,-0.1076,-0.1211,-0.13,-0.1391,-0.1391,-0.139,-0.13,-0.1373,-0.1318,-0.1142,-0.1216,-0.1459,-0.1999,-0.149,-0.1727,-0.2876,-0.2341,-0.23,-0.2792,-0.23,-0.1987,-0.1891,-0.1273,-0.0945,-0.2239,-0.2385,-0.2439,-0.2496,-0.2787,-0.3062,-0.3102,-0.3516,-0.3859,-0.3899,-0.3969,-0.3988,0.0,-0.3994,-0.4079,-0.4346,-0.4627,-0.4868,-0.515,-0.5388,-0.5536,-0.5536,-0.5536,-0.5536,-0.5536,-0.5536,-0.5687,-0.5942,-0.5992,-0.5992,-0.5992,-0.5992,-0.5839,-0.5586,-0.5586,-0.5031,-0.3924,-0.3773,-0.2819,-0.1059,-0.005,0.0303,0.0051,0.0051,0.0051,0.0051,0.0051,0.0051,0.0051,0.0051,0.0,0.0,0.0,0.0,0.0,0.0,0.0,0.0,0.0,0.0,0.0,0.0,0.0,0.0,0.0,0.0,0.0,0.0,0.0,0.0,0.0,0.0,0.0,0.0,0.0,0.0,0.0,0.0,0.0,0.0,0.0,0.0,0.0,0.0,0.0,0.0,-0.0224,-0.0538,-0.0987,-0.1076,-0.1166,-0.1345,-0.1345,-0.13,-0.1076,-0.1256,-0.1166,-0.0718,-0.0942,-0.1068,-0.1003,-0.1003,-0.1079,-0.1266,-0.1097,-0.0971,-0.0971,-0.0971,-0.0844,-0.0592,-0.0864,-0.0872,-0.1924,-0.2224,-0.2491,-0.2506,-0.2589,-0.2746,-0.3023,-0.3275,-0.3531,-0.3859,-0.3918,-0.3955,-0.3982,-0.3994,-0.4079,-0.4346,-0.454,-0.4703,-0.4858,-0.4985,-0.4985,-0.4985,0.0,-0.4985,-0.4985,-0.4985,-0.5135,-0.5391,-0.5589,-0.5687,-0.5687,-0.5687,-0.5687,-0.5586,-0.5586,-0.4628,-0.2515,-0.0907,0.0101,0.0606,0.0656,0.0657,0.0606,0.0606,0.0606,0.0606,0.0606,0.0606,0.0556,0.0404,0.0302,0.03,0.0098,0.0,0.0,0.0,0.0,0.0,0.0,0.0,0.0,0.0,0.0,0.0,0.0,0.0,0.0,0.0,0.0,0.0,0.0,0.0,0.0,0.0,0.0,0.0,0.0,0.0,0.0,0.0,0.0,0.0,0.0,0.0,0.0,0.0,-0.0045,-0.0224,-0.0538,-0.0718,-0.0807,-0.0852,-0.0897,-0.0852,-0.0807,-0.0852,-0.0807,-0.0718,-0.0762,-0.0805,-0.0757,-0.0757,-0.0793,-0.0864,-0.082,-0.0777,-0.0777,-0.0777,-0.074,-0.0662,-0.0577,-0.0534,-0.1574,-0.1788,-0.1962,-0.1962,-0.2118,-0.2268,-0.2478,-0.2849,-0.3219,-0.3459,-0.3636,-0.3795,-0.3806,-0.3881,-0.4063,-0.4332,-0.4453,-0.4587,-0.4754,-0.4784,-0.4784,-0.4784,-0.4784,-0.4784,-0.4784,-0.4784,-0.4885,-0.5037,-0.5288,-0.5436,-0.5436,-0.5436,-0.5386,-0.5233,-0.5233,-0.4126,-0.1863,-0.0151,0.0858,0.1212,0.1061,0.0909,0.0808,0.0808,0.0808,0.0808,0.0808,0.0808,0.0808,0.0657,0.0556,0.0554,0.0297,0.0195,0.0145,0.0047,0.0093,0.0185,0.0185,0.0275,0.0318,0.009,0.0,0.0,0.0,0.0,0.0,0.0,0.0,0.0,0.0,0.0,0.0,0.0,0.0,0.0,0.0,0.0,0.0,0.0,0.0,0.0,0.0,0.0,0.0,0.0,0.0,-0.0045,-0.0224,-0.0404,-0.0583,-0.0673,-0.0718,-0.0673,-0.0583,-0.0628,-0.0628,-0.0404,-0.0494,-0.0583,-0.0583,-0.0583,-0.0625,-0.0706,-0.0617,-0.0573,-0.0573,-0.0573,-0.0488,-0.0404,-0.0404,-0.0359,-0.1289,-0.1296,-0.1296,-0.1296,-0.157,-0.1832,-0.1791,-0.2385,-0.293,-0.3003,-0.3306,-0.3588,-0.3588,-0.3775,-0.3987,-0.4257,-0.4375,-0.4481,-0.4746,-0.4784,-0.4784,-0.4784,-0.4784,-0.4784,-0.4784,-0.4784,-0.4784,-0.4784,-0.5037,-0.514,-0.514,-0.514,-0.5037,-0.4784,-0.4684,-0.3626,-0.1613,-0.0554,0.0403,0.1263,0.1263,0.1111,0.0909,0.0909,0.0909,0.0909,0.0909,0.0909,0.0909,0.0859,0.0859,0.0807,0.0546,0.0443,0.0441,0.0193,0.0239,0.0477,0.0477,0.0613,0.0695,0.0228,0.0045,0.0045,0.0,0.0,0.0,0.0,0.0,0.0,0.0,0.0,0.0,0.0,0.0,0.0,0.0,0.0,0.0,0.0,0.0,0.0,0.0,0.0,0.0,0.0,0.0,0.0,0.0,-0.0224,-0.0404,-0.0583,-0.0628,-0.0538,-0.0359,-0.0493,-0.0449,-0.0045,-0.0224,-0.0359,-0.0359,-0.0359,-0.0448,-0.0583,-0.0448,-0.0359,-0.0359,-0.0359,-0.0224,0.0,-0.0224,-0.0224,-0.1295,-0.1296,-0.1296,-0.1296,-0.1335,-0.1483,-0.1753,-0.2158,0.0,-0.293,-0.3306,-0.3588,-0.3588,-0.3775,-0.3987,-0.4257,-0.4375,-0.4481,-0.4746,-0.4784,-0.4784,0.0,-0.4784,-0.4784,-0.4784,-0.4784,-0.4784,-0.4784,-0.4834,-0.4885,-0.4885,-0.4885,-0.4834,-0.4784,-0.3927,-0.2871,-0.1613,-0.0554,0.0504,0.1516,0.1516,0.1516,0.1465,0.1465,0.1465,0.1465,0.1465,0.1465,0.1465,0.1212,0.1111,0.1111,0.0855,0.0747,0.0736,0.0685,0.0677,0.0715,0.0715,0.0761,0.0758,0.0425,0.0327,0.0277,0.0047,0.0,0.0,0.0,0.0,0.0,0.0,0.0,0.0,0.0,0.0,0.0,0.0,0.0,0.0,0.0,0.0,0.0,0.0,0.0,0.0,0.0,0.0,0.0,0.0,-0.0045,-0.009,-0.0135,-0.0135,-0.009,-0.009,-0.009,-0.009,0.0,-0.0045,-0.009,-0.009,-0.009,-0.009,-0.0135,-0.009,-0.009,-0.009,-0.009,-0.0045,0.0,-0.0045,-0.0045,-0.1296,-0.1296,-0.1296,-0.1296,-0.1296,-0.1323,-0.1461,0.0,0.0,-0.2585,-0.3134,-0.3573,-0.358,-0.3775,-0.3973,-0.4197,-0.4308,-0.4459,-0.473,-0.4769,-0.4785,-0.4778,-0.4784,-0.4784,-0.4784,-0.4784,-0.4784,-0.4784,-0.4784,-0.4784,-0.4784,-0.4784,-0.4784,-0.4784,-0.428,-0.3525,-0.2418,-0.1914,-0.1108,-0.005,0.0504,0.0757,0.0807,0.1364,0.1617,0.1617,0.1617,0.1617,0.1566,0.1465,0.1415,0.1364,0.1111,0.1005,0.0997,0.0847,0.0892,0.1032,0.1032,0.1123,0.1164,0.0882,0.0626,0.0377,0.0241,0.0097,0.0,0.0,0.0,0.0,0.0,0.0,0.0,0.0,0.0,0.0,0.0,0.0,0.0,0.0,0.0,0.0,0.0,0.0137,0.0229,0.0185,0.023,0.0228,0.0228,0.009,0.0,0.0,0.0,0.0,0.0,0.0,0.0,0.0,0.0,0.0,0.0,0.0,0.0,0.0,0.0,0.0,0.0,0.0,0.0,0.0,0.0,0.0,-0.1296,-0.1296,-0.1296,-0.1296,-0.1296,-0.128,-0.1217,-0.1712,-0.2204,-0.2291,-0.2936,-0.3526,-0.3572,-0.3759,-0.3936,-0.4181,-0.4228,-0.4375,-0.4667,-0.4708,-0.4741,-0.4774,-0.4784,-0.4784,-0.4784,-0.4784,-0.4784,-0.4784,-0.4684,-0.4684,-0.4784,-0.4784,-0.4784,-0.4784,-0.4784,-0.428,-0.3224,-0.3224,-0.267,-0.1613,-0.0756,-0.0353,-0.0302,0.0757,0.1262,0.1262,0.1515,0.1617,0.1617,0.1617,0.1617,0.1566,0.1364,0.1263,0.1263,0.1061,0.1111,0.1263,0.1263,0.1401,0.1585,0.1357,0.0938,0.053,0.0442,0.0296,0.0149,0.0101,0.0152,0.0152,0.0152,0.0152,0.0152,0.0152,0.015,0.0148,0.0147,0.0192,0.014,0.0093,0.0138,0.0137,0.0093,0.0326,0.0468,0.0476,0.047,0.0466,0.0466,0.032,0.0181,0.0181,0.009,0.0045,0.009,0.0045,0.0045,0.009,0.0045,0.0,0.0,0.0,0.0,0.0,0.0,0.0,0.0,0.0,0.0,0.0,0.0,0.0,-0.1296,-0.1296,-0.1296,-0.1296,-0.1296,-0.128,-0.1217,0.0,-0.2204,-0.2291,-0.2936,-0.3526,-0.3572,-0.3707,-0.3901,-0.4165,-0.4218,-0.4308,-0.4659,-0.4708,-0.4741,-0.4774,0.0,-0.4784,-0.4784,-0.4784,-0.4784,-0.4784,-0.4334,-0.4282,-0.4784,-0.4784,-0.4784,-0.4784,-0.4784,-0.428,-0.3224,-0.3224,-0.267,-0.1613,-0.1513,-0.1462,-0.1412,-0.0353,0.0151,0.0202,0.1161,0.1617,0.1617,0.1617,0.1617,0.1617,0.1566,0.1566,0.1566,0.1516,0.1566,0.1566,0.1566,0.1564,0.1613,0.1565,0.1345,0.1032,0.0551,0.0554,0.0655,0.0454,0.0556,0.0707,0.0707,0.0707,0.0707,0.0707,0.0706,0.0702,0.0739,0.0734,0.0631,0.0429,0.057,0.0664,0.0428,0.057,0.0761,0.0763,0.0761,0.0761,0.0761,0.0748,0.0738,0.0738,0.0273,0.009,0.0359,0.0135,0.009,0.0359,0.0135,0.0,0.0,0.0,0.0,0.0,0.0,0.0,0.0,0.0,0.0,0.0,0.0,0.0,-0.1291,-0.1296,-0.1296,-0.1296,-0.1296,-0.1319,-0.1476,-0.1917,-0.2403,-0.2669,-0.3185,-0.3603,-0.3693,-0.3777,-0.3874,-0.405,-0.4089,-0.4197,-0.4502,-0.4591,-0.4659,-0.4749,-0.4754,-0.4784,-0.4784,-0.4784,-0.4684,-0.4334,-0.3831,-0.3632,-0.3831,-0.4133,-0.4334,-0.4334,-0.4634,-0.4582,-0.418,-0.418,-0.3927,-0.3525,-0.2871,-0.2569,-0.2519,-0.1462,-0.0605,0.0,0.0454,0.1009,0.1617,0.1617,0.1617,0.1617,0.1617,0.1617,0.1617,0.1617,0.1617,0.1617,0.1617,0.1617,0.1617,0.1617,0.1508,0.1351,0.1008,0.0859,0.0758,0.0657,0.0707,0.0808,0.0808,0.0808,0.0808,0.0808,0.0808,0.0806,0.08,0.0792,0.0784,0.068,0.0721,0.0766,0.0678,0.0874,0.1023,0.1035,0.1027,0.1019,0.1019,0.0906,0.0801,0.0801,0.0595,0.0449,0.0583,0.0493,0.0449,0.0583,0.0359,0.0314,0.0404,0.0314,0.0314,0.0404,0.0404,0.0359,0.0224,0.0224,0.018,0.0,0.018,0.0224,-0.1327,-0.1296,-0.1296,-0.1296,-0.1531,-0.1785,-0.1972,-0.2612,-0.3231,-0.3544,-0.3767,-0.392,-0.4057,-0.3919,-0.3864,-0.3964,-0.3994,-0.4095,-0.4434,-0.453,-0.4616,-0.4732,-0.475,-0.4734,-0.4583,-0.4435,-0.4183,-0.3783,-0.3279,-0.2977,-0.2977,-0.333,-0.358,-0.3783,-0.4435,-0.4734,-0.4583,-0.4583,-0.4583,-0.4533,-0.3629,-0.3176,-0.3175,-0.2067,-0.121,-0.0454,-0.0151,0.0606,0.1617,0.1516,0.1465,0.1516,0.1667,0.1718,0.1718,0.1617,0.1617,0.1617,0.1617,0.1617,0.1617,0.1617,0.1617,0.1566,0.1364,0.1162,0.101,0.096,0.096,0.1061,0.1061,0.1061,0.1061,0.1061,0.1061,0.1061,0.1061,0.105,0.099,0.0941,0.098,0.1023,0.0939,0.1139,0.1293,0.1311,0.1299,0.1337,0.1337,0.1168,0.1058,0.1058,0.098,0.0911,0.0815,0.0765,0.0718,0.0807,0.0628,0.0538,0.0673,0.0583,0.0538,0.0718,0.0718,0.0628,0.0493,0.0493,0.0404,0.0225,0.0404,0.0538,-0.1483,-0.1296,-0.1296,-0.1296,-0.2038,-0.28,-0.2806,-0.388,-0.4897,-0.4972,-0.479,-0.4604,-0.4678,-0.4194,-0.3864,-0.3964,-0.3994,-0.4161,-0.452,-0.4619,-0.4636,-0.4762,-0.4782,-0.4583,-0.4083,-0.3531,-0.323,-0.323,-0.2725,-0.2422,-0.2422,-0.2422,-0.2674,-0.318,-0.4234,-0.4533,-0.4033,-0.4033,-0.4033,-0.3982,-0.3482,-0.318,-0.318,-0.2068,-0.1613,-0.1513,-0.0454,0.0606,0.1566,0.1314,0.1212,0.1263,0.1768,0.1971,0.1971,0.1718,0.1617,0.1617,0.1617,0.1617,0.1617,0.1617,0.1617,0.1617,0.1617,0.1617,0.1516,0.1263,0.1364,0.1617,0.1617,0.1617,0.1617,0.1617,0.1617,0.1617,0.1617,0.1616,0.1515,0.1263,0.1414,0.1515,0.1262,0.1414,0.1616,0.1617,0.1616,0.1616,0.1616,0.159,0.1571,0.1571,0.1543,0.1371,0.1112,0.0862,0.0807,0.1076,0.0852,0.0718,0.0718,0.0718,0.0718,0.0718,0.0718,0.0718,0.0718,0.0718,0.0718,0.0673,0.0718,0.0852,-0.3119,-0.3124,-0.319,-0.3026,-0.3351,-0.3745,-0.3985,-0.4523,-0.5037,-0.5289,-0.5304,-0.5307,-0.5306,-0.516,-0.4952,-0.4803,-0.4763,-0.471,-0.4624,-0.4334,-0.4147,-0.4195,-0.3902,-0.3632,-0.3482,-0.2977,-0.2674,-0.2674,-0.217,-0.1869,-0.1869,-0.222,-0.2472,-0.2623,-0.333,-0.3632,-0.3432,-0.3432,-0.3432,-0.343,-0.3281,-0.318,-0.318,-0.2826,-0.2269,-0.1563,-0.1261,-0.0505,0.0556,0.101,0.1212,0.1263,0.1768,0.2022,0.1971,0.1718,0.1617,0.1617,0.1617,0.1617,0.1617,0.1617,0.1617,0.1617,0.1819,0.1768,0.1566,0.1516,0.1516,0.1617,0.1617,0.1617,0.1617,0.1617,0.1617,0.1617,0.1617,0.1617,0.1566,0.1465,0.1566,0.1566,0.1465,0.1566,0.1617,0.1617,0.1617,0.1617,0.1617,0.1609,0.1603,0.1603,0.1575,0.1496,0.1372,0.1298,0.1283,0.1375,0.113,0.1031,0.1166,0.1031,0.1031,0.1166,0.1166,0.1121,0.0987,0.0987,0.0987,0.0987,0.0987,0.113,0.0,-0.3887,-0.3955,-0.3824,-0.425,-0.4758,-0.4981,-0.5501,-0.5983,-0.6197,-0.6103,-0.5973,-0.5973,-0.5824,-0.5639,-0.5476,-0.5258,-0.5009,-0.4718,-0.4185,-0.3801,-0.366,-0.3206,-0.2876,-0.2876,-0.2423,-0.212,-0.212,-0.1768,-0.1617,-0.1617,-0.1919,-0.212,-0.212,-0.2826,-0.3079,-0.2876,-0.2876,-0.2876,-0.2876,-0.2676,-0.2575,-0.2575,-0.2575,-0.2221,-0.1615,-0.1615,-0.1211,0.0,0.0253,0.0606,0.0657,0.1515,0.1667,0.1415,0.1768,0.1717,0.1516,0.1818,0.1919,0.1919,0.1919,0.1919,0.1919,0.2121,0.197,0.1768,0.1768,0.1667,0.1617,0.1617,0.1617,0.1617,0.1617,0.1617,0.1617,0.1617,0.1617,0.1617,0.1617,0.1617,0.1617,0.1617,0.1617,0.1617,0.1617,0.1617,0.1617,0.1617,0.1617,0.1617,0.1617,0.16,0.1581,0.1562,0.1522,0.1498,0.1498,0.1341,0.1327,0.1453,0.1316,0.1311,0.1391,0.1391,0.1345,0.1211,0.1211,0.1211,0.1211,0.1221,0.1325,0.0,-0.4118,-0.4094,-0.4085,-0.4944,-0.58,-0.58,-0.667,0.0,-0.7484,-0.7061,-0.6679,-0.6694,-0.634,-0.6044,-0.6079,-0.5656,-0.5193,-0.4857,-0.4189,-0.3531,-0.3116,-0.2624,-0.2321,-0.2321,-0.1868,-0.1617,-0.1617,-0.1617,-0.1617,-0.1617,-0.1617,-0.1617,-0.1617,-0.2575,-0.2826,-0.2371,-0.2321,-0.2321,-0.2321,-0.1818,-0.1617,-0.1617,-0.1617,-0.1617,-0.1617,-0.1617,-0.1617,-0.1516,-0.0707,-0.0404,-0.0252,0.1009,0.106,0.0555,0.1766,0.1767,0.1212,0.2018,0.2321,0.2321,0.2371,0.2422,0.2422,0.2422,0.2221,0.2021,0.2021,0.1869,0.1667,0.1667,0.1667,0.1617,0.1667,0.1617,0.1617,0.1617,0.1617,0.1617,0.1617,0.1617,0.1617,0.1617,0.1617,0.1617,0.1617,0.1617,0.1617,0.1617,0.1617,0.1617,0.1617,0.1617,0.1617,0.1617,0.1563,0.1529,0.1529,0.1479,0.1513,0.1485,0.1484,0.147,0.1397,0.1395,0.1393,0.1391,0.1391,0.1391,0.1391,0.1466,0.1482,-0.7598,0.0,-0.6966,-0.6831,-0.6797,-0.6849,0.0,-0.7169,-0.7484,-0.7484,-0.7369,-0.7331,-0.7474,-0.741,-0.7289,-0.7099,-0.6799,-0.6174,-0.5054,-0.3615,-0.2556,-0.2015,-0.1869,-0.1768,-0.1768,-0.1667,-0.1617,-0.1617,-0.1617,-0.1617,-0.1617,-0.1617,-0.1617,-0.1617,-0.1869,-0.192,-0.1768,-0.1768,-0.1768,-0.1768,-0.1667,-0.1617,-0.1617,-0.1617,-0.1617,-0.1617,-0.1617,-0.1617,-0.1516,-0.0707,-0.0404,-0.0303,0.0404,0.0555,0.0404,0.0505,0.0454,0.0404,0.1212,0.1465,0.1565,0.222,0.2522,0.2724,0.2724,0.2522,0.2321,0.2321,0.227,0.222,0.222,0.207,0.197,0.217,0.207,0.1921,0.1921,0.1921,0.1869,0.1617,0.1617,0.1617,0.1617,0.1617,0.1617,0.1617,0.1617,0.1617,0.1617,0.1617,0.1617,0.1617,0.1617,0.1617,0.1617,0.1582,0.1561,0.1561,0.1539,0.1523,0.1515,0.1515,0.1512,0.1458,0.1482,0.1459,0.1391,0.1391,0.1391,0.1391,0.1466,0.1493,-0.9037,-0.842,-0.784,-0.7733,-0.7455,-0.7187,-0.7187,-0.7358,-0.7484,0.0,0.0,0.0,-0.7653,-0.7728,-0.7726,-0.77,-0.7222,-0.6298,-0.4586,-0.3412,-0.2493,-0.1716,-0.1617,-0.1617,-0.1617,-0.1617,-0.1617,-0.1617,-0.1617,-0.1617,-0.1617,-0.1617,-0.1617,-0.1617,-0.1617,-0.1617,-0.1617,-0.1617,-0.1617,-0.1617,-0.1617,-0.1617,-0.1617,-0.1617,-0.1617,-0.1617,-0.1617,-0.1617,-0.1566,-0.1111,-0.096,-0.0909,-0.0202,-0.0202,-0.0455,0.0151,0.0151,0.0,0.1161,0.1564,0.1564,0.1664,0.2017,0.2422,0.2422,0.232,0.2269,0.2522,0.2472,0.2422,0.2422,0.2271,0.2221,0.2371,0.2271,0.2171,0.2171,0.2171,0.2121,0.2019,0.1869,0.1768,0.1768,0.1768,0.1768,0.1768,0.1869,0.1969,0.1969,0.1969,0.1919,0.1819,0.1768,0.1718,0.1617,0.1602,0.1592,0.1592,0.1577,0.1562,0.1547,0.1547,0.154,0.1478,0.151,0.1487,0.1456,0.1424,0.1424,0.1457,0.1502,0.1532,-0.9893,-0.8915,-0.8025,-0.7786,-0.7494,-0.7265,-0.7265,0.0,0.0,0.0,0.0,0.0,0.0,-0.7593,-0.7747,-0.7964,-0.7274,-0.6079,-0.4135,-0.3489,-0.2814,-0.1717,-0.1617,-0.1617,-0.1617,-0.1617,-0.1617,-0.1617,-0.1617,-0.1617,-0.1617,-0.1617,-0.1617,-0.1617,-0.1617,-0.1617,-0.1617,-0.1617,-0.1617,-0.1617,-0.1617,-0.1617,-0.1617,-0.1617,-0.1617,-0.1617,-0.1617,-0.1617,-0.1617,-0.1617,-0.1617,-0.1516,-0.0859,-0.101,-0.1414,-0.005,0.0,-0.0353,0.111,0.1715,0.1714,0.1008,0.126,0.1815,0.1967,0.2017,0.2118,0.2573,0.2522,0.2371,0.2472,0.2472,0.2472,0.2522,0.2472,0.2472,0.2472,0.2472,0.2472,0.2422,0.2222,0.2071,0.2071,0.2071,0.2071,0.2071,0.2271,0.2422,0.2422,0.2422,0.2321,0.2071,0.2071,0.197,0.1717,0.1667,0.1667,0.1667,0.1617,0.1605,0.1678,0.1628,0.1613,0.1582,0.1533,0.1518,0.1487,0.1513,0.1513,0.1489,0.1545,0.162,-1.0725,-1.0291,-0.9529,-0.8273,-0.7686,-0.7443,-0.7443,-0.7464,0.0,0.0,0.0,0.0,0.0,-0.7554,-0.7746,-0.7906,-0.7134,-0.6062,-0.4661,-0.3723,-0.2822,-0.1714,-0.1617,-0.1617,-0.1617,-0.1617,-0.1617,-0.1617,-0.1617,-0.1617,-0.1617,-0.1617,-0.1617,-0.1617,-0.1617,-0.1617,-0.1617,-0.1617,-0.1617,-0.1617,-0.1617,-0.1617,-0.1617,-0.1617,-0.1617,-0.1617,-0.1617,-0.1617,-0.1617,-0.1617,-0.1617,-0.1566,-0.1465,-0.1516,-0.1566,-0.1313,-0.1313,-0.1263,-0.0353,0.0404,0.0958,0.0857,0.0907,0.1109,0.1815,0.2017,0.2017,0.2118,0.2118,0.2219,0.2876,0.2927,0.2775,0.3027,0.2927,0.2725,0.2725,0.2725,0.2674,0.2422,0.2371,0.2321,0.2321,0.2321,0.2321,0.2321,0.2371,0.2422,0.2422,0.2422,0.2371,0.2321,0.2321,0.2321,0.227,0.207,0.1921,0.1921,0.1718,0.1716,0.1913,0.1711,0.1695,0.1908,0.1711,0.1549,0.1519,0.1523,0.1523,0.152,0.1555,0.162,-1.0419,-1.0275,-0.9933,-0.892,-0.8392,-0.8016,-0.7599,-0.7484,0.0,0.0,0.0,0.0,0.0,-0.7456,-0.7498,-0.7608,-0.7512,-0.6768,-0.4886,-0.4294,-0.344,-0.1817,-0.1617,-0.1617,-0.1617,-0.1617,-0.1617,-0.1617,-0.1617,-0.1617,-0.1617,-0.1617,-0.1617,-0.1617,-0.1617,-0.1617,-0.1617,-0.1617,-0.1617,-0.1617,-0.1617,-0.1617,-0.1617,-0.1617,-0.1617,-0.1617,-0.1617,-0.1617,-0.1617,-0.1617,-0.1617,-0.1617,-0.1617,-0.1617,-0.1617,-0.1617,-0.1314,-0.096,-0.101,-0.0505,0.0101,-0.0353,-0.0202,0.0202,0.0605,0.1009,0.1361,0.1361,0.1967,0.2623,0.2573,0.2775,0.3029,0.318,0.313,0.3027,0.3027,0.3027,0.2977,0.2876,0.2725,0.2623,0.2623,0.2623,0.2623,0.2623,0.2725,0.2826,0.2826,0.2826,0.2775,0.2623,0.2623,0.2573,0.2422,0.2271,0.207,0.1819,0.1819,0.1869,0.1971,0.202,0.2112,0.2194,0.2093,0.2024,0.1985,0.2006,0.2006,0.1986,0.2025,0.2043,-1.027,-1.0282,-1.0271,-0.9608,0.0,-0.85,-0.7983,-0.7667,-0.7504,0.0,0.0,0.0,0.0,-0.7417,-0.7415,-0.7454,-0.7868,-0.7427,-0.5317,-0.4883,-0.4074,-0.2221,-0.1768,-0.1617,-0.1617,-0.1617,-0.1617,-0.1617,-0.1617,-0.1617,-0.1617,-0.1617,-0.1617,-0.1617,-0.1617,-0.1617,-0.1617,-0.1617,-0.1617,-0.1617,-0.1617,-0.1617,-0.1617,-0.1617,-0.1617,-0.1617,-0.1617,-0.1617,-0.1617,-0.1617,-0.1617,-0.1617,-0.1617,-0.1617,-0.1617,-0.1617,-0.1212,-0.0758,-0.1364,-0.1212,-0.0758,-0.1415,-0.1162,-0.0657,-0.0455,0.005,0.0504,0.0504,0.1563,0.2522,0.2118,0.2573,0.318,0.318,0.318,0.318,0.318,0.318,0.318,0.318,0.3029,0.2876,0.2876,0.2876,0.2876,0.2876,0.3079,0.318,0.318,0.318,0.313,0.2927,0.2876,0.2775,0.2522,0.2472,0.227,0.1818,0.197,0.2122,0.2172,0.2322,0.2422,0.2472,0.2422,0.2404,0.2419,0.2404,0.2403,0.242,0.2405,0.2422,-1.111,-1.1114,-1.0983,-1.0289,-0.9282,-0.85,-0.8815,-0.8177,0.0,-0.7906,0.0,0.0,-0.7671,-0.7682,-0.7647,-0.76,-0.7831,-0.7624,-0.6423,-0.5422,-0.4373,-0.3224,-0.222,-0.1617,-0.1617,-0.1617,-0.1617,-0.1617,-0.1617,-0.1617,-0.1617,-0.1617,-0.1617,-0.1617,-0.1617,-0.1617,-0.1617,-0.1617,-0.1617,-0.1617,-0.1617,-0.1617,-0.1617,-0.1617,-0.1617,-0.1617,-0.1617,-0.1617,-0.1617,-0.1617,-0.1617,-0.1617,-0.1617,-0.1617,-0.1617,-0.1617,-0.1566,-0.1516,-0.1566,-0.1566,-0.1516,-0.1566,-0.1566,-0.1364,-0.0606,-0.0354,-0.0303,-0.0303,0.0303,0.1109,0.1815,0.2573,0.318,0.318,0.318,0.318,0.318,0.318,0.318,0.318,0.318,0.318,0.318,0.318,0.318,0.318,0.318,0.318,0.318,0.318,0.318,0.318,0.318,0.3079,0.2775,0.2775,0.2674,0.2371,0.2371,0.2472,0.2725,0.2522,0.2522,0.2775,0.2522,0.242,0.2416,0.242,0.242,0.2416,0.242,0.2422,-1.0976,-1.1146,-1.1249,-1.102,-1.0437,0.0,0.0,-0.854,-0.8343,-0.8041,-0.7851,0.0,-0.741,-0.7519,-0.7622,-0.759,-0.7848,-0.764,-0.6537,-0.5479,-0.4423,-0.3323,-0.227,-0.1617,-0.1617,-0.1617,-0.1617,-0.1617,-0.1617,-0.1617,-0.1617,-0.1617,-0.1617,-0.1617,-0.1617,-0.1617,-0.1617,-0.1617,-0.1617,-0.1617,-0.1617,-0.1617,-0.1617,-0.1617,-0.1617,-0.1617,-0.1617,-0.1617,-0.1617,-0.1617,-0.1617,-0.1617,-0.1617,-0.1617,-0.1617,-0.1617,-0.1617,-0.1617,-0.1617,-0.1617,-0.1617,-0.1617,-0.1617,-0.1566,-0.1263,-0.0808,-0.0505,-0.101,-0.0202,0.0756,0.0555,0.111,0.1714,0.1714,0.1714,0.1865,0.237,0.2472,0.2623,0.3079,0.318,0.318,0.318,0.318,0.318,0.318,0.318,0.318,0.318,0.318,0.318,0.318,0.318,0.318,0.3079,0.3029,0.3027,0.2927,0.2725,0.2674,0.2775,0.2876,0.2927,0.3029,0.2927,0.2876,0.2876,0.2876,0.2876,0.2876,0.2876,0.2876,-1.0976,-1.0975,-1.1065,-1.1334,0.0,0.0,-0.9175,-0.8975,-0.8821,-0.8205,-0.7892,-0.765,-0.7342,-0.7493,-0.7691,-0.76,-0.7848,-0.7739,-0.6986,-0.5679,-0.4524,-0.3775,-0.2471,-0.1617,-0.1617,-0.1617,-0.1617,-0.1617,-0.1617,-0.1617,-0.1617,-0.1617,-0.1617,-0.1617,-0.1617,-0.1617,-0.1617,-0.1617,-0.1617,-0.1617,-0.1516,-0.1465,-0.1465,-0.1465,-0.1465,-0.1465,-0.1465,-0.1516,-0.1617,-0.1617,-0.1617,-0.1617,-0.1617,-0.1617,-0.1617,-0.1617,-0.1617,-0.1617,-0.1617,-0.1617,-0.1617,-0.1617,-0.1617,-0.1617,-0.1617,-0.1212,-0.0909,-0.1465,-0.0808,-0.0101,-0.0656,0.0,0.0857,0.1109,0.1159,0.131,0.1865,0.2219,0.2522,0.3079,0.318,0.318,0.318,0.318,0.318,0.318,0.318,0.318,0.318,0.318,0.318,0.318,0.318,0.318,0.318,0.318,0.318,0.318,0.3029,0.2927,0.2927,0.3079,0.318,0.318,0.318,0.318,0.318,0.318,0.318,0.318,0.318,0.318,-1.1245,-1.0712,-1.0411,-1.1179,0.0,0.0,-0.9911,-0.9473,-0.8864,-0.8308,-0.8028,-0.7775,-0.7479,-0.7677,-0.7828,-0.7647,-0.7848,-0.7988,-0.7988,-0.6179,-0.4824,-0.4824,-0.2923,-0.1617,-0.1617,-0.1617,-0.1617,-0.1617,-0.1617,-0.1617,-0.1617,-0.1617,-0.1617,-0.1617,-0.1617,-0.1617,-0.1617,-0.1617,-0.1617,-0.1566,-0.1314,-0.1212,-0.1212,-0.1212,-0.1212,-0.1212,-0.1212,-0.1364,-0.1617,-0.1617,-0.1617,-0.1617,-0.1617,-0.1617,-0.1617,-0.1617,-0.1617,-0.1617,-0.1617,-0.1617,-0.1617,-0.1617,-0.1617,-0.1617,-0.1617,-0.1617,-0.1617,-0.1617,-0.1617,-0.1617,-0.1566,-0.0404,0.1008,0.1765,0.1967,0.1967,0.1967,0.2623,0.318,0.318,0.318,0.318,0.318,0.318,0.318,0.318,0.318,0.318,0.318,0.318,0.318,0.318,0.318,0.318,0.318,0.318,0.318,0.318,0.318,0.318,0.318,0.318,0.318,0.318,0.318,0.318,0.318,0.318,0.318,0.318,0.318,0.318,-1.0238,-1.0366,-1.0624,-1.0007,0.0,0.0,0.0,-0.9128,0.0,0.0,-0.7722,-0.7674,-0.7454,-0.7624,-0.7794,-0.7746,-0.7864,-0.7988,-0.7988,-0.6179,-0.4824,-0.4824,-0.2923,-0.1617,-0.1617,-0.1617,-0.1617,-0.1617,-0.1617,-0.1617,-0.1617,-0.1617,-0.1617,-0.1617,-0.1415,-0.1314,-0.1314,-0.1111,-0.1061,-0.1061,-0.096,-0.101,-0.1212,-0.101,-0.0909,-0.0909,-0.1111,-0.1263,-0.1314,-0.1516,-0.1617,-0.1617,-0.1617,-0.1617,-0.1617,-0.1617,-0.1617,-0.1617,-0.1617,-0.1617,-0.1617,-0.1617,-0.1617,-0.1617,-0.1617,-0.1617,-0.1617,-0.1617,-0.1617,-0.1465,-0.0909,-0.0404,-0.0151,-0.0454,-0.0101,0.0454,0.1059,0.1361,0.1865,0.2977,0.318,0.318,0.318,0.318,0.318,0.318,0.318,0.318,0.318,0.318,0.318,0.318,0.318,0.318,0.318,0.318,0.318,0.318,0.318,0.318,0.318,0.318,0.318,0.318,0.318,0.318,0.318,0.318,0.318,0.318,0.318,0.318,-1.0208,-1.0211,-1.0262,-0.9523,-0.9351,-0.914,-0.8505,0.0,0.0,-0.7693,-0.7527,-0.7448,-0.7484,-0.7607,-0.7746,-0.7801,-0.7891,-0.7988,-0.7988,-0.6179,-0.4824,-0.4824,-0.2923,-0.1617,-0.1617,-0.1617,-0.1617,-0.1617,-0.1617,-0.1566,-0.1465,-0.1465,-0.1415,-0.1263,-0.1111,-0.1061,-0.1061,-0.0859,-0.0808,-0.0808,-0.0707,-0.0707,-0.0859,-0.0707,-0.0657,-0.0657,-0.0909,-0.1111,-0.1212,-0.1364,-0.1516,-0.1617,-0.1617,-0.1617,-0.1617,-0.1617,-0.1617,-0.1566,-0.1465,-0.1516,-0.1566,-0.1364,-0.1364,-0.1415,-0.1314,-0.1364,-0.1465,-0.1465,-0.1465,-0.1364,-0.096,-0.0556,-0.0404,-0.096,-0.0505,0.0202,0.0706,0.0806,0.126,0.2876,0.2927,0.2826,0.313,0.318,0.318,0.318,0.318,0.318,0.318,0.318,0.318,0.318,0.318,0.318,0.318,0.318,0.318,0.318,0.318,0.318,0.318,0.318,0.318,0.318,0.318,0.318,0.318,0.318,0.318,0.318,0.318,0.318,-1.0657,-1.0085,-0.9577,-0.9398,-0.8355,-0.7393,-0.7443,-0.7462,-0.7498,-0.7632,-0.7379,-0.7206,-0.7546,-0.7611,-0.7665,-0.7811,-0.7897,-0.7988,-0.7889,-0.6079,-0.4774,-0.4674,-0.2822,-0.1617,-0.1617,-0.1566,-0.1566,-0.1566,-0.1566,-0.1415,-0.1162,-0.1162,-0.1061,-0.0808,-0.0758,-0.0758,-0.0758,-0.0758,-0.0707,-0.0707,-0.0505,-0.0354,-0.0354,-0.0354,-0.0354,-0.0404,-0.0657,-0.0909,-0.1162,-0.1212,-0.1364,-0.1566,-0.1566,-0.1617,-0.1617,-0.1566,-0.1566,-0.1516,-0.1263,-0.1314,-0.1465,-0.096,-0.096,-0.1111,-0.0859,-0.096,-0.1162,-0.1162,-0.1162,-0.1212,-0.1465,-0.0758,-0.0051,-0.0354,0.0151,0.0706,0.0706,0.0706,0.116,0.2775,0.2522,0.2269,0.3079,0.318,0.323,0.3281,0.323,0.323,0.3281,0.323,0.318,0.318,0.318,0.318,0.318,0.318,0.318,0.318,0.318,0.318,0.318,0.318,0.318,0.318,0.318,0.318,0.318,0.318,0.318,0.318,0.318,0.318,-0.936,-0.9362,-0.9425,-0.7664,-0.7148,-0.711,-0.7155,-0.7187,-0.7197,-0.7224,-0.7303,-0.7377,-0.7563,-0.7692,-0.7814,-0.7917,-0.7968,-0.769,-0.6886,-0.5629,-0.4474,-0.3624,-0.2371,-0.1617,-0.1617,-0.1415,-0.1263,-0.1263,-0.1111,-0.096,-0.0909,-0.0909,-0.0859,-0.0808,-0.0606,-0.0505,-0.0505,-0.0253,-0.0152,-0.0152,-0.0101,-0.0101,-0.0101,-0.0101,-0.0202,-0.0404,-0.0455,-0.0657,-0.0909,-0.1111,-0.1212,-0.1314,-0.1516,-0.1617,-0.1566,-0.1364,-0.1263,-0.1263,-0.096,-0.0909,-0.096,-0.0859,-0.0859,-0.0859,-0.0808,-0.0859,-0.0909,-0.0909,-0.0909,-0.0909,-0.096,-0.0505,-0.0101,-0.0606,-0.0404,-0.0151,-0.0151,-0.0151,0.0353,0.1967,0.2118,0.2269,0.3079,0.318,0.3331,0.3783,0.3482,0.3331,0.3783,0.3482,0.318,0.318,0.318,0.318,0.318,0.318,0.318,0.318,0.318,0.318,0.318,0.318,0.318,0.318,0.318,0.318,0.318,0.318,0.318,0.318,0.318,0.318,-0.9141,-0.8907,-0.867,-0.7157,0.0,-0.6902,-0.7071,-0.7095,-0.7095,-0.7095,-0.7204,-0.7305,-0.7461,-0.7611,-0.7756,-0.7906,-0.7542,-0.6986,-0.6284,-0.4826,-0.3571,-0.2919,-0.1866,-0.1212,-0.1212,-0.1111,-0.101,-0.101,-0.0859,-0.0758,-0.0606,-0.0606,-0.0556,-0.0404,-0.0303,-0.0202,-0.0202,-0.0051,0.0,0.0,0.0,0.0,0.0,0.0,-0.0101,-0.0202,-0.0202,-0.0354,-0.0606,-0.0758,-0.0909,-0.101,-0.1314,-0.1314,-0.1212,-0.1212,-0.1111,-0.096,-0.0707,-0.0707,-0.0758,-0.0505,-0.0505,-0.0606,-0.0455,-0.0505,-0.0606,-0.0606,-0.0606,-0.0657,-0.0758,-0.0505,-0.0303,-0.0707,-0.0505,-0.0202,-0.0202,-0.0505,-0.0353,0.116,0.1412,0.1765,0.2823,0.353,0.4083,0.4334,0.4133,0.3982,0.3982,0.3732,0.3481,0.323,0.318,0.318,0.318,0.318,0.318,0.318,0.318,0.318,0.318,0.318,0.318,0.318,0.318,0.318,0.318,0.318,0.318,0.318,0.318,0.318,-0.9212,-0.8398,-0.7593,-0.7035,-0.6802,-0.677,-0.6997,-0.7078,-0.7095,-0.7095,-0.7095,-0.7142,-0.7343,-0.7475,-0.7473,-0.7443,-0.6781,-0.6061,-0.5475,-0.3872,-0.2568,-0.2165,-0.1362,-0.0808,-0.0808,-0.0758,-0.0707,-0.0707,-0.0707,-0.0556,-0.0354,-0.0354,-0.0253,0.0,0.0,0.0,0.0,0.0,0.0,0.0,0.0,0.0,0.0,0.0,0.0,0.0,0.0,-0.0101,-0.0354,-0.0404,-0.0556,-0.0758,-0.101,-0.101,-0.0808,-0.101,-0.0909,-0.0707,-0.0404,-0.0455,-0.0606,-0.0152,-0.0152,-0.0303,-0.0051,-0.0152,-0.0354,-0.0354,-0.0354,-0.0404,-0.0606,-0.0556,-0.0455,-0.0606,-0.0354,-0.0101,-0.0152,-0.0657,-0.0757,0.0504,0.0857,0.136,0.2669,0.3776,0.4634,0.4885,0.4834,0.4684,0.4334,0.4183,0.3932,0.3381,0.3331,0.3281,0.323,0.318,0.318,0.318,0.318,0.318,0.318,0.318,0.318,0.318,0.318,0.318,0.318,0.318,0.318,0.318,0.318,0.318,-0.8643,-0.7325,-0.6328,-0.65,-0.6641,-0.6746,-0.6876,-0.7007,-0.7095,-0.7095,-0.7095,-0.7142,-0.7343,-0.7207,-0.6842,-0.6166,-0.5825,-0.4984,-0.3162,-0.2616,-0.2116,-0.111,-0.0909,-0.0808,-0.0808,-0.0606,-0.0455,-0.0455,-0.0253,-0.0101,-0.0051,-0.0051,-0.0051,0.0,0.0,0.0,0.0,0.0,0.0,0.0,0.0,0.0,0.0,0.0,0.0,0.0,0.0,0.0,-0.0051,-0.0303,-0.0404,-0.0505,-0.0758,-0.0808,-0.0758,-0.0556,-0.0505,-0.0404,-0.0152,-0.0101,-0.0101,0.0,0.0,-0.0051,0.0,0.0,-0.0051,-0.0051,-0.0051,-0.0051,-0.0101,-0.0253,-0.0354,-0.0152,-0.0253,-0.0404,-0.0657,-0.0758,-0.0606,0.0303,0.1009,0.1865,0.2972,0.3274,0.3877,0.5284,0.5085,0.4935,0.5334,0.4985,0.4483,0.3932,0.3882,0.3682,0.323,0.318,0.318,0.318,0.318,0.318,0.318,0.318,0.318,0.318,0.318,0.318,0.318,0.318,0.318,0.318,0.318,0.318,-0.7389,-0.6512,-0.6064,-0.6396,-0.6586,-0.6742,-0.6852,-0.6511,-0.616,-0.616,-0.562,-0.5366,-0.6146,-0.5713,-0.5094,-0.4759,-0.4151,-0.339,-0.2321,-0.1636,-0.1047,-0.0403,-0.0354,-0.0354,-0.0354,-0.0253,-0.0152,-0.0152,-0.0051,0.0,0.0,0.0,0.0,0.0,0.0,0.0,0.0,0.0,0.0,0.0,0.0,0.0,0.0,0.0,0.0,0.0,0.0,0.0,0.0,-0.0152,-0.0152,-0.0202,-0.0455,-0.0505,-0.0354,-0.0404,-0.0303,-0.0152,-0.0051,0.0,0.0,0.0,0.0,0.0,0.0,0.0,0.0,0.0,0.0,0.0,0.0,-0.0101,-0.0152,-0.0051,-0.0101,-0.0202,-0.0303,-0.0455,-0.0404,0.0253,0.0908,0.1663,0.2571,0.3022,0.3626,0.4933,0.4935,0.4985,0.5536,0.5386,0.5035,0.4485,0.4433,0.4334,0.4133,0.3831,0.3632,0.3632,0.3381,0.318,0.318,0.318,0.318,0.318,0.318,0.318,0.318,0.318,0.318,0.318,0.318,0.318,-0.6375,-0.6006,-0.6034,-0.6295,-0.6502,-0.6599,-0.645,-0.5849,-0.5235,-0.4994,-0.3972,-0.3438,-0.4332,-0.4025,-0.3572,-0.3315,-0.266,-0.1998,-0.1561,-0.0784,-0.0247,0.0,0.0,0.0,0.0,0.0,0.0,0.0,0.0,0.0,0.0,0.0,0.0,0.0,0.0,0.0,0.0,0.0,0.0,0.0,0.0,0.0,0.0,0.0,0.0,0.0,0.0,0.0,0.0,0.0,0.0,0.0,-0.0202,-0.0152,0.0,-0.0202,-0.0152,0.0,0.0,0.0,0.0,0.0,0.0,0.0,0.0,0.0,0.0,0.0,0.0,0.0,0.0,0.0,0.0,0.0,0.0,0.0,0.0,-0.0152,-0.0202,0.0202,0.0606,0.116,0.2068,0.252,0.3173,0.423,0.4634,0.4935,0.5334,0.5636,0.5584,0.5085,0.4985,0.4935,0.4834,0.4435,0.4183,0.4183,0.3831,0.3531,0.343,0.338,0.3331,0.318,0.318,0.318,0.318,0.318,0.318,0.318,0.318,0.3281,-0.6025,-0.5804,-0.585,-0.5976,-0.6271,-0.6239,-0.5217,-0.5077,-0.4834,-0.3911,-0.2726,-0.1924,-0.1969,-0.2685,-0.2929,-0.207,-0.1663,-0.1125,-0.0244,-0.0049,0.0,0.0,0.0,0.0,0.0,0.0,0.0,0.0,0.0,0.0,0.0,0.0,0.0,0.0,0.0,0.0,0.0,0.0,0.0,0.0,0.0,0.0,0.0,0.0,0.0,0.0,0.0,0.0,0.0,0.0,0.0,0.0,0.0,0.0,0.0,0.0,0.0,0.0,0.0,0.0,0.0,0.0,0.0,0.0,0.0,0.0,0.0,0.0,0.0,0.0,0.0,0.0,0.0,0.0,0.0,0.0,0.0,0.0,0.0,0.0,0.0051,0.0404,0.1462,0.1664,0.2066,0.3123,0.413,0.4834,0.4834,0.5734,0.6137,0.5636,0.5536,0.5336,0.4834,0.4784,0.4734,0.4734,0.4734,0.4483,0.3982,0.3934,0.3732,0.323,0.318,0.318,0.318,0.318,0.318,0.318,0.318,0.3482,-0.5785,-0.5658,-0.5686,-0.5778,-0.5561,-0.5252,-0.4809,-0.3794,-0.2888,-0.2526,-0.1477,-0.0659,-0.0659,-0.0933,-0.1034,-0.068,-0.0545,-0.0366,-0.0047,0.0,0.0,0.0,0.0,0.0,0.0,0.0,0.0,0.0,0.0,0.0,0.0,0.0,0.0,0.0,0.0,0.0,0.0,0.0,0.0,0.0,0.0,0.0,0.0,0.0,0.0,0.0,0.0,0.0,0.0,0.0,0.0,0.0,0.0,0.0,0.0,0.0,0.0,0.0,0.0,0.0,0.0,0.0,0.0,0.0,0.0,0.0,0.0,0.0,0.0,0.0,0.0,0.0,0.0,0.0,0.0,0.0,0.0,0.0,0.0,0.0,0.0,0.0101,0.0505,0.0555,0.0958,0.2016,0.2519,0.2972,0.3676,0.473,0.5286,0.5085,0.5687,0.6037,0.5837,0.5534,0.5336,0.5336,0.4985,0.4734,0.4533,0.4535,0.4284,0.3732,0.3732,0.3531,0.318,0.318,0.318,0.318,0.318,0.3481,-0.5586,-0.5552,0.0,-0.5706,-0.5191,-0.4552,-0.4177,-0.2868,-0.1621,-0.1257,-0.0553,0.0,0.0,0.0,0.0,0.0,0.0,0.0,0.0,0.0,0.0,0.0,0.0,0.0,0.0,0.0,0.0,0.0,0.0,0.0,0.0,0.0,0.0,0.0,0.0,0.0,0.0,0.0,0.0,0.0,0.0,0.0,0.0,0.0,0.0,0.0,0.0,0.0,0.0,0.0,0.0,0.0,0.0,0.0,0.0,0.0,0.0,0.0,0.0,0.0,0.0,0.0,0.0,0.0,0.0,0.0,0.0,0.0,0.0,0.0,0.0,0.0,0.0,0.0,0.0,0.0,0.0,0.0,0.0,0.0,0.0,0.0,0.0,0.0,0.0252,0.0958,0.1361,0.1865,0.2569,0.3575,0.428,0.428,0.5233,0.5887,0.5887,0.5887,0.5887,0.5887,0.5536,0.5233,0.5085,0.5085,0.4834,0.4284,0.4284,0.4083,0.3732,0.3531,0.3482,0.3482,0.3632,0.4033,0.0,0.0,0.0,-0.5759,-0.5127,-0.4223,-0.3315,-0.2306,-0.1265,-0.0209,0.0,0.0,0.0,0.0,0.0,0.0,0.0,0.0,0.0,0.0,0.0,0.0,0.0,0.0,0.0,0.0,0.0,0.0,0.0,0.0,0.0,0.0,0.0,0.0,0.0,0.0,0.0,0.0,0.0,0.0,0.0,0.0,0.0,0.0,0.0,0.0,0.0,0.0,0.0,0.0,0.0,0.0,0.0,0.0,0.0,0.0,0.0,0.0,0.0,0.0,0.0,0.0,0.0,0.0,0.0,0.0,0.0,0.0,0.0,0.0,0.0,0.0,0.0,0.0,0.0,0.0,0.0,0.0,0.0,0.0,0.0,0.0,0.0,0.0,0.0,0.0,0.0908,0.1563,0.1563,0.2469,0.3173,0.3173,0.413,0.4784,0.4784,0.5734,0.6387,0.6387,0.6387,0.6187,0.5634,0.5636,0.5386,0.4834,0.4834,0.4834,0.4784,0.4284,0.4033,0.4033,0.4583,0.5085,-0.562,0.0,0.0,0.0,0.0,0.0,-0.2928,-0.1964,-0.101,-0.0159,0.0,0.0,0.0,0.0,0.0,0.0,0.0,0.0,0.0,0.0,0.0,0.0,0.0,0.0,0.0,0.0,0.0,0.0,0.0,0.0,0.0,0.0,0.0,0.0,0.0,0.0,0.0,0.0,0.0,0.0,0.0,0.0,0.0,0.0,0.0,0.0,0.0,0.0,0.0,0.0,0.0,0.0,0.0,0.0,0.0,0.0,0.0,0.0,0.0,0.0,0.0,0.0,0.0,0.0,0.0,0.0,0.0,0.0,0.0,0.0,0.0,0.0,0.0,0.0,0.0,0.0,0.0,0.0,0.0,0.0,0.0,0.0,0.0,0.0,0.0,0.0,0.0252,0.0454,0.0454,0.1361,0.2066,0.2066,0.3022,0.3977,0.4734,0.5085,0.5584,0.6337,0.6387,0.6337,0.6187,0.6187,0.5937,0.5386,0.5386,0.5186,0.4784,0.4634,0.4583,0.4583,0.5135,0.5436,-0.5785,-0.562,0.0,-0.5508,0.0,0.0,-0.2908,-0.1924,-0.0951,-0.0156,0.0,0.0,0.0,0.0,0.0,0.0,0.0,0.0,0.0,0.0,0.0,0.0,0.0,0.0,0.0,0.0,0.0,0.0,0.0,0.0,0.0,0.0,0.0,0.0,0.0,0.0,0.0,0.0,0.0,0.0,0.0,0.0,0.0,0.0,0.0,0.0,0.0,0.0,0.0,0.0,0.0,0.0,0.0,0.0,0.0,0.0,0.0,0.0,0.0,0.0,0.0,0.0,0.0,0.0,0.0,0.0,0.0,0.0,0.0,0.0,0.0,0.0,0.0,0.0,0.0,0.0,0.0,0.0,0.0,0.0,0.0,0.0,0.0,0.0,0.0,0.0,0.0,0.0,0.0,0.0555,0.0908,0.0908,0.1915,0.2771,0.3425,0.428,0.5085,0.5687,0.6137,0.6387,0.6387,0.6387,0.6237,0.5937,0.5937,0.5787,0.5486,0.5233,0.5233,0.5486,0.5787,0.5937,-0.5991,-0.5785,0.0,-0.5757,-0.4939,0.0,-0.3073,-0.2137,-0.1174,-0.0195,0.0,0.0,0.0,0.0,0.0,0.0,0.0,0.0,0.0,0.0,0.0,0.0,0.0,0.0,0.0,0.0,0.0,0.0,0.0,0.0,0.0,0.0,0.0,0.0,0.0,0.0,0.0,0.0,0.0,0.0,0.0,0.0,0.0,0.0,0.0,0.0,0.0,0.0,0.0,0.0,0.0,0.0,0.0,0.0,0.0,0.0,0.0,0.0,0.0,0.0,0.0,0.0,0.0,0.0,0.0,0.0,0.0,0.0,0.0,0.0,0.0,0.0,0.0,0.0,0.0,0.0,0.0,0.0,0.0,0.0,0.0,0.0,0.0,0.0,0.0,0.0,0.0,0.0,0.0,0.0,0.0,0.0,0.0858,0.1462,0.1613,0.3324,0.4533,0.4784,0.5584,0.6134,0.6387,0.6284,0.6287,0.6387,0.6387,0.6387,0.6387,0.5937,0.5937,0.6387,0.6387,0.6387,-0.6187,-0.5881,-0.5591,-0.5622,-0.5352,0.0,-0.3074,-0.2522,-0.1917,-0.0341,0.0,0.0,0.0,0.0,0.0,0.0,0.0,0.0,0.0,0.0,0.0,0.0,0.0,0.0,0.0,0.0,0.0,0.0,0.0,0.0,0.0,0.0,0.0,0.0,0.0,0.0,0.0,0.0,0.0,0.0,0.0,0.0,0.0,0.0,0.0,0.0,0.0,0.0,0.0,0.0,0.0,0.0,0.0,0.0,0.0,0.0,0.0,0.0,0.0,0.0,0.0,0.0,0.0,0.0,0.0,0.0,0.0,0.0,0.0,0.0,0.0,0.0,0.0,0.0,0.0,0.0,0.0,0.0,0.0,0.0,0.0,0.0,0.0,0.0,0.0,0.0,0.0,0.0,0.0,0.0,0.0,0.0,0.0202,0.0656,0.1513,0.1966,0.2972,0.4684,0.4178,0.4578,0.6337,0.5584,0.5536,0.6387,0.6387,0.6387,0.6387,0.6287,0.6287,0.6387,0.6387,0.6387,-0.6332,-0.6115,-0.5899,-0.5854,-0.5696,0.0,0.0,-0.2933,-0.2387,-0.0537,-0.0154,-0.0117,0.0,0.0,0.0,0.0,0.0,0.0,0.0,0.0,0.0,0.0,0.0,0.0,0.0,0.0,0.0,0.0,0.0,0.0,0.0,0.0,0.0,0.0,0.0,0.0,0.0,0.0,0.0,0.0,0.0,0.0,0.0,0.0,0.0,0.0,0.0,0.0,0.0,0.0,0.0,0.0,0.0,0.0,0.0,0.0,0.0,0.0,0.0,0.0,0.0,0.0,0.0,0.0,0.0,0.0,0.0,0.0,0.0,0.0,0.0,0.0,0.0,0.0,0.0,0.0,0.0,0.0,0.0,0.0,0.0,0.0,0.0,0.0,0.0,0.0,0.0,0.0,0.0,0.0,0.0,0.0,0.0,0.0202,0.0757,0.1311,0.2066,0.3123,0.3224,0.3674,0.4778,0.4782,0.5286,0.6387,0.6387,0.6387,0.6387,0.6387,0.6387,0.6387,0.6387,0.6387,-0.6869,-0.6614,-0.6382,-0.6256,-0.6066,-0.5467,0.0,0.0,0.0,-0.097,-0.0429,-0.0234,-0.0078,-0.0039,0.0,0.0,0.0,0.0,0.0,0.0,0.0,0.0,0.0,0.0,0.0,0.0,0.0,0.0,0.0,0.0,0.0,0.0,0.0,0.0,0.0,0.0,0.0,0.0,0.0,0.0,0.0,0.0,0.0,0.0,0.0,0.0,0.0,0.0,0.0,0.0,0.0,0.0,0.0,0.0,0.0,0.0,0.0,0.0,0.0,0.0,0.0,0.0,0.0,0.0,0.0,0.0,0.0,0.0,0.0,0.0,0.0,0.0,0.0,0.0,0.0,0.0,0.0,0.0,0.0,0.0,0.0,0.0,0.0,0.0,0.0,0.0,0.0,0.0,0.0,0.0,0.0,0.0,0.0,0.0,0.0,0.0807,0.1361,0.1563,0.2217,0.2871,0.3475,0.4531,0.5434,0.6087,0.6287,0.6387,0.6387,0.6387,0.6387,0.6387,0.6387,0.6387,-0.8398,-0.7719,-0.7103,-0.671,-0.6422,-0.5942,-0.4862,0.0,-0.3054,-0.1933,0.0,-0.0306,-0.0274,0.0,0.0,0.0,0.0,0.0,0.0,0.0,0.0,0.0,0.0,0.0,0.0,0.0,0.0,0.0,0.0,0.0,0.0,0.0,0.0,0.0,0.0,0.0,0.0,0.0,0.0,0.0,0.0,0.0,0.0,0.0,0.0,0.0,0.0,0.0,0.0,0.0,0.0,0.0,0.0,0.0,0.0,0.0,0.0,0.0,0.0,0.0,0.0,0.0,0.0,0.0,0.0,0.0,0.0,0.0,0.0,0.0,0.0,0.0,0.0,0.0,0.0,0.0,0.0,0.0,0.0,0.0,0.0,0.0,0.0,0.0,0.0,0.0,0.0,0.0,0.0,0.0,0.0,0.0,0.0,0.0,0.0,0.0101,0.0606,0.1563,0.0807,0.1664,0.4481,0.5634,0.5834,0.4985,0.5934,0.6387,0.6387,0.6387,0.6387,0.6387,0.6387,0.6387,-0.9043,-0.8418,-0.785,-0.7296,-0.6902,-0.6399,-0.5485,-0.4885,-0.4076,-0.2543,0.0,0.0,0.0,0.0,0.0,0.0,0.0,0.0,0.0,0.0,0.0,0.0,0.0,0.0,0.0,0.0,0.0,0.0,0.0,0.0,0.0,0.0,0.0,0.0,0.0,0.0,0.0,0.0,0.0,0.0,0.0,0.0,0.0,0.0,0.0,0.0,0.0,0.0,0.0,0.0,0.0,0.0,0.0,0.0,0.0,0.0,0.0,0.0,0.0,0.0,0.0,0.0,0.0,0.0,0.0,0.0,0.0,0.0,0.0,0.0,0.0,0.0,0.0,0.0,0.0,0.0,0.0,0.0,0.0,0.0,0.0,0.0,0.0,0.0,0.0,0.0,0.0,0.0,0.0,0.0,0.0,0.0,0.0,0.0,0.0,0.0,0.0202,0.0656,0.0252,0.116,0.3776,0.4327,0.4931,0.5737,0.6187,0.6387,0.6387,0.6387,0.6387,0.6387,0.6387,0.6387,-1.0035,-0.9312,-0.8599,-0.8176,-0.7621,-0.6968,-0.628,-0.5748,-0.4947,-0.3486,-0.2689,0.0,0.0,0.0,-0.0266,-0.0115,0.0,0.0,0.0,0.0,0.0,0.0,0.0,0.0045,0.009,0.0045,0.0,0.0,0.0,0.0,0.0,0.0,0.0,0.0,0.0,0.0,0.0,0.0,0.0,0.0,0.0,0.0,0.0,0.0,0.0,0.0,0.0,0.0,0.0,0.0,0.0,0.0,0.0,0.0,0.0,0.0,0.0,0.0,0.0,0.0,0.0,0.0,0.0,0.0,0.0,0.0,0.0,0.0,0.0,0.0,0.0,0.0,0.0,0.0,0.0,0.0,0.0,0.0,0.0,0.0,0.0,0.0,0.0,0.0,0.0,0.0,0.0,0.0,0.0,0.0,0.0,0.0,0.0,0.0,0.0,0.0,0.0,0.0,0.0252,0.1009,0.2267,0.2871,0.3925,0.5482,0.5834,0.6087,0.6387,0.6387,0.6237,0.5984,0.6287,0.6387,-1.1846,-1.0622,-0.9334,-0.9475,-0.8642,-0.7728,-0.7488,-0.648,-0.547,-0.5003,-0.3615,-0.2426,-0.2193,-0.1115,-0.0305,0.0,-0.0118,0.0,0.0,0.0,0.0,0.0,0.0,0.0088,0.0358,0.0135,0.0,0.0,0.0,0.0,0.0,0.0,0.0,0.0,0.0,0.0,0.0,0.0,0.0,0.0,0.0,0.0,0.0,0.0,0.0,0.0,0.0,0.0,0.0,0.0,0.0,0.0,0.0,0.0,0.0,0.0,0.0,0.0,0.0,0.0,0.0,0.0,0.0,0.0,0.0,0.0,0.0,0.0,0.0,0.0,0.0,0.0,0.0,0.0,0.0,0.0,0.0,0.0,0.0,0.0,0.0,0.0,0.0,0.0,0.0,0.0,0.0,0.0,0.0,0.0,0.0,0.0,0.0,0.0,0.0,0.0,0.0,0.0,0.0958,0.111,0.0151,0.2116,0.3224,0.3324,0.4331,0.5386,0.6387,0.6387,0.5887,0.4885,0.5934,0.6387,-1.1885,-1.0779,-0.9653,-0.9466,-0.8665,-0.7893,-0.774,-0.7316,-0.6705,-0.5676,-0.4977,-0.4258,-0.3374,-0.2296,0.0,0.0,0.0,-0.0157,0.0,0.0,0.0081,0.0247,0.0128,0.0044,0.0132,0.0045,0.0,0.0,0.0,0.0,0.0,0.0,0.0,0.0,0.0,0.0,0.0,0.0,0.0,0.0,0.0,0.0,0.0,0.0,0.0,0.0,0.0,0.0,0.0,0.0,0.0,0.0,0.0,0.0,0.0,0.0,0.0,0.0,0.0,0.0,0.0,0.0,0.0,0.0,0.0,0.0,0.0,0.0,0.0,0.0,0.0,0.0,0.0,0.0,0.0,0.0,0.0,0.0,0.0,0.0,0.0,0.0,0.0,0.0,0.0,0.0,0.0,0.0,0.0,0.0,0.0,0.0,0.0,0.0,0.0,0.0,0.0,0.0,0.0353,0.0707,0.1059,0.1765,0.2469,0.3173,0.423,0.4985,0.5334,0.6034,0.5837,0.4834,0.5884,0.6037,-1.2543,-1.1447,-1.0323,-1.0219,-0.9311,-0.8385,-0.8154,-0.791,-0.7494,-0.6624,-0.6054,-0.5354,-0.4163,-0.3046,-0.2121,0.0,0.0,0.0,0.0,0.0,0.0079,0.0241,0.0125,0.0043,0.013,0.0044,0.0,0.0,0.0,0.0,0.0,0.0,0.0,0.0,0.0,0.0,0.0,0.0,0.0,0.0,0.0,0.0,0.0,0.0,0.0,0.0,0.0,0.0,0.0,0.0,0.0,0.0,0.0,0.0,0.0,0.0,0.0,0.0,0.0,0.0,0.0,0.0,0.0,0.0,0.0,0.0,0.0,0.0,0.0,0.0,0.0,0.0,0.0,0.0,0.0,0.0,0.0,0.0,0.0,0.0,0.0,0.0,0.0,0.0,0.0,0.0,0.0,0.0,0.0,0.0,0.0,0.0,0.0,0.0,0.0,0.0,0.0,0.0,0.0,0.0303,0.1009,0.1009,0.1513,0.262,0.3324,0.3827,0.423,0.5284,0.5284,0.428,0.5334,0.5486]},{"header":{"parameterUnit":"m.s-1","parameterCategory":1,"la1":30.6,"la2":29.2853,"lo1":-89.7004,"lo2":-87.6739,"dy":0.0162,"dx":0.0183,"nx":112,"ny":82,"refTime":"2024-06-06T18:00:00:Z","depth":0,"parameterNumber":3,"parameterNumberName":"V-component_of_WINDS"},"data":[0.0,0.0,0.0,0.0,0.0,0.0,0.0,0.0,0.0,0.0,0.0,0.0,0.0,0.0,0.0,0.0,0.0,0.0,0.0,0.0,0.0,0.0,0.0,0.0,0.0,0.0,0.0,0.0,0.0,0.0,0.0,0.0,0.0,0.0,0.0,0.0,0.0,0.0,0.0,0.0,0.0,0.0,0.0,0.0,0.0,0.0,0.0,0.0,0.0,0.0,0.0,0.0,0.0,0.0,0.0,0.0,0.0,0.0,0.0,0.0,0.0,0.0,0.0,0.0,0.0,0.0,0.0,0.0,0.0,0.0,0.0,0.0,0.0,0.0,0.0,0.0,0.0,0.0,0.0,0.0,0.0,0.0,0.0,0.0,0.0,0.0,0.0,0.0,0.0,0.0,2.8461,2.8024,2.7957,2.7986,2.8088,2.7323,2.6296,2.5038,0.0,0.0,0.0,0.0,0.0,0.0,0.0,0.0,0.0,0.0,0.0,0.0,0.0,0.0,0.0,0.0,0.0,0.0,0.0,0.0,0.0,0.0,0.0,0.0,0.0,0.0,0.0,0.0,0.0,0.0,0.0,0.0,0.0,0.0,0.0,0.0,0.0,0.0,0.0,0.0,0.0,0.0,0.0,0.0,0.0,0.0,0.0,0.0,0.0,0.0,0.0,0.0,0.0,0.0,0.0,0.0,0.0,0.0,0.0,0.0,0.0,0.0,0.0,0.0,0.0,0.0,0.0,0.0,0.0,0.0,0.0,0.0,0.0,0.0,0.0,0.0,0.0,0.0,0.0,0.0,0.0,0.0,0.0,0.0,0.0,0.0,0.0,0.0,0.0,0.0,0.0,0.0,0.0,0.0,0.0,0.0,0.0,0.0,0.0,0.0,0.0,0.0,0.0,0.0,2.8116,2.794,2.8299,2.843,2.8129,2.8205,2.7647,2.6153,0.0,0.0,0.0,0.0,0.0,0.0,0.0,0.0,0.0,0.0,0.0,0.0,0.0,0.0,0.0,0.0,0.0,0.0,0.0,0.0,0.0,0.0,0.0,0.0,0.0,0.0,0.0,0.0,0.0,0.0,0.0,0.0,0.0,0.0,0.0,0.0,0.0,0.0,0.0,0.0,0.0,0.0,0.0,0.0,0.0,0.0,0.0,0.0,0.0,0.0,0.0,0.0,0.0,0.0,0.0,0.0,0.0,0.0,0.0,0.0,0.0,0.0,0.0,0.0,0.0,0.0,0.0,0.0,0.0,0.0,0.0,0.0,0.0,0.0,0.0,0.0,0.0,0.0,0.0,0.0,0.0,0.0,0.0,0.0,0.0,0.0,0.0,0.0,0.0,0.0,0.0,0.0,0.0,0.0,0.0,0.0,0.0,0.0,0.0,0.0,0.0,0.0,0.0,2.8303,2.8417,2.8378,2.8543,2.85,2.8129,2.8013,2.7279,2.5749,2.4514,0.0,0.0,0.0,0.0,0.0,0.0,0.0,0.0,0.0,0.0,0.0,0.0,0.0,0.0,0.0,0.0,0.0,0.0,0.0,0.0,0.0,0.0,0.0,0.0,0.0,0.0,0.0,0.0,0.0,0.0,0.0,0.0,0.0,0.0,0.0,0.0,0.0,0.0,0.0,0.0,0.0,0.0,0.0,0.0,0.0,0.0,0.0,0.0,0.0,0.0,0.0,0.0,0.0,0.0,0.0,0.0,0.0,0.0,0.0,0.0,0.0,0.0,0.0,0.0,0.0,0.0,0.0,0.0,0.0,0.0,0.0,0.0,0.0,0.0,0.0,0.0,0.0,0.0,0.0,0.0,0.0,0.0,0.0,0.0,0.0,0.0,0.0,0.0,0.0,0.0,0.0,0.0,0.0,0.0,0.0,0.0,0.0,0.0,0.0,0.0,0.0,0.0,2.8893,2.8755,2.8785,2.8687,2.8518,2.8242,2.789,2.6964,2.53,2.4627,0.0,0.0,0.0,0.0,0.0,0.0,0.0,0.0,0.0,0.0,0.0,0.0,0.0,0.0,0.0,0.0,0.0,0.0,0.0,0.0,0.0,0.0,0.0,0.0,0.0,0.0,0.0,0.0,0.0,0.0,0.0,0.0,0.0,0.0,0.0,0.0,0.0,0.0,0.0,0.0,0.0,0.0,0.0,0.0,0.0,0.0,0.0,0.0,0.0,0.0,0.0,0.0,0.0,0.0,0.0,0.0,0.0,0.0,0.0,0.0,0.0,0.0,0.0,0.0,0.0,0.0,0.0,0.0,0.0,0.0,0.0,0.0,0.0,0.0,0.0,0.0,0.0,0.0,0.0,0.0,0.0,0.0,0.0,0.0,0.0,0.0,0.0,0.0,0.0,0.0,0.0,0.0,0.0,0.0,0.0,0.0,0.0,0.0,0.0,0.0,0.0,0.0,2.894,2.887,2.8798,2.8749,2.8657,2.8574,2.8533,2.7646,2.561,2.5252,0.0,0.0,0.0,0.0,0.0,0.0,0.0,0.0,0.0,0.0,0.0,0.0,0.0,0.0,0.0,0.0,0.0,0.0,0.0,0.0,0.0,0.0,0.0,0.0,0.0,0.0,0.0,0.0,0.0,0.0,0.0,0.0,0.0,0.0,0.0,0.0,0.0,0.0,0.0,0.0,0.0,0.0,0.0,0.0,0.0,0.0,0.0,0.0,0.0,0.0,0.0,0.0,0.0,0.0,0.0,0.0,0.0,0.0,0.0,0.0,0.0,0.0,0.0,0.0,0.0,0.0,0.0,0.0,0.0,0.0,0.0,0.0,0.0,0.0,0.0,0.0,0.0,0.0,0.0,0.0,0.0,0.0,0.0,0.0,0.0,0.0,0.0,0.0,0.0,0.0,0.0,0.0,0.0,0.0,0.0,0.0,0.0,0.0,0.0,0.0,0.0,0.0,2.894,2.8881,2.8798,2.8749,2.8669,2.86,2.86,2.7787,2.587,0.0,0.0,0.0,0.0,0.0,0.0,0.0,0.0,0.0,0.0,0.0,0.0,0.0,0.0,0.0,0.0,0.0,0.0,0.0,0.0,0.0,0.0,0.0,0.0,0.0,0.0,0.0,0.0,0.0,0.0,0.0,0.0,0.0,0.0,0.0,0.0,0.0,0.0,0.0,0.0,0.0,0.0,0.0,0.0,0.0,0.0,0.0,0.0,0.0,0.0,0.0,0.0,0.0,0.0,0.0,0.0,0.0,0.0,0.0,0.0,0.0,0.0,0.0,0.0,0.0,0.0,0.0,0.0,0.0,0.0,0.0,0.0,0.0,0.0,0.0,0.0,0.0,0.0,0.0,0.0,0.0,0.0,0.0,0.0,0.0,0.0,0.0,0.0,0.0,0.0,0.0,0.0,0.0,0.0,0.0,0.0,0.0,0.0,0.0,0.0,0.0,0.0,2.8507,2.8845,2.8917,2.881,2.8761,2.87,2.86,2.86,2.7843,2.6006,0.0,0.0,0.0,0.0,0.0,0.0,0.0,0.0,0.0,0.0,0.0,0.0,0.0,0.0,0.0,0.0,0.0,0.0,0.0,0.0,0.0,0.0,0.0,0.0,0.0,0.0,0.0,0.0,0.0,0.0,0.0,0.0,0.0,0.0,0.0,0.0,0.0,0.0,0.0,0.0,0.0,0.0,0.0,0.0,0.0,0.0,0.0,0.0,0.0,0.0,0.0,0.0,0.0,0.0,0.0,0.0,0.0,0.0,0.0,0.0,0.0,0.0,0.0,0.0,0.0,0.0,0.0,0.0,0.0,0.0,0.0,0.0,0.0,0.0,0.0,0.0,0.0,0.0,0.0,0.0,0.0,0.0,0.0,0.0,0.0,0.0,0.0,0.0,0.0,0.0,0.0,0.0,0.0,0.0,0.0,0.0,0.0,0.0,0.0,0.0,0.0,0.0,2.7886,2.8632,2.9021,2.8822,2.8798,2.8749,2.8612,2.86,2.7843,0.0,0.0,0.0,0.0,0.0,0.0,0.0,0.0,0.0,0.0,0.0,0.0,0.0,0.0,0.0,0.0,0.0,0.0,0.0,0.0,0.0,0.0,0.0,0.0,0.0,0.0,0.0,0.0,0.0,0.0,0.0,0.0,0.0,0.0,0.0,0.0,0.0,0.0,0.0,0.0,0.0,0.0,0.0,0.0,0.0,0.0,0.0,0.0,0.0,0.0,0.0,0.0,0.0,0.0,0.0,0.0,0.0,0.0,0.0,0.0,0.0,0.0,0.0,0.0,0.0,0.0,0.0,0.0,0.0,0.0,0.0,0.0,0.0,0.0,0.0,0.0,0.0,0.0,0.0,0.0,0.0,0.0,0.0,0.0,0.0,0.0,0.0,0.0,0.0,0.0,0.0,0.0,0.0,0.0,0.0,0.0,0.0,0.0,0.0,0.0,0.0,0.0,0.0,2.7906,2.8693,2.9089,2.8893,2.887,2.8822,2.8669,2.8675,2.7912,2.6147,0.0,0.0,0.0,0.0,0.0,0.0,0.0,0.0,0.0,0.0,0.0,0.0,0.0,0.0,0.0,0.0,0.0,0.0,0.0,0.0,0.0,0.0,0.0,0.0,0.0,0.0,0.0,0.0,0.0,0.0,0.0,0.0,0.0,0.0,0.0,0.0,0.0,0.0,0.0,0.0,0.0,0.0,0.0,0.0,0.0,0.0,0.0,0.0,0.0,0.0,0.0,0.0,0.0,0.0,0.0,0.0,0.0,0.0,0.0,0.0,0.0,0.0,0.0,0.0,0.0,0.0,0.0,0.0,0.0,0.0,0.0,0.0,0.0,0.0,0.0,0.0,0.0,0.0,0.0,0.0,0.0,0.0,0.0,0.0,0.0,0.0,0.0,0.0,0.0,0.0,0.0,0.0,0.0,0.0,0.0,0.0,0.0,0.0,0.0,0.0,0.0,0.0,2.7481,2.8492,2.9123,2.8929,2.8905,2.887,2.8749,2.8749,2.7997,2.626,0.0,0.0,0.0,0.0,0.0,0.0,0.0,0.0,0.0,0.0,0.0,0.0,0.0,0.0,0.0,0.0,0.0,0.0,0.0,0.0,0.0,0.0,0.0,0.0,0.0,0.0,0.0,0.0,0.0,0.0,0.0,0.0,0.0,0.0,0.0,0.0,0.0,0.0,0.0,0.0,0.0,0.0,0.0,0.0,0.0,0.0,0.0,0.0,0.0,0.0,0.0,0.0,0.0,0.0,0.0,0.0,0.0,0.0,0.0,0.0,0.0,0.0,0.0,0.0,0.0,0.0,0.0,0.0,0.0,0.0,0.0,0.0,0.0,0.0,0.0,0.0,0.0,0.0,0.0,0.0,0.0,0.0,0.0,0.0,0.0,0.0,0.0,0.0,0.0,0.0,0.0,0.0,0.0,0.0,0.0,0.0,0.0,0.0,0.0,0.0,0.0,0.0,2.6851,2.824,2.916,2.8957,2.8934,2.8887,2.881,2.881,2.8069,2.6322,0.0,0.0,0.0,0.0,0.0,0.0,0.0,0.0,0.0,0.0,0.0,0.0,0.0,0.0,0.0,0.0,0.0,0.0,0.0,0.0,0.0,0.0,0.0,0.0,0.0,0.0,0.0,0.0,0.0,0.0,0.0,0.0,0.0,0.0,0.0,0.0,0.0,0.0,0.0,0.0,0.0,0.0,0.0,0.0,0.0,0.0,0.0,0.0,0.0,0.0,0.0,0.0,0.0,0.0,0.0,0.0,0.0,0.0,0.0,0.0,2.7112,2.7331,0.0,0.0,0.0,0.0,0.0,0.0,0.0,0.0,0.0,0.0,0.0,0.0,0.0,0.0,0.0,0.0,0.0,0.0,0.0,0.0,0.0,0.0,0.0,0.0,0.0,0.0,0.0,0.0,0.0,0.0,0.0,0.0,0.0,0.0,0.0,0.0,0.0,0.0,0.0,0.0,2.7138,2.8565,2.9514,2.9312,2.9249,2.913,2.8905,2.8881,2.8164,2.6453,2.6243,0.0,0.0,0.0,0.0,0.0,0.0,0.0,0.0,0.0,0.0,0.0,0.0,0.0,0.0,0.0,0.0,0.0,0.0,0.0,0.0,0.0,0.0,0.0,0.0,0.0,0.0,0.0,0.0,0.0,0.0,0.0,0.0,0.0,0.0,0.0,0.0,0.0,0.0,0.0,0.0,0.0,0.0,0.0,0.0,0.0,0.0,0.0,0.0,0.0,0.0,0.0,0.0,0.0,0.0,0.0,0.0,0.0,0.0,0.0,2.8012,2.7749,0.0,0.0,0.0,0.0,0.0,0.0,0.0,0.0,0.0,0.0,0.0,0.0,0.0,0.0,0.0,0.0,0.0,0.0,0.0,0.0,0.0,0.0,0.0,0.0,0.0,0.0,0.0,0.0,0.0,0.0,0.0,0.0,0.0,0.0,0.0,0.0,0.0,0.0,0.0,0.0,2.8311,2.9185,2.9838,3.0086,2.9668,2.928,2.9108,2.9003,2.8251,2.66,2.6396,0.0,0.0,0.0,0.0,0.0,0.0,0.0,0.0,0.0,0.0,0.0,0.0,0.0,0.0,0.0,0.0,0.0,0.0,0.0,0.0,0.0,0.0,0.0,0.0,0.0,0.0,0.0,0.0,0.0,0.0,0.0,0.0,0.0,0.0,0.0,0.0,0.0,0.0,0.0,0.0,0.0,0.0,0.0,0.0,0.0,0.0,0.0,0.0,0.0,0.0,0.0,0.0,0.0,3.0025,3.0294,3.0643,3.0754,3.0907,3.0987,2.8758,2.8216,2.8806,2.7852,0.0,0.0,0.0,0.0,0.0,0.0,0.0,0.0,0.0,0.0,0.0,0.0,0.0,0.0,0.0,0.0,0.0,0.0,0.0,0.0,0.0,0.0,2.9818,2.9472,3.0339,3.0667,2.8492,0.0,0.0,0.0,0.0,0.0,0.0,0.0,0.0,0.0,0.0,0.0,2.9574,2.9972,3.0397,3.1098,3.0274,2.9619,2.9537,2.9208,2.8363,2.6906,2.6625,2.5871,0.0,0.0,0.0,0.0,0.0,0.0,0.0,0.0,0.0,0.0,0.0,0.0,0.0,0.0,0.0,0.0,0.0,0.0,0.0,0.0,0.0,0.0,0.0,0.0,0.0,0.0,0.0,0.0,0.0,0.0,0.0,0.0,2.7513,2.8415,0.0,0.0,0.0,0.0,0.0,0.0,0.0,0.0,0.0,0.0,0.0,0.0,0.0,2.9332,2.9143,3.011,3.0494,3.0242,3.1,3.13,3.1193,3.0925,3.1051,3.15,3.1162,0.0,3.0671,2.9674,0.0,0.0,0.0,0.0,0.0,0.0,0.0,0.0,0.0,0.0,0.0,0.0,0.0,0.0,0.0,0.0,0.0,0.0,0.0,0.0,0.0,0.0,3.1314,3.1933,3.2232,3.225,3.1732,2.9886,2.8116,2.7393,2.7369,2.7421,0.0,0.0,0.0,0.0,0.0,0.0,2.9925,3.0814,3.1599,3.2219,3.1342,3.0621,3.0443,2.9551,2.8601,2.7695,2.6969,2.618,2.5273,2.4557,0.0,0.0,0.0,0.0,0.0,0.0,0.0,0.0,0.0,0.0,0.0,0.0,0.0,0.0,0.0,0.0,0.0,0.0,0.0,0.0,0.0,0.0,0.0,0.0,0.0,0.0,0.0,0.0,0.0,2.771,2.8556,2.8815,2.8858,2.8846,0.0,0.0,0.0,0.0,0.0,0.0,0.0,0.0,0.0,3.009,3.099,3.164,3.1982,3.2484,3.2941,3.3345,3.372,3.4069,3.4325,3.4189,3.4308,3.4621,3.4605,3.4239,3.3543,3.1659,3.0736,3.0477,0.0,0.0,0.0,0.0,3.0124,3.0124,3.0037,3.0064,3.0068,2.9705,0.0,0.0,0.0,0.0,0.0,0.0,0.0,3.1232,3.1798,3.2344,3.2855,3.329,3.3707,3.3857,3.3275,3.2173,3.1054,3.018,2.9741,2.935,2.8801,2.8377,0.0,0.0,0.0,3.0259,3.2119,3.2333,3.2609,3.3317,3.2022,3.1037,3.0838,2.9841,2.8855,2.798,2.7582,2.6809,2.5509,2.5122,2.4707,0.0,0.0,0.0,0.0,0.0,0.0,0.0,0.0,0.0,0.0,0.0,0.0,0.0,0.0,0.0,0.0,0.0,0.0,0.0,0.0,0.0,0.0,0.0,0.0,0.0,0.0,0.0,0.0,2.8724,2.9294,2.8959,2.933,2.9502,0.0,0.0,0.0,0.0,0.0,0.0,3.1415,3.2282,3.261,3.2255,3.31,3.3797,3.4393,3.4474,3.4905,3.5704,3.5872,3.6213,3.6706,3.6746,3.6911,3.7103,3.7051,3.6712,3.6018,3.3556,3.2192,3.1697,3.1677,3.1451,3.1185,3.1457,3.1552,3.1587,3.1848,3.1984,3.197,3.1637,3.112,3.0462,2.9597,0.0,0.0,0.0,0.0,3.2409,3.2839,3.341,3.3922,3.4227,3.4721,3.4937,3.4272,3.4024,3.3601,3.2448,3.1798,3.1228,3.0557,3.0065,0.0,3.0684,3.0867,3.1693,3.3846,3.3596,3.3532,3.4344,3.2886,3.1724,3.1362,3.0291,2.9277,2.835,2.8099,2.7434,2.6178,2.5734,2.5245,2.4672,0.0,0.0,0.0,0.0,0.0,0.0,0.0,0.0,0.0,0.0,0.0,0.0,0.0,0.0,0.0,0.0,0.0,0.0,0.0,0.0,0.0,0.0,0.0,0.0,0.0,0.0,0.0,0.0,0.0,2.9097,3.0356,0.0,0.0,0.0,0.0,3.2215,3.2288,3.2552,3.315,3.4233,3.4578,3.3997,3.5006,3.5421,3.5146,3.5475,3.5652,3.5704,3.6344,3.6681,3.6719,3.6904,3.7125,3.7382,3.7382,3.7471,3.7421,3.5197,3.3766,3.294,3.2187,3.1869,3.1859,3.1948,3.1969,3.1979,3.2068,3.2223,3.252,3.3306,3.3477,3.3232,3.2362,3.2081,0.0,0.0,3.2393,3.2787,3.3696,3.3968,3.4178,3.4961,3.5163,3.5176,3.5053,3.5073,3.4606,3.291,3.2438,3.2353,3.2443,0.0,3.2602,3.2659,3.2788,3.3185,3.4077,3.4167,3.4436,3.5259,3.4164,3.3081,3.2307,3.1086,3.0006,2.92,2.8413,2.7954,2.7884,2.6421,2.5616,2.5624,2.4881,0.0,0.0,0.0,0.0,0.0,0.0,0.0,0.0,0.0,0.0,0.0,0.0,0.0,0.0,0.0,0.0,0.0,0.0,0.0,0.0,0.0,0.0,0.0,0.0,0.0,0.0,0.0,0.0,3.0646,3.1223,0.0,3.182,3.2121,3.282,3.4109,3.4206,3.45,3.5192,3.6102,3.6512,3.6276,3.7153,3.7557,3.7446,3.7734,3.7897,3.7878,3.8311,3.8595,3.8761,3.8833,3.9003,3.9281,3.9281,3.8985,3.8486,3.7681,3.6735,3.5797,3.5626,3.5433,3.526,3.5413,3.5482,3.5492,3.559,3.5685,3.5626,3.4899,3.5041,3.5214,3.3813,3.413,3.4969,3.4996,3.542,3.5844,3.566,3.5611,3.5534,3.5267,3.5266,3.532,3.5308,3.5304,3.5165,3.4629,3.4006,3.3568,3.3561,3.3274,3.3228,3.3698,3.3805,3.4137,3.4981,3.5104,3.5207,3.5502,3.4587,3.3597,3.2703,3.1574,3.0528,2.9589,2.9124,2.8682,2.822,2.7102,2.6274,2.576,2.549,2.4818,0.0,0.0,0.0,0.0,0.0,0.0,0.0,0.0,0.0,0.0,0.0,0.0,0.0,0.0,0.0,0.0,0.0,0.0,0.0,0.0,0.0,0.0,0.0,0.0,0.0,3.1384,3.2022,3.2221,3.3049,3.3676,3.3862,3.416,3.4882,3.6167,3.6207,3.6636,3.777,3.8257,3.8668,3.9031,3.9569,3.9851,3.9851,4.0002,4.008,4.012,4.0096,4.0189,4.0365,4.0133,4.0138,4.0291,4.0291,3.9957,3.9451,3.9451,3.8995,3.8278,3.7804,3.75,3.7323,3.7442,3.75,3.7509,3.7604,3.7632,3.7469,3.6396,3.6432,3.67,3.5592,3.6012,3.6901,3.6901,3.7292,3.7578,3.7043,3.6901,3.6757,3.6184,3.6147,3.6238,3.6238,3.6304,3.6362,3.6464,3.5471,3.4652,3.4633,3.4301,3.4201,3.4673,3.4751,3.4957,3.5526,3.5598,3.5598,3.5598,3.4976,3.4095,3.2901,3.2061,3.1059,2.9789,2.9561,2.925,2.8736,2.7606,2.6897,2.668,2.6408,2.5743,2.4658,0.0,0.0,0.0,0.0,0.0,0.0,0.0,0.0,0.0,0.0,0.0,0.0,0.0,0.0,0.0,0.0,0.0,0.0,0.0,0.0,0.0,0.0,0.0,3.1136,3.3252,3.451,3.3715,3.5797,3.6981,3.6164,3.6806,3.7616,3.8425,3.8276,3.894,4.0734,4.0665,4.1027,4.2065,4.2096,4.2096,4.2096,4.2052,4.2052,4.2109,4.1522,4.1292,4.1336,4.0683,4.0364,4.0345,4.0329,4.0329,4.031,4.031,4.031,4.0138,3.8438,3.7769,3.7769,3.7769,3.7769,3.7769,3.7769,3.7769,3.7769,3.775,3.775,3.7769,3.7759,3.7759,3.7778,3.7778,3.7778,3.7778,3.7759,3.7759,3.774,3.7729,3.7811,3.7913,3.7913,3.8067,3.8216,3.8216,3.6789,3.5626,3.5766,3.5786,3.576,3.569,3.5662,0.0,3.5648,3.5623,3.5604,3.5598,3.5435,3.4633,3.2997,3.2576,3.1646,2.9882,2.9716,2.9645,2.9512,2.7923,2.7475,2.8371,2.761,2.7187,2.7144,0.0,0.0,0.0,0.0,0.0,0.0,0.0,0.0,0.0,0.0,0.0,0.0,0.0,0.0,0.0,0.0,0.0,0.0,0.0,0.0,0.0,3.2816,3.4082,3.3864,3.4434,3.524,3.6216,3.6947,3.7505,3.7845,3.866,3.9472,4.0231,4.0797,4.129,4.1724,4.1694,4.1807,4.2083,4.2102,4.2102,4.2102,4.2268,4.2367,4.2389,4.241,4.2441,4.2451,4.2267,4.1874,4.1318,4.1319,4.0966,4.0372,4.0372,4.0335,4.0242,3.9765,3.9603,3.9603,3.9603,3.9603,3.9603,3.9603,3.9603,3.9489,3.8858,3.9069,3.947,3.8884,3.9122,3.9609,3.9635,3.9627,3.9447,3.8863,3.8761,3.8634,3.807,3.8054,3.8191,3.8191,3.8273,3.8341,3.8345,3.7933,3.7594,3.7584,3.7599,3.7584,3.7554,3.7021,3.6628,3.6623,3.606,3.5646,3.5604,3.5552,3.5071,3.3978,3.316,3.2197,3.1001,3.0189,2.9725,2.9655,2.8605,2.8137,2.8398,2.7609,2.7503,0.0,0.0,0.0,0.0,0.0,0.0,0.0,0.0,0.0,0.0,0.0,0.0,0.0,0.0,0.0,0.0,0.0,0.0,0.0,0.0,0.0,0.0,3.434,3.5741,3.666,3.6796,3.7143,3.8074,3.8838,3.946,3.991,4.0721,4.1418,4.1855,4.224,4.2626,4.3001,4.2935,4.3087,4.3515,4.3526,4.3526,4.3526,4.366,4.374,4.3741,4.356,4.349,4.3469,4.3106,4.2694,4.2215,4.1862,4.1412,4.0924,4.0541,4.037,4.0344,0.0,0.0,0.0,0.0,4.03,4.03,4.0337,4.0346,4.027,3.9753,3.9925,4.026,3.9789,3.997,4.0353,4.0379,4.037,4.0236,3.9802,3.9731,3.9637,3.9232,3.9251,3.9401,3.9401,3.9431,3.9494,3.9489,3.9468,0.0,3.9398,3.8787,3.8302,3.8292,3.786,3.7414,3.7055,3.6566,3.6091,3.5683,3.5648,3.5289,3.4462,3.3812,0.0,0.0,0.0,3.0124,2.9264,2.9096,0.0,0.0,0.0,0.0,0.0,0.0,0.0,0.0,2.838,2.8647,0.0,0.0,0.0,0.0,0.0,0.0,0.0,0.0,0.0,0.0,0.0,0.0,0.0,0.0,0.0,0.0,3.5727,3.6826,3.9084,3.9508,3.9527,3.9459,4.0904,4.1871,4.1813,4.267,4.3247,4.3247,4.3119,4.3436,4.4409,4.4279,0.0,0.0,0.0,4.5513,4.5513,4.5448,4.5448,4.5513,4.4793,4.4455,4.4412,4.3647,4.3246,4.3092,4.233,4.1948,4.1794,4.0922,4.0501,4.0388,4.0334,4.0308,4.031,4.0317,4.0316,4.0316,4.0379,0.0,0.0,4.0407,4.0407,4.0407,4.0415,4.0432,4.043,4.043,4.0447,4.0457,4.053,4.0532,4.0591,4.069,4.0815,4.0925,4.0925,4.0976,4.1007,4.1003,4.0952,4.0902,4.0902,3.9616,3.8578,3.8593,3.8529,3.8175,3.7399,3.722,3.6799,3.5941,3.5844,0.0,3.47,3.4507,3.3696,3.1994,3.1712,3.0827,2.9104,2.9775,2.9813,2.9039,2.9794,3.0189,3.0197,3.0197,3.0265,3.0358,2.8636,2.9099,0.0,0.0,0.0,0.0,0.0,0.0,0.0,0.0,0.0,0.0,0.0,0.0,0.0,0.0,0.0,3.5306,3.727,3.8922,3.9405,4.0082,4.0482,4.0356,4.1275,4.1892,4.1885,4.3254,4.4144,4.4144,4.4692,4.5127,4.5346,4.5309,4.5377,4.5577,4.5577,4.5577,4.5577,4.5568,4.5568,4.5577,4.5423,0.0,4.5344,4.5163,4.4712,4.4038,4.3876,4.3425,4.2753,4.1879,4.1113,4.0466,4.0415,4.0389,4.0381,4.037,4.0379,4.0379,4.0407,4.0407,4.0407,4.0407,4.0407,4.0415,4.0458,4.0523,0.0,4.0622,4.0674,4.0726,4.0749,4.0791,4.0834,4.0871,4.0961,4.1056,4.1056,4.1075,4.105,4.1007,4.0997,4.097,4.097,4.0664,4.0393,4.0408,3.9845,3.9374,3.9199,3.8525,3.7715,3.6838,3.676,3.6401,3.5543,3.4861,3.4239,3.3647,3.2741,3.2058,3.1676,3.1827,3.1846,3.1676,3.1827,3.1975,3.208,3.208,3.2129,3.2161,3.1055,3.0853,0.0,0.0,0.0,0.0,0.0,0.0,0.0,0.0,0.0,0.0,0.0,3.2711,3.3202,0.0,3.6356,3.7302,3.8607,3.9655,4.0081,4.0874,4.1371,4.1317,4.2044,4.2712,4.3161,4.4315,4.5059,4.5059,4.542,4.5643,4.5643,4.5643,4.5643,4.5643,4.5643,4.5643,4.5643,4.5643,4.5643,4.5643,4.5643,4.5643,4.5643,4.5657,4.5417,4.4966,4.4506,4.4066,4.3605,4.2335,4.128,4.0503,4.0546,4.0492,4.0388,4.0432,4.0449,4.0449,4.0455,4.0444,4.0444,4.0444,4.05,4.0549,4.0591,4.0643,4.0707,4.0743,4.0761,4.0825,4.087,4.0918,4.0967,4.1,4.1042,4.1094,4.1094,4.1103,4.1089,4.1056,4.1022,4.099,4.099,4.0963,4.0949,4.0948,4.0613,4.0196,3.9761,3.9286,3.8675,3.7787,3.769,3.7356,3.6464,3.5209,3.4385,3.4212,3.3224,3.2622,3.2551,3.2542,3.2542,3.2542,3.2542,3.2586,3.2645,3.2645,3.2661,3.2699,3.2735,3.2735,0.0,0.0,0.0,0.0,0.0,0.0,0.0,3.1668,3.2,3.28,3.3772,3.4724,3.5547,3.6543,3.7739,3.9256,3.9636,4.0042,4.0913,4.1583,4.2131,4.2472,4.3083,4.3745,4.4457,4.526,4.5715,4.5715,4.5708,4.5708,4.5708,4.5708,4.5708,4.5708,4.5708,4.5708,4.5708,4.5708,4.5708,4.5708,4.5708,4.5708,4.5708,4.5706,4.5709,4.5662,4.4914,4.4405,4.3981,4.2653,4.1499,4.0575,4.0674,4.061,4.0485,4.0546,4.0554,4.0561,4.0552,4.0566,4.0566,4.0566,4.063,4.0717,4.0717,4.0775,4.0837,4.0837,4.085,4.0879,4.0997,4.1011,4.1022,4.1081,4.1109,4.1109,4.1109,4.1095,4.11,4.11,4.1067,4.1011,4.1011,4.1011,4.1016,4.0995,4.1007,4.0758,4.0032,3.9954,3.9628,3.8749,3.8661,3.8252,3.7195,3.5732,3.4801,3.4585,3.3821,3.3343,3.3234,3.3211,3.3196,3.3203,3.3196,3.3196,3.3211,3.3222,3.3218,3.3245,3.409,3.4327,2.8245,2.9257,3.0183,3.1181,3.1322,3.1526,0.0,3.3395,3.3936,3.416,3.5452,3.6598,3.6706,3.809,3.9256,3.9462,4.0158,4.0951,4.1757,4.1932,4.257,4.413,4.4394,4.4471,4.4587,4.5312,4.5781,4.5781,4.5723,4.5708,4.5708,4.5708,4.5708,4.5708,4.5708,4.5708,4.5708,4.5708,4.5708,4.5708,4.5708,4.5708,4.5708,4.57,4.5695,4.5709,4.5657,4.4747,4.3316,4.3258,4.2248,4.0776,4.0788,4.0788,4.0766,4.0767,4.0771,4.0771,4.0771,4.0776,4.0776,4.0776,4.0781,4.0791,4.0791,4.0878,4.0981,4.0981,4.1022,4.1078,4.1081,4.1083,4.1085,4.1108,4.1109,4.1109,4.1109,4.1108,4.1106,4.1106,4.1085,4.1083,4.1083,4.1083,4.107,4.1016,4.1007,4.0954,4.0875,4.0843,4.0519,3.9649,3.9604,3.8949,3.724,3.6813,3.6308,3.56,3.5278,3.511,3.5103,3.4979,3.4958,3.5017,3.4958,3.4958,3.5017,3.5062,3.5091,3.5098,3.5331,3.4991,2.9427,3.0069,3.0519,3.152,3.1737,3.208,3.3568,3.4525,3.5226,3.5809,3.7251,3.8421,3.8421,3.9416,4.0255,4.0255,4.0971,4.1622,4.1951,4.2879,4.3788,4.4516,4.5007,4.5297,4.5297,4.5592,4.5798,4.5798,4.5764,4.5757,4.5757,4.5757,4.5757,4.5757,4.5757,4.5757,4.5757,4.5757,4.5757,4.5757,4.5757,4.5807,4.5867,4.5822,4.5822,4.5826,4.5842,4.4888,4.3315,4.3374,4.2361,4.0813,4.0887,4.0925,4.0919,4.0836,4.0803,4.0794,4.0794,4.0805,4.0791,4.0809,4.0848,4.0924,4.0924,4.0972,4.1051,4.1066,4.1078,4.109,4.1094,4.1095,4.1097,4.11,4.1101,4.1101,4.1101,4.1101,4.11,4.1095,4.1095,4.1094,4.1109,4.1109,4.1085,4.1066,4.1069,4.1048,4.1013,4.1003,4.087,4.0503,4.0052,3.9493,3.8741,3.7688,3.6907,3.6481,3.5936,3.5571,3.5457,3.5445,3.5392,3.5304,3.5348,3.5348,3.5304,3.5405,3.5457,3.5463,3.5635,3.5788,3.0556,3.0892,3.1096,3.2322,3.2615,3.3003,3.4492,3.5655,3.6605,3.7225,3.8697,3.9863,3.9863,4.0368,4.0879,4.1111,4.1641,4.2196,4.2641,4.3795,4.4671,4.491,4.5452,4.5807,4.5807,4.5807,4.5807,4.5807,4.5807,4.5807,4.5807,4.5807,4.5807,4.5807,4.5807,4.5807,4.5807,4.5807,4.5827,4.5867,4.5867,4.5916,4.6022,4.5959,4.594,4.5931,4.5948,4.5138,4.3794,4.3822,4.2818,4.1242,4.1345,4.1241,4.1042,4.095,4.0902,4.0883,4.0883,4.0877,4.0886,4.088,4.0956,4.1025,4.1025,4.1065,4.11,4.1097,4.1095,4.1097,4.11,4.1101,4.1102,4.1106,4.1107,4.1107,4.1107,4.1107,4.1106,4.1102,4.1101,4.11,4.1097,4.1095,4.1095,4.1095,4.1104,4.1083,4.1028,4.1025,4.1028,4.1037,4.0507,4.0056,3.9822,3.8645,3.7767,3.7439,3.6841,3.6315,3.5927,3.5936,3.5792,3.5418,3.5482,3.5488,3.5412,3.5529,3.557,3.5595,3.6015,3.6543,3.1627,3.1851,3.2265,3.3978,3.4413,3.4635,3.5461,3.6988,3.8228,3.8267,3.9585,4.0768,4.0768,4.0787,4.1078,4.1917,4.2077,4.2653,4.4279,4.4563,4.4891,4.5671,4.5787,4.5807,4.5807,4.5807,4.5807,4.5807,4.5807,4.5807,4.5807,4.5807,4.5807,4.5807,4.5807,4.5807,4.5807,4.5807,4.5874,4.5997,4.5997,4.6032,4.6095,4.6037,4.601,4.5994,4.6069,4.5599,4.4763,4.489,4.3923,4.2341,4.2363,4.1875,4.1191,4.1191,4.115,4.1086,4.1086,4.1086,4.1086,4.1086,4.1087,4.1106,4.1106,4.1107,4.1107,4.1107,4.1107,4.1107,4.1107,4.1107,4.1107,4.1107,4.1107,4.1107,4.1107,4.1107,4.1107,4.1107,4.1107,4.1107,4.1107,4.1107,4.1107,4.1107,4.1107,4.1098,4.1098,4.1093,4.1103,4.1106,4.1087,4.0723,3.9869,3.975,3.9363,3.8503,3.8305,3.7844,3.6997,3.688,3.6484,3.5693,3.5636,3.5636,3.5693,3.5764,3.5781,3.5804,3.6791,3.7261,3.1884,3.238,3.311,3.4225,3.4505,3.4718,3.556,3.7117,3.836,3.836,3.9238,4.0174,4.0756,4.0391,4.0458,4.1859,4.2584,4.3367,4.4511,4.5124,4.5564,4.5835,4.5874,4.5874,4.5874,4.5834,4.5807,4.5807,4.5807,4.5807,4.5807,4.5807,4.5807,4.5807,4.5807,4.5841,4.5931,4.5931,4.5988,4.6061,4.6118,4.6145,4.6162,4.6186,4.6195,4.6195,4.6221,4.5735,4.4934,4.4979,4.4316,4.3203,4.2637,4.2226,4.1933,4.1406,4.1191,4.1151,4.1111,4.1109,4.1108,4.111,4.1091,4.1091,4.1091,4.1091,4.109,4.1108,4.1107,4.1108,4.109,4.1091,4.1111,4.1151,4.1171,4.1171,4.1171,4.1171,4.1151,4.1111,4.1091,4.111,4.1108,4.1107,4.1107,4.1107,4.1104,4.1099,4.1108,4.1103,4.1101,4.1108,4.1103,4.0982,4.0691,4.0137,3.9665,3.9373,3.8818,3.8329,3.7939,3.7982,3.7569,3.6572,3.6577,3.6577,3.6552,3.6628,3.6955,3.7545,3.7956,3.8461,3.2767,3.3333,3.3958,3.4795,3.4998,3.5142,3.5706,3.6918,3.794,3.794,3.8587,3.933,3.9893,3.9549,3.983,4.1814,4.2618,4.348,4.4954,4.5588,4.5911,4.5911,4.5911,4.5911,4.5911,4.5848,4.5841,4.5847,4.5847,4.5847,4.5847,4.5847,4.5834,4.5841,4.5841,4.5879,4.5993,4.5993,4.6053,4.6138,4.6192,4.624,4.6239,4.6288,4.6308,4.6308,4.6308,4.5976,4.5469,4.5469,4.4941,4.4082,4.3203,4.2676,4.2305,4.1504,4.1191,4.1191,4.1152,4.1131,4.113,4.1132,4.1132,4.1132,4.1132,4.1132,4.1132,4.1131,4.113,4.1131,4.1132,4.1132,4.1152,4.1191,4.1191,4.1191,4.1191,4.1191,4.1191,4.1132,4.1132,4.1132,4.113,4.113,4.113,4.113,4.1127,4.1103,4.1099,4.1095,4.1093,4.1109,4.1109,4.109,4.1093,4.0582,4.0252,4.0257,3.9786,3.9328,3.8953,3.9014,3.8594,3.7585,3.7603,3.7605,3.7572,3.7605,3.7917,3.8489,3.8885,3.9364,3.4165,3.4645,3.4876,3.5694,3.5908,3.5905,3.5901,3.6511,3.7104,3.71,3.7761,3.8348,0.0,3.8406,3.9222,4.1786,4.2247,4.3144,4.5648,4.5955,4.5917,4.5917,4.5917,4.5917,4.5917,4.5917,4.5899,4.5906,4.59,4.59,4.59,4.59,4.5899,4.5911,4.5911,4.5936,4.6005,4.6017,4.6086,4.6218,4.6269,4.6307,4.6308,4.6308,4.6308,4.6308,4.6308,4.6308,4.6308,4.6308,4.5801,4.498,4.4101,4.3223,4.2363,4.1562,4.123,4.1191,4.1191,4.1191,4.1191,4.1191,4.1191,4.1191,4.1191,4.1191,4.1211,4.125,4.123,4.1211,4.125,4.123,4.1191,4.1191,4.1191,4.1191,4.1191,4.1191,4.1191,4.1191,4.1191,4.1191,4.1191,4.1191,4.1191,4.1191,4.1152,4.111,4.1101,4.1099,4.1097,4.1091,4.1091,4.1093,4.1099,4.1094,4.1097,4.1107,4.1102,4.0767,3.9987,3.9968,3.9556,3.8671,3.8676,3.8679,3.8679,3.8679,3.8682,3.8745,3.958,3.9951,3.4556,3.5105,3.5616,3.583,3.5903,3.5891,3.5908,3.6514,3.7098,3.7104,3.7275,3.7625,3.8289,3.8406,3.9222,4.1786,4.2748,4.383,4.5739,4.598,4.598,4.598,0.0,4.598,4.598,4.598,4.5964,4.5974,4.5931,4.5899,4.5899,4.5899,4.5899,4.5911,4.5911,4.5959,4.6064,4.6163,4.623,4.6265,4.6284,4.6304,4.6305,4.6305,4.6305,4.6305,4.6305,4.6305,4.6305,4.6307,4.6171,4.5878,4.5019,4.4141,4.3262,4.2402,4.1719,4.1191,4.1191,4.1191,4.1191,4.1191,4.1191,4.1191,4.1191,4.1191,4.1328,4.1933,4.166,4.1348,4.1933,4.1641,4.1191,4.1191,4.1191,4.1191,4.1191,4.1191,4.1191,4.1191,4.1191,4.1191,4.1191,4.1191,4.1191,4.1191,4.1191,4.1152,4.111,4.1107,4.1105,4.1104,4.1103,4.1104,4.1105,4.1104,4.1105,4.1107,4.1106,4.1008,4.0794,4.0794,4.0402,3.958,3.9562,3.9563,3.9563,3.9563,3.9876,4.0463,4.0699,4.0797,3.518,3.56,3.5942,3.5942,3.5914,3.5807,3.5441,3.5707,3.5891,3.5515,3.5714,3.611,3.6599,3.7318,3.8654,4.1218,4.2364,4.3646,4.571,4.6002,4.6002,4.6002,4.6002,4.6002,4.6002,4.6002,4.5991,4.5994,4.5966,4.5929,4.5929,4.5929,4.5935,4.5933,4.5933,4.6007,4.6134,4.6211,4.6261,4.6293,4.6296,4.63,4.6301,4.6301,4.6301,4.6301,4.6301,4.6301,4.6301,4.6304,4.6305,4.6208,4.5331,4.4707,4.416,4.3281,4.2676,4.2304,4.2304,4.205,4.1678,4.1308,4.1191,4.1269,4.1621,4.1738,4.1894,4.2734,4.2656,4.2402,4.2851,4.2637,4.2305,4.2305,4.2305,4.2187,4.1816,4.1738,4.1621,4.1269,4.1191,4.1191,4.1191,4.1191,4.1191,4.1191,4.1191,4.1191,4.1152,4.1111,4.1109,4.1108,4.1107,4.1108,4.1109,4.1108,4.1108,4.1131,4.113,4.1109,4.1109,4.1109,4.0894,4.0443,4.0425,4.0426,4.0426,4.0426,4.0661,4.1131,4.1111,4.1112,3.5797,3.5992,3.5992,3.5992,3.5962,3.5695,3.4895,3.4645,3.4348,3.3479,3.3941,3.4501,3.4501,3.5915,3.7935,4.0499,4.1626,4.3088,4.5633,4.6002,4.6002,4.6002,4.6002,4.6002,4.6002,4.6002,4.6002,4.6002,4.5994,4.6003,4.6003,4.6003,4.5994,4.6002,4.6012,4.6068,4.6202,4.6208,4.6229,4.6291,4.6291,4.6295,4.63,4.63,4.63,4.63,4.63,4.63,4.63,4.6301,4.6301,4.6223,4.5465,4.5095,4.49,4.416,4.3808,4.3708,4.3708,4.3218,4.2455,4.1757,4.1445,4.1504,4.2324,4.2578,4.2754,4.3633,4.3789,4.373,4.3848,4.3789,4.3691,4.3691,4.3691,4.3496,4.2734,4.248,4.2168,4.1367,4.1191,4.1191,4.1191,4.1191,4.1191,4.1191,4.1191,4.1191,4.1191,4.1152,4.1111,4.1109,4.1108,4.111,4.1112,4.111,4.113,4.1191,4.1152,4.1112,4.1112,4.1112,4.1111,4.1109,4.1111,4.1112,4.1112,4.1112,4.1132,4.1191,4.1132,4.1132,3.5953,3.5992,3.5992,3.5992,3.5991,3.575,3.4897,3.4659,0.0,3.3485,3.3941,3.4501,3.4501,3.5915,3.7935,4.0499,4.1626,4.3088,4.5633,4.6002,4.6002,0.0,4.6002,4.6002,4.6002,4.6002,4.6002,4.6002,4.5997,4.5991,4.5991,4.5991,4.5997,4.6002,4.6044,4.6122,4.6202,4.6208,4.6228,4.6303,4.6303,4.6303,4.6305,4.6305,4.6305,4.6305,4.6305,4.6305,4.6305,4.6293,4.6295,4.6276,4.6125,4.5638,4.4974,4.4838,4.4311,4.3705,4.3705,4.3607,4.345,4.3318,4.2772,4.2343,4.3203,4.3476,4.3652,4.4531,4.4258,4.3867,4.459,4.4238,4.3691,4.3691,4.3691,4.3652,4.3516,4.291,4.2168,4.1367,4.1191,4.1191,4.1191,4.1191,4.1191,4.1191,4.1191,4.1191,4.1191,4.1191,4.1172,4.1172,4.1172,4.1172,4.1172,4.1172,4.1191,4.1191,4.1191,4.1172,4.1172,4.1172,4.1172,4.1172,4.1172,4.1172,4.1172,4.1172,4.1191,4.1191,4.1191,4.1191,3.5992,3.5992,3.5992,3.5992,3.5992,3.5659,3.4324,0.0,0.0,3.2848,3.331,3.3992,3.4424,3.5915,3.78,3.9936,4.0985,4.2422,4.5006,4.5375,4.553,4.5944,4.6002,4.6002,4.6002,4.6002,4.6002,4.6002,4.6002,4.6002,4.6002,4.6002,4.6002,4.6002,4.6032,4.6076,4.6147,4.6152,4.6178,4.625,4.6247,4.6244,4.6243,4.6288,4.63,4.63,4.63,4.63,4.6302,4.6305,4.6306,4.6308,4.6295,4.6044,4.5673,4.5676,4.5401,4.5047,4.5047,4.4751,4.4457,4.4913,4.4156,4.324,4.4101,4.4375,4.4551,4.543,4.5371,4.5156,4.5566,4.5371,4.5058,4.5058,4.4707,4.4375,4.4375,4.334,4.2285,4.1894,4.1484,4.1328,4.1758,4.1816,4.1972,4.2421,4.2109,4.1816,4.1816,4.1465,4.1191,4.1191,4.1191,4.1191,4.1191,4.1191,4.1191,4.1191,4.1191,4.1191,4.1191,4.1191,4.1191,4.1191,4.1191,4.1191,4.1191,4.1191,4.1191,4.1191,4.1191,4.1191,3.5992,3.5992,3.5992,3.5992,3.5992,3.5543,3.3806,3.3354,3.3071,3.2262,3.274,3.3546,3.4346,3.576,3.745,3.9368,4.0228,4.1626,4.4404,4.4792,4.5103,4.5905,4.6002,4.6002,4.6002,4.6002,4.6002,4.6002,4.6012,4.6012,4.6002,4.6002,4.6002,4.6002,4.6002,4.6032,4.6098,4.6098,4.6134,4.6202,4.6205,4.6209,4.619,4.6244,4.6272,4.6272,4.6284,4.63,4.63,4.63,4.63,4.6302,4.6308,4.6291,4.6291,4.6296,4.6295,4.6291,4.6291,4.5857,4.5382,4.6074,4.5244,4.4137,4.5017,4.5272,4.5429,4.6113,4.6308,4.6308,4.6308,4.6308,4.6308,4.6308,4.5781,4.5234,4.5039,4.3925,4.289,4.2715,4.2168,4.1933,4.2578,4.2674,4.2908,4.3591,4.3122,4.2673,4.2673,4.1952,4.1464,4.1464,4.1308,4.1191,4.1172,4.1191,4.1191,4.1172,4.1191,4.1191,4.1191,4.1191,4.1191,4.1191,4.1191,4.1191,4.1191,4.1191,4.1191,4.1191,4.1191,4.1191,3.5992,3.5992,3.5992,3.5992,3.5992,3.5543,3.3806,0.0,3.3071,3.2262,3.274,3.3546,3.4346,3.5274,3.6727,3.9213,3.9718,4.0985,4.4326,4.4792,4.5103,4.5905,0.0,4.6002,4.6002,4.6002,4.6002,4.6002,4.6066,4.6051,4.6002,4.6002,4.6002,4.6002,4.6002,4.6032,4.6098,4.6098,4.6134,4.6202,4.6206,4.6207,4.6209,4.6209,4.6211,4.621,4.6274,4.63,4.63,4.63,4.63,4.63,4.6302,4.6302,4.6302,4.6303,4.6302,4.6302,4.6302,4.6243,4.6183,4.6262,4.5664,4.5047,4.5915,4.6188,4.6206,4.6287,4.6305,4.6303,4.6303,4.6303,4.6303,4.6303,4.6245,4.5952,4.517,4.4877,4.4527,4.3728,4.3512,4.3491,4.3572,4.357,4.3607,4.3685,4.3626,4.3587,4.3587,4.2825,4.2298,4.2298,4.164,4.1172,4.1112,4.1152,4.1172,4.1112,4.1172,4.1191,4.1191,4.1191,4.1191,4.1191,4.1191,4.1191,4.1191,4.1191,4.1191,4.1191,4.1191,4.1191,3.5856,3.5992,3.5992,3.5992,3.5992,3.5542,3.3796,3.3754,3.384,3.2998,3.3462,3.4284,3.5138,3.5562,3.6474,3.8538,3.8907,3.9936,4.283,4.3685,4.4326,4.5181,4.571,4.6002,4.6002,4.6002,4.6012,4.6066,4.6111,4.6146,4.6111,4.6084,4.6066,4.6066,4.6017,4.6003,4.6041,4.6041,4.6044,4.6076,4.6122,4.6139,4.6142,4.6188,4.6207,4.6191,4.6228,4.6258,4.63,4.63,4.63,4.63,4.63,4.63,4.63,4.63,4.63,4.63,4.63,4.63,4.63,4.63,4.6069,4.5859,4.618,4.6301,4.6302,4.6304,4.6303,4.6301,4.6301,4.6301,4.6301,4.6301,4.6301,4.6204,4.5852,4.5364,4.4895,4.4545,4.4057,4.386,4.4389,4.4484,4.4656,4.5183,4.4812,4.448,4.448,4.3721,4.3176,4.3176,4.1968,4.113,4.1109,4.111,4.113,4.1109,4.1131,4.1132,4.1131,4.1132,4.1132,4.1131,4.1131,4.1131,4.1132,4.1132,4.1152,4.1191,4.1152,4.1132,3.5757,3.5992,3.5992,3.5992,3.5963,3.5541,3.4064,3.4138,3.434,3.372,3.405,3.474,3.5609,3.5782,3.6377,3.8115,3.8406,3.9377,4.2189,4.3102,4.3918,4.5025,4.5672,4.6007,4.6022,4.6056,4.608,4.6134,4.6173,4.6193,4.6193,4.6169,4.6131,4.6134,4.6056,4.6007,4.6022,4.6022,4.6022,4.6027,4.6107,4.6141,4.6121,4.6184,4.6195,4.6209,4.6211,4.6265,4.63,4.6303,4.6305,4.6303,4.6298,4.6296,4.6296,4.63,4.63,4.63,4.63,4.63,4.63,4.63,4.63,4.6302,4.6308,4.6294,4.6297,4.6299,4.6299,4.6296,4.6296,4.6296,4.6296,4.6296,4.6296,4.6296,4.6296,4.5828,4.538,4.5381,4.4892,4.4656,4.5283,4.5376,4.5587,4.6212,4.5782,4.5371,4.5371,4.4614,4.4089,4.4089,4.2762,4.1767,4.1515,4.1243,4.1107,4.1105,4.1108,4.111,4.1108,4.1109,4.111,4.1107,4.1107,4.1108,4.1091,4.1091,4.1111,4.1171,4.1111,4.109,3.575,3.5992,3.5992,3.5992,3.5899,3.5574,3.4691,3.4391,3.4301,3.429,3.4355,3.4676,3.5533,3.577,3.6377,3.8115,3.8406,3.9587,4.3005,4.3486,4.4112,4.5788,4.5982,4.6022,4.6089,4.6154,4.6196,4.6196,4.6209,4.6206,4.6206,4.6206,4.6192,4.6199,4.6075,4.6027,4.6093,4.6093,4.6093,4.6098,4.6177,4.6199,4.6199,4.6204,4.6202,4.6206,4.6267,4.6305,4.6302,4.6309,4.6293,4.6291,4.6294,4.6306,4.6306,4.6296,4.63,4.63,4.63,4.63,4.63,4.63,4.63,4.63,4.63,4.63,4.6303,4.6291,4.6308,4.63,4.63,4.63,4.63,4.63,4.63,4.63,4.63,4.628,4.6284,4.6291,4.6287,4.6284,4.6272,4.6287,4.628,4.63,4.628,4.628,4.628,4.5539,4.4992,4.4992,4.4192,4.3318,4.2466,4.1593,4.1105,4.1099,4.1104,4.1107,4.1107,4.1107,4.1107,4.1107,4.1107,4.1107,4.1107,4.1107,4.1107,4.1108,4.1107,4.1104,3.3939,3.4409,3.4717,3.4163,3.4407,3.4544,3.3671,3.4352,3.501,3.4361,3.4714,3.5247,3.5504,3.5585,3.6383,3.8766,3.9145,4.0174,4.3092,4.4006,4.4593,4.5118,4.5752,4.6146,4.6177,4.6193,4.6192,4.6192,4.6238,4.6271,4.6271,4.6216,4.6203,4.6195,4.6169,4.6146,4.6181,4.6181,4.6181,4.6162,4.6192,4.6199,4.6199,4.6203,4.6194,4.6204,4.6213,4.6267,4.6305,4.6297,4.6293,4.6291,4.6294,4.6303,4.6306,4.6296,4.63,4.63,4.63,4.63,4.63,4.63,4.63,4.63,4.6292,4.6294,4.6302,4.6303,4.6303,4.63,4.63,4.63,4.63,4.63,4.63,4.63,4.63,4.63,4.6302,4.6305,4.6302,4.6302,4.6305,4.6302,4.63,4.63,4.63,4.63,4.63,4.6066,4.589,4.589,4.5109,4.4232,4.3357,4.248,4.1992,4.1989,4.143,4.11,4.1097,4.11,4.11,4.1097,4.1097,4.1098,4.1101,4.1101,4.1101,4.1101,4.1101,4.141,0.0,3.3466,3.3734,3.3238,3.3698,3.4123,3.3578,3.4486,3.5277,3.4705,3.5059,3.5457,3.5457,3.5759,3.6639,3.8657,3.9278,4.0433,4.3082,4.3961,4.4565,4.5243,4.5845,4.62,4.62,4.6226,4.624,4.624,4.6275,4.63,4.63,4.6269,4.624,4.624,4.6203,4.6206,4.62,4.62,4.62,4.62,4.6231,4.6237,4.6237,4.6237,4.6236,4.6241,4.6241,4.6254,0.0,4.6308,4.6305,4.6304,4.6264,4.6278,4.6306,4.6275,4.6277,4.6303,4.6273,4.6269,4.6269,4.6269,4.6269,4.6269,4.626,4.6286,4.6294,4.6294,4.6298,4.63,4.63,4.63,4.63,4.63,4.63,4.63,4.63,4.63,4.63,4.63,4.63,4.63,4.63,4.63,4.63,4.63,4.63,4.63,4.63,4.63,4.63,4.63,4.5812,4.5265,4.4738,4.3587,4.2884,4.2884,4.2381,4.1932,4.1596,4.1581,4.1444,4.1109,4.1109,4.1091,4.1095,4.1095,4.1095,4.1115,4.1447,4.1873,0.0,3.2947,3.3048,3.2971,3.3583,3.4199,3.4199,3.4717,0.0,3.5209,3.5297,3.5391,3.5468,3.6187,3.7109,3.8112,3.9006,4.0469,4.3047,4.351,4.4254,4.6008,4.6215,4.6211,4.6211,4.6251,4.63,4.63,4.63,4.63,4.63,4.63,4.63,4.63,4.6237,4.6203,4.6209,4.6211,4.6211,4.6211,4.6273,4.63,4.63,4.63,4.63,4.63,4.63,4.63,4.6303,4.6303,4.6307,4.6288,4.6239,4.6257,4.6286,4.6236,4.6255,4.6293,4.6225,4.6211,4.6211,4.6209,4.6206,4.6206,4.6206,4.6236,4.6284,4.6284,4.629,4.6298,4.6298,4.6298,4.63,4.6298,4.63,4.63,4.63,4.63,4.63,4.63,4.63,4.63,4.63,4.63,4.63,4.63,4.63,4.63,4.63,4.63,4.63,4.63,4.63,4.63,4.63,4.4758,4.3782,4.3782,4.3725,4.3333,4.2533,4.2494,4.2103,4.1304,4.1226,4.1168,4.1109,4.1109,4.1109,4.1129,4.1986,4.2435,3.0332,0.0,3.2424,3.1794,3.2859,3.4044,0.0,3.4657,3.5209,3.5209,3.5234,3.5441,3.613,3.6422,3.7282,3.9504,4.0092,4.1003,4.3103,4.409,4.5006,4.6147,4.6271,4.6275,4.6275,4.6298,4.63,4.63,4.63,4.63,4.63,4.63,4.63,4.63,4.6271,4.6288,4.6275,4.6275,4.6275,4.6275,4.6298,4.63,4.63,4.63,4.63,4.63,4.63,4.63,4.6303,4.6303,4.6307,4.6307,4.6287,4.6286,4.6307,4.6286,4.6287,4.6307,4.6273,4.6285,4.6262,4.6216,4.6201,4.6189,4.6189,4.6201,4.6211,4.6211,4.6214,4.6216,4.6216,4.6262,4.6286,4.6238,4.6262,4.6308,4.6308,4.6308,4.629,4.63,4.63,4.63,4.63,4.63,4.63,4.63,4.63,4.63,4.63,4.63,4.63,4.63,4.63,4.63,4.63,4.5304,4.4699,4.4699,4.4075,4.3606,4.3391,4.3391,4.3294,4.31,4.2435,4.1771,4.1109,4.1109,4.1109,4.1129,4.1986,4.2767,2.9445,3.0621,3.1741,3.1305,3.2616,3.3995,3.3995,3.4617,3.5209,0.0,0.0,0.0,3.5812,3.6555,3.7553,3.8933,3.9938,4.1221,4.3175,4.4596,4.5655,4.6238,4.63,4.63,4.63,4.63,4.63,4.63,4.63,4.63,4.63,4.63,4.63,4.63,4.63,4.63,4.63,4.63,4.63,4.63,4.63,4.63,4.63,4.63,4.63,4.63,4.63,4.63,4.6302,4.6295,4.6299,4.63,4.6308,4.6308,4.6306,4.6269,4.6269,4.6308,4.6255,4.6243,4.6243,4.62,4.6206,4.6206,4.6206,4.6192,4.6194,4.6201,4.6203,4.6206,4.6206,4.6233,4.6236,4.6209,4.6233,4.6258,4.6258,4.6258,4.626,4.6245,4.6271,4.6294,4.6294,4.6294,4.6294,4.6294,4.6271,4.6247,4.6247,4.6247,4.6269,4.6292,4.6294,4.6296,4.63,4.587,4.5597,4.5597,4.5148,4.4719,4.4309,4.4309,4.4114,4.3705,4.3235,4.2572,4.1693,4.2105,4.2085,4.1732,4.3001,4.386,2.9354,3.0338,3.1312,3.1372,3.2787,3.4178,3.4178,0.0,0.0,0.0,0.0,0.0,0.0,3.6703,3.7868,3.8082,3.973,4.1609,4.3436,4.4962,4.6008,4.6277,4.63,4.63,4.63,4.63,4.63,4.63,4.63,4.63,4.63,4.63,4.63,4.63,4.63,4.63,4.63,4.63,4.63,4.63,4.63,4.63,4.63,4.63,4.63,4.63,4.63,4.63,4.63,4.63,4.63,4.6303,4.6301,4.6297,4.6287,4.623,4.625,4.6288,4.6237,4.6218,4.6199,4.62,4.6194,4.6195,4.6208,4.6206,4.6201,4.6198,4.6201,4.6209,4.6203,4.6203,4.6203,4.6201,4.6203,4.6203,4.6203,4.6203,4.6203,4.6206,4.6255,4.6282,4.6282,4.6282,4.6282,4.6282,4.6233,4.6206,4.6206,4.6206,4.6211,4.6282,4.6282,4.6286,4.6277,4.6298,4.6298,4.6298,4.63,4.5968,4.5223,4.5205,4.4795,4.3917,4.3899,4.3469,4.2591,4.3333,4.3313,4.265,4.425,4.499,2.9871,3.0869,3.1786,3.2136,3.3625,3.5018,3.5018,3.5114,0.0,0.0,0.0,0.0,0.0,3.713,3.8287,3.9749,4.152,4.3131,4.4345,4.4806,4.5322,4.6199,4.63,4.63,4.63,4.63,4.63,4.63,4.63,4.63,4.63,4.63,4.63,4.63,4.63,4.63,4.63,4.63,4.63,4.63,4.63,4.63,4.63,4.63,4.63,4.63,4.63,4.63,4.63,4.63,4.63,4.6302,4.6305,4.6303,4.6302,4.629,4.629,4.6291,4.6288,4.6248,4.6201,4.6203,4.6202,4.6198,4.6195,4.6206,4.6206,4.6201,4.6201,4.6197,4.62,4.6196,4.6206,4.619,4.6196,4.6209,4.6209,4.6209,4.6192,4.6206,4.6209,4.6211,4.6211,4.6211,4.6211,4.6211,4.6209,4.6206,4.6206,4.6206,4.6209,4.6211,4.6211,4.6211,4.6214,4.6262,4.6308,4.6308,4.6296,4.6238,4.6113,4.6101,4.5691,4.4823,4.4791,4.4367,4.3509,4.3626,4.3626,4.3528,4.4524,4.499,2.9524,3.0709,3.1867,3.2165,3.3657,3.5072,3.5185,3.5209,0.0,0.0,0.0,0.0,0.0,3.7269,3.8575,4.0801,4.2604,4.3974,4.4616,4.5108,4.5613,4.6234,4.63,4.63,4.63,4.63,4.63,4.63,4.63,4.63,4.63,4.63,4.63,4.63,4.63,4.63,4.63,4.63,4.63,4.63,4.63,4.63,4.63,4.63,4.63,4.63,4.63,4.63,4.63,4.63,4.63,4.63,4.63,4.63,4.63,4.63,4.6309,4.6299,4.6297,4.6286,4.625,4.6249,4.6249,4.6249,4.6246,4.6239,4.6191,4.6191,4.6208,4.6195,4.6198,4.6206,4.6209,4.6199,4.6203,4.619,4.619,4.619,4.6193,4.62,4.6209,4.6195,4.6195,4.6195,4.6195,4.6195,4.6209,4.6203,4.6203,4.6203,4.6206,4.6195,4.6195,4.6198,4.6206,4.6233,4.6262,4.6292,4.6292,4.629,4.6306,4.6264,4.6065,4.567,4.5655,4.5228,4.435,4.4818,4.4818,4.437,4.5248,4.5657,2.9307,3.0398,3.1492,3.1925,0.0,3.4737,3.528,3.531,3.5305,0.0,0.0,0.0,0.0,3.7934,3.9525,4.1742,4.3513,4.468,4.4921,4.55,4.5992,4.6236,4.6275,4.63,4.63,4.63,4.63,4.63,4.63,4.63,4.63,4.63,4.63,4.63,4.63,4.63,4.63,4.63,4.63,4.63,4.63,4.63,4.63,4.63,4.63,4.63,4.63,4.63,4.63,4.63,4.63,4.63,4.63,4.63,4.63,4.63,4.6293,4.6302,4.6308,4.6293,4.6302,4.6306,4.6294,4.6304,4.6306,4.6269,4.6228,4.6228,4.6204,4.6201,4.6201,4.6198,4.6199,4.6199,4.6199,4.6199,4.6199,4.6199,4.6199,4.6199,4.6209,4.62,4.62,4.62,4.62,4.62,4.6206,4.6199,4.6199,4.6199,4.6203,4.6196,4.62,4.6206,4.6201,4.6203,4.6214,4.6273,4.6286,4.6279,4.6277,4.6231,4.6206,4.6203,4.6206,4.5874,4.5209,4.5874,4.5855,4.5228,4.5894,4.6206,2.9814,3.0125,3.0484,3.1548,3.2773,3.4093,3.5685,3.5596,0.0,3.7196,0.0,0.0,3.7704,3.9753,4.1767,4.2827,4.4412,4.5558,4.5703,4.5813,4.5945,4.6098,4.6216,4.63,4.63,4.63,4.63,4.63,4.63,4.63,4.63,4.63,4.63,4.63,4.63,4.63,4.63,4.63,4.63,4.63,4.63,4.63,4.63,4.63,4.63,4.63,4.63,4.63,4.63,4.63,4.63,4.63,4.63,4.63,4.63,4.63,4.6302,4.6303,4.6302,4.6302,4.6303,4.6302,4.6302,4.6308,4.6305,4.6307,4.6288,4.6288,4.6249,4.6198,4.6195,4.6198,4.6199,4.6199,4.6199,4.6199,4.6199,4.6199,4.6199,4.6199,4.6199,4.6199,4.6199,4.6199,4.6199,4.6199,4.6199,4.6199,4.6199,4.6199,4.6199,4.6199,4.6199,4.6206,4.6206,4.6206,4.6192,4.6209,4.6209,4.6203,4.6209,4.6201,4.6201,4.6206,4.6201,4.6167,4.6108,4.6167,4.6167,4.6108,4.6167,4.6206,2.9259,3.0113,3.1011,3.1445,3.2362,0.0,0.0,3.5571,3.6139,3.7427,3.7747,0.0,3.8572,4.0817,4.2684,4.3047,4.4509,4.5654,4.5786,4.5865,4.594,4.6072,4.6214,4.63,4.63,4.63,4.63,4.63,4.63,4.63,4.63,4.63,4.63,4.63,4.63,4.63,4.63,4.63,4.63,4.63,4.63,4.63,4.63,4.63,4.63,4.63,4.63,4.63,4.63,4.63,4.63,4.63,4.63,4.63,4.63,4.63,4.63,4.63,4.63,4.63,4.63,4.63,4.63,4.6302,4.6291,4.6301,4.6306,4.6297,4.6249,4.6205,4.6247,4.6237,4.6199,4.6199,4.6199,4.6193,4.6189,4.6203,4.6195,4.6206,4.6199,4.6199,4.6199,4.6199,4.6199,4.6199,4.6199,4.6199,4.6199,4.6199,4.6199,4.6199,4.6199,4.6199,4.6206,4.6209,4.619,4.6196,4.6209,4.6192,4.6206,4.62,4.6196,4.6209,4.6196,4.62,4.62,4.62,4.62,4.62,4.62,4.62,2.9259,3.0155,3.1139,3.1354,0.0,0.0,3.4848,3.5665,3.6568,3.8191,3.8576,3.8903,3.9857,4.1695,4.3069,4.3104,4.4509,4.5637,4.5719,4.5841,4.593,4.6037,4.6184,4.63,4.63,4.63,4.63,4.63,4.63,4.63,4.63,4.63,4.63,4.63,4.63,4.63,4.63,4.63,4.63,4.63,4.6303,4.6305,4.6305,4.6305,4.6305,4.6305,4.6305,4.6303,4.63,4.63,4.63,4.63,4.63,4.63,4.63,4.63,4.63,4.63,4.63,4.63,4.63,4.63,4.63,4.63,4.63,4.6293,4.63,4.6305,4.6262,4.623,4.6284,4.625,4.6203,4.6198,4.6196,4.6192,4.6193,4.6197,4.6201,4.6206,4.6199,4.6199,4.6199,4.6199,4.6199,4.6199,4.6199,4.6199,4.6199,4.6199,4.6199,4.6199,4.6199,4.6199,4.6199,4.6199,4.6199,4.6199,4.6209,4.6196,4.6196,4.6206,4.6199,4.6199,4.6199,4.6199,4.6199,4.6199,4.6199,4.6199,4.6199,4.6199,3.0076,3.0249,3.056,3.1244,0.0,0.0,3.5437,3.5981,3.692,3.9726,4.0362,4.0709,4.1618,4.2456,4.3024,4.3096,4.4509,4.5594,4.5594,4.5776,4.5899,4.5899,4.6138,4.63,4.63,4.63,4.63,4.63,4.63,4.63,4.63,4.63,4.63,4.63,4.63,4.63,4.63,4.63,4.63,4.6302,4.6309,4.6293,4.6293,4.6293,4.6293,4.6293,4.6293,4.6308,4.63,4.63,4.63,4.63,4.63,4.63,4.63,4.63,4.63,4.63,4.63,4.63,4.63,4.63,4.63,4.63,4.63,4.63,4.63,4.63,4.63,4.63,4.6302,4.6248,4.62,4.6197,4.6208,4.6208,4.6208,4.6195,4.6199,4.6199,4.6199,4.6199,4.6199,4.6199,4.6199,4.6199,4.6199,4.6199,4.6199,4.6199,4.6199,4.6199,4.6199,4.6199,4.6199,4.6199,4.6199,4.6199,4.6199,4.6199,4.6199,4.6199,4.6199,4.6199,4.6199,4.6199,4.6199,4.6199,4.6199,4.6199,4.6199,4.6199,2.9629,2.9894,3.0528,3.1618,0.0,0.0,0.0,3.7479,0.0,0.0,4.0918,4.1404,4.1742,4.2962,4.3923,4.3932,4.4883,4.5594,4.5594,4.5776,4.5899,4.5899,4.6138,4.63,4.63,4.63,4.63,4.63,4.63,4.63,4.63,4.63,4.63,4.63,4.6306,4.6309,4.6309,4.6295,4.6296,4.6296,4.6299,4.6297,4.6293,4.6297,4.63,4.63,4.6295,4.6291,4.6309,4.6303,4.63,4.63,4.63,4.63,4.63,4.63,4.63,4.63,4.63,4.63,4.63,4.63,4.63,4.63,4.63,4.63,4.63,4.63,4.63,4.6305,4.63,4.6287,4.6269,4.6267,4.6269,4.6267,4.6218,4.6191,4.6193,4.6193,4.6199,4.6199,4.6199,4.6199,4.6199,4.6199,4.6199,4.6199,4.6199,4.6199,4.6199,4.6199,4.6199,4.6199,4.6199,4.6199,4.6199,4.6199,4.6199,4.6199,4.6199,4.6199,4.6199,4.6199,4.6199,4.6199,4.6199,4.6199,4.6199,4.6199,4.6199,4.6199,3.0732,3.108,3.1701,3.2806,3.4153,3.5825,3.8165,0.0,0.0,4.0765,4.1113,4.1445,4.2173,4.3143,4.3932,4.4239,4.5037,4.5594,4.5594,4.5776,4.5899,4.5899,4.6138,4.63,4.63,4.63,4.63,4.63,4.63,4.6302,4.6305,4.6305,4.6306,4.6291,4.6295,4.6296,4.6296,4.6301,4.6301,4.6301,4.6303,4.6303,4.6301,4.6303,4.6304,4.6304,4.63,4.6295,4.6293,4.6308,4.6303,4.63,4.63,4.63,4.63,4.63,4.63,4.6302,4.6305,4.6303,4.6302,4.6308,4.6308,4.6306,4.6309,4.6308,4.6305,4.6305,4.6305,4.6308,4.6299,4.6305,4.6307,4.6299,4.6286,4.6249,4.6205,4.6204,4.6194,4.62,4.6196,4.6203,4.6203,4.6199,4.6199,4.6199,4.6199,4.6199,4.6199,4.6199,4.6199,4.6199,4.6199,4.6199,4.6199,4.6199,4.6199,4.6199,4.6199,4.6199,4.6199,4.6199,4.6199,4.6199,4.6199,4.6199,4.6199,4.6199,4.6199,4.6199,4.6199,4.6199,3.2558,3.2985,3.34,3.4323,3.5655,3.7381,3.9917,4.051,4.0702,4.1432,4.1061,4.1131,4.2797,4.3162,4.347,4.4297,4.5075,4.5594,4.5612,4.579,4.5905,4.5915,4.6144,4.63,4.63,4.6302,4.6302,4.6302,4.6302,4.6306,4.6294,4.6294,4.6296,4.6301,4.6302,4.6302,4.6302,4.6302,4.6303,4.6303,4.6306,4.6307,4.6307,4.6307,4.6307,4.6307,4.6304,4.63,4.6294,4.6293,4.6308,4.6302,4.6302,4.63,4.63,4.6302,4.6302,4.6303,4.6291,4.6309,4.6305,4.6299,4.6299,4.6295,4.6301,4.6299,4.6294,4.6294,4.6294,4.6293,4.6305,4.6302,4.6308,4.6307,4.625,4.6205,4.6205,4.6205,4.6216,4.6206,4.6201,4.6194,4.6206,4.6199,4.6196,4.6192,4.6196,4.6196,4.6192,4.6196,4.6199,4.6199,4.6199,4.6199,4.6199,4.6199,4.6199,4.6199,4.6199,4.6199,4.6199,4.6199,4.6199,4.6199,4.6199,4.6199,4.6199,4.6199,4.6199,4.6199,4.6199,4.6199,3.1347,3.1734,3.2468,3.387,3.5937,3.8132,4.0069,4.05,4.0558,4.0712,4.1154,4.1835,4.2893,4.3624,4.4316,4.519,4.5479,4.5646,4.5734,4.5847,4.5935,4.6049,4.6209,4.63,4.63,4.6306,4.6291,4.6291,4.6295,4.6299,4.63,4.63,4.6301,4.6301,4.6305,4.6306,4.6306,4.6308,4.6308,4.6308,4.6308,4.6308,4.6308,4.6308,4.6308,4.6307,4.6306,4.6304,4.63,4.6295,4.6293,4.6309,4.6303,4.63,4.6302,4.6308,4.6291,4.6291,4.6299,4.63,4.6299,4.6301,4.6301,4.6301,4.6301,4.6301,4.63,4.63,4.63,4.63,4.6299,4.6306,4.6308,4.6305,4.6287,4.6289,4.6289,4.6289,4.6268,4.6208,4.6201,4.6194,4.6206,4.6199,4.6189,4.6134,4.6177,4.6189,4.6134,4.6177,4.6199,4.6199,4.6199,4.6199,4.6199,4.6199,4.6199,4.6199,4.6199,4.6199,4.6199,4.6199,4.6199,4.6199,4.6199,4.6199,4.6199,4.6199,4.6199,4.6199,4.6199,4.6199,3.1879,3.2391,3.3223,3.5377,0.0,3.8408,4.0104,4.0496,4.0496,4.0496,4.0854,4.1431,4.2316,4.3162,4.3989,4.4836,4.5373,4.5719,4.5801,4.5919,4.6014,4.6079,4.6212,4.6293,4.6293,4.6295,4.6297,4.6297,4.6301,4.6302,4.6305,4.6305,4.6305,4.6307,4.6307,4.6308,4.6308,4.6308,4.6308,4.6308,4.6308,4.6308,4.6308,4.6308,4.6308,4.6308,4.6308,4.6307,4.6305,4.6302,4.63,4.6297,4.6309,4.6309,4.6293,4.6293,4.6295,4.6299,4.6303,4.6303,4.6302,4.6306,4.6306,4.6305,4.6306,4.6306,4.6305,4.6305,4.6305,4.6304,4.6302,4.6306,4.6307,4.6303,4.6306,4.6308,4.6308,4.6306,4.6288,4.6216,4.6209,4.6197,4.6164,4.6135,4.6089,4.6066,4.6084,4.6098,4.6098,4.6138,4.6158,4.6196,4.6199,4.6199,4.6199,4.6199,4.6199,4.6199,4.6199,4.6199,4.6199,4.6199,4.6199,4.6199,4.6199,4.6199,4.6199,4.6199,4.6199,4.6199,4.6199,4.6199,3.2529,3.3373,3.4426,3.7053,3.7851,3.8392,3.9938,4.04,4.0496,4.0496,4.0496,4.0766,4.1643,4.2393,4.3206,4.4182,4.5039,4.5654,4.5826,4.599,4.612,4.6121,4.623,4.6301,4.6301,4.6302,4.6303,4.6303,4.6303,4.6305,4.6307,4.6307,4.6308,4.6308,4.6308,4.6308,4.6308,4.6308,4.6308,4.6308,4.6308,4.6308,4.6308,4.6308,4.6308,4.6308,4.6308,4.6308,4.6307,4.6307,4.6305,4.6302,4.6297,4.6297,4.6301,4.6297,4.63,4.6303,4.6307,4.6306,4.6305,4.6308,4.6308,4.6307,4.6308,4.6308,4.6307,4.6307,4.6307,4.6307,4.6305,4.6305,4.6306,4.6305,4.6307,4.6308,4.6308,4.6304,4.6283,4.6228,4.6203,4.6171,4.6114,4.6056,4.6017,4.5991,4.5997,4.6012,4.6066,4.608,4.6102,4.6185,4.6189,4.6192,4.6196,4.6199,4.6199,4.6199,4.6199,4.6199,4.6199,4.6199,4.6199,4.6199,4.6199,4.6199,4.6199,4.6199,4.6199,4.6199,4.6199,4.6199,3.1167,3.2705,3.4562,3.6397,3.7423,3.8257,3.9246,3.9996,4.0496,4.0496,4.0496,4.0766,4.1643,4.1944,4.2598,4.4221,4.4621,4.5057,4.5946,4.6078,4.6143,4.6256,4.628,4.6301,4.6301,4.6305,4.6306,4.6306,4.6308,4.6308,4.6308,4.6308,4.6308,4.6308,4.6308,4.6308,4.6308,4.6308,4.6308,4.6308,4.6308,4.6308,4.6308,4.6308,4.6308,4.6308,4.6308,4.6308,4.6308,4.6307,4.6307,4.6306,4.6302,4.6301,4.6302,4.6305,4.6306,4.6307,4.6308,4.6308,4.6308,4.6308,4.6308,4.6308,4.6308,4.6308,4.6308,4.6308,4.6308,4.6308,4.6308,4.6308,4.6307,4.6308,4.6308,4.6307,4.6304,4.6302,4.6305,4.6288,4.6239,4.6173,4.6115,4.6095,4.6048,4.5927,4.5969,4.5986,4.5922,4.598,4.6032,4.6102,4.6106,4.6142,4.6196,4.6199,4.6199,4.6199,4.6199,4.6199,4.6199,4.6199,4.6199,4.6199,4.6199,4.6199,4.6199,4.6199,4.6199,4.6199,4.6199,4.6199,3.1689,3.3116,3.4609,3.6276,3.7353,3.8238,3.9111,3.9981,4.061,4.061,4.0629,4.0761,4.1125,4.1641,4.2252,4.3019,4.3611,4.4304,4.5233,4.5439,4.5691,4.6229,4.6307,4.6307,4.6307,4.6308,4.6308,4.6308,4.6308,4.6308,4.6308,4.6308,4.6308,4.6308,4.6308,4.6308,4.6308,4.6308,4.6308,4.6308,4.6308,4.6308,4.6308,4.6308,4.6308,4.6308,4.6308,4.6308,4.6308,4.6308,4.6308,4.6308,4.6306,4.6306,4.6307,4.6307,4.6307,4.6308,4.6308,4.6308,4.6308,4.6308,4.6308,4.6308,4.6308,4.6308,4.6308,4.6308,4.6308,4.6308,4.6308,4.6308,4.6308,4.6308,4.6308,4.6308,4.6307,4.6306,4.6307,4.6308,4.6241,4.6181,4.6159,4.6112,4.6068,4.5966,4.5986,4.598,4.5917,4.5935,4.5975,4.6052,4.6037,4.6066,4.6084,4.6111,4.6146,4.6146,4.6185,4.6199,4.6199,4.6199,4.6199,4.6199,4.6199,4.6199,4.6199,4.6199,4.6199,4.6199,4.6199,4.6199,3.2048,3.3211,3.4218,3.5699,3.6873,3.7906,3.8803,3.9728,4.0444,4.0671,4.0784,4.0832,4.0786,4.1328,4.1879,4.2116,4.273,4.3587,4.4699,4.4934,4.5312,4.6191,4.6308,4.6308,4.6308,4.6308,4.6308,4.6308,4.6308,4.6308,4.6308,4.6308,4.6308,4.6308,4.6308,4.6308,4.6308,4.6308,4.6308,4.6308,4.6308,4.6308,4.6308,4.6308,4.6308,4.6308,4.6308,4.6308,4.6308,4.6308,4.6308,4.6308,4.6308,4.6308,4.6308,4.6308,4.6308,4.6308,4.6308,4.6308,4.6308,4.6308,4.6308,4.6308,4.6308,4.6308,4.6308,4.6308,4.6308,4.6308,4.6308,4.6308,4.6308,4.6308,4.6308,4.6308,4.6308,4.6308,4.6308,4.6308,4.6265,4.6216,4.6204,4.6162,4.6102,4.6036,4.6017,4.5986,4.5922,4.5905,4.5892,4.5969,4.598,4.5986,4.5997,4.6056,4.608,4.608,4.6111,4.6154,4.6162,4.6165,4.6189,4.6199,4.6199,4.6199,4.6199,4.6199,4.6199,4.6199,4.6199,4.6192,3.136,3.2295,3.3179,3.4109,3.5565,3.7037,3.8023,3.8889,3.9726,4.0613,4.0905,4.099,4.0988,4.0967,4.1244,4.2137,4.2331,4.2973,4.4745,4.5,4.5312,4.6191,4.6308,4.6308,4.6308,4.6308,4.6308,4.6308,4.6308,4.6308,4.6308,4.6308,4.6308,4.6308,4.6308,4.6308,4.6308,4.6308,4.6308,4.6308,4.6308,4.6308,4.6308,4.6308,4.6308,4.6308,4.6308,4.6308,4.6308,4.6308,4.6308,4.6308,4.6308,4.6308,4.6308,4.6308,4.6308,4.6308,4.6308,4.6308,4.6308,4.6308,4.6308,4.6308,4.6308,4.6308,4.6308,4.6308,4.6308,4.6308,4.6308,4.6308,4.6308,4.6308,4.6308,4.6308,4.6308,4.6308,4.6308,4.6308,4.6308,4.6268,4.6207,4.62,4.6165,4.6105,4.6046,4.5997,4.5997,4.5873,4.5841,4.5905,4.5917,4.5941,4.5997,4.6002,4.6007,4.6007,4.6007,4.6032,4.6098,4.6122,4.6138,4.6196,4.6199,4.6199,4.6199,4.6199,4.6199,4.6199,4.6199,4.6177,3.1405,3.1885,3.2455,3.3846,3.5109,3.6223,3.7151,3.8093,3.8858,3.9196,3.9816,4.0287,4.0287,4.0731,4.1198,4.1537,4.1598,4.199,4.3164,4.332,4.3867,4.5293,4.5469,4.5683,4.625,4.6308,4.6308,4.6308,4.6308,4.6308,4.6308,4.6308,4.6308,4.6308,4.6308,4.6308,4.6308,4.6308,4.6308,4.6308,4.6308,4.6308,4.6308,4.6308,4.6308,4.6308,4.6308,4.6308,4.6308,4.6308,4.6308,4.6308,4.6308,4.6308,4.6308,4.6308,4.6308,4.6308,4.6308,4.6308,4.6308,4.6308,4.6308,4.6308,4.6308,4.6308,4.6308,4.6308,4.6308,4.6308,4.6308,4.6308,4.6308,4.6308,4.6308,4.6308,4.6308,4.6308,4.6308,4.6308,4.6308,4.6289,4.6267,4.6266,4.624,4.6167,4.6142,4.6115,4.6064,4.5968,4.5947,4.5969,4.5899,4.5854,4.588,4.5898,4.5941,4.5941,4.598,4.6007,4.6027,4.6047,4.6071,4.6138,4.6138,4.6154,4.6199,4.6199,4.6199,4.6199,4.6199,4.6158,3.1084,3.1487,0.0,3.3423,3.4475,3.5471,3.6657,3.7488,3.809,3.8397,3.9,3.9551,3.9844,4.0371,4.0859,4.1152,4.1191,4.1484,4.2285,4.2402,4.2949,4.4394,4.4824,4.5234,4.5801,4.6133,4.6308,4.6308,4.6308,4.6308,4.6308,4.6308,4.6308,4.6308,4.6308,4.6308,4.6308,4.6308,4.6308,4.6308,4.6308,4.6308,4.6308,4.6308,4.6308,4.6308,4.6308,4.6308,4.6308,4.6308,4.6308,4.6308,4.6308,4.6308,4.6308,4.6308,4.6308,4.6308,4.6308,4.6308,4.6308,4.6308,4.6308,4.6308,4.6308,4.6308,4.6308,4.6308,4.6308,4.6308,4.6308,4.6308,4.6308,4.6308,4.6308,4.6308,4.6308,4.6308,4.6308,4.6308,4.6308,4.6308,4.6308,4.6308,4.6288,4.624,4.621,4.6173,4.6139,4.6072,4.6032,4.6032,4.5933,4.5874,4.5874,4.5874,4.5874,4.5874,4.5917,4.5933,4.5969,4.5969,4.5997,4.6071,4.6071,4.6089,4.6138,4.6154,4.6177,4.6177,4.6146,4.6093,0.0,0.0,0.0,3.266,3.3556,3.4705,3.651,3.7038,3.7381,3.8339,3.8535,3.8828,3.9707,3.9883,4.0195,4.1055,4.1191,4.1465,4.2246,4.2363,4.2695,4.3555,4.4414,4.4922,4.4961,4.5723,4.6211,4.6211,4.6211,4.623,4.6269,4.6289,4.6308,4.6308,4.6308,4.6308,4.6308,4.6308,4.6308,4.6308,4.6308,4.6308,4.6308,4.6308,4.6308,4.6308,4.6308,4.6308,4.6308,4.6308,4.6308,4.6308,4.6308,4.6308,4.6308,4.6308,4.6308,4.6308,4.6308,4.6308,4.6308,4.6308,4.6308,4.6308,4.6308,4.6308,4.6308,4.6308,4.6308,4.6308,4.6308,4.6308,4.6308,4.6308,4.6308,4.6308,4.6308,4.6308,4.6308,4.6308,4.6308,4.6308,4.6308,4.6308,4.6308,4.6308,4.6241,4.6204,4.6204,4.6145,4.6102,4.6102,4.6046,4.6002,4.6002,4.5873,4.5807,4.5807,4.5807,4.5834,4.5886,4.5905,4.5935,4.5997,4.5997,4.5997,4.6002,4.6071,4.6093,4.6093,4.6022,4.5969,3.0323,0.0,0.0,0.0,0.0,0.0,3.4779,3.5258,3.5591,3.6523,3.7226,3.793,3.8809,3.9473,4.0195,4.1055,4.1191,4.1289,4.1504,4.1523,4.1836,4.2656,4.2969,4.3379,4.4004,4.4277,4.4414,4.4414,4.4414,4.4687,4.5332,4.5957,4.6308,4.6308,4.6308,4.6308,4.6308,4.6308,4.6308,4.6308,4.6308,4.6308,4.6308,4.6308,4.6308,4.6308,4.6308,4.6308,4.6308,4.6308,4.6308,4.6308,4.6308,4.6308,4.6308,4.6308,4.6308,4.6308,4.6308,4.6308,4.6308,4.6308,4.6308,4.6308,4.6308,4.6308,4.6308,4.6308,4.6308,4.6308,4.6308,4.6308,4.6308,4.6308,4.6308,4.6308,4.6308,4.6308,4.6308,4.6308,4.6308,4.6308,4.6308,4.6308,4.6308,4.6308,4.6288,4.6267,4.6267,4.621,4.6165,4.6165,4.6112,4.6039,4.6007,4.5969,4.5892,4.5814,4.5807,4.5814,4.5834,4.5834,4.5867,4.5935,4.5935,4.5958,4.6002,4.6017,4.6022,4.6022,4.5964,4.5929,3.0292,3.0323,0.0,3.1435,0.0,0.0,3.4095,3.4556,3.487,3.58,3.6406,3.7148,3.8379,3.9023,3.9766,4.0996,4.1191,4.1191,4.1191,4.1191,4.1367,4.1836,4.2207,4.2598,4.3105,4.3496,4.3691,4.3691,4.3691,4.4082,4.4941,4.5488,4.5918,4.6289,4.6308,4.6308,4.6308,4.6308,4.6308,4.6308,4.6308,4.6308,4.6308,4.6308,4.6308,4.6308,4.6308,4.6308,4.6308,4.6308,4.6308,4.6308,4.6308,4.6308,4.6308,4.6308,4.6308,4.6308,4.6308,4.6308,4.6308,4.6308,4.6308,4.6308,4.6308,4.6308,4.6308,4.6308,4.6308,4.6308,4.6308,4.6308,4.6308,4.6308,4.6308,4.6308,4.6308,4.6308,4.6308,4.6308,4.6308,4.6308,4.6308,4.6308,4.6308,4.6308,4.6308,4.6308,4.6308,4.6266,4.6241,4.6241,4.6171,4.6128,4.6084,4.6032,4.5969,4.5899,4.5841,4.5807,4.5807,4.5807,4.5827,4.5867,4.5867,4.5886,4.5923,4.5933,4.5933,4.5923,4.5886,4.5867,3.0292,3.0292,0.0,3.1251,3.1628,0.0,3.3845,3.4328,3.4707,3.5663,3.5859,3.6387,3.8125,3.8535,3.9141,4.0781,4.1133,4.1191,4.1191,4.1191,4.1191,4.1191,4.1836,4.2266,4.2266,4.2969,4.3418,4.3418,4.3516,4.3945,4.4805,4.4941,4.5391,4.6269,4.6308,4.6308,4.6308,4.6308,4.6308,4.6308,4.6308,4.6308,4.6308,4.6308,4.6308,4.6308,4.6308,4.6308,4.6308,4.6308,4.6308,4.6308,4.6308,4.6308,4.6308,4.6308,4.6308,4.6308,4.6308,4.6308,4.6308,4.6308,4.6308,4.6308,4.6308,4.6308,4.6308,4.6308,4.6308,4.6308,4.6308,4.6308,4.6308,4.6308,4.6308,4.6308,4.6308,4.6308,4.6308,4.6308,4.6308,4.6308,4.6308,4.6308,4.6308,4.6308,4.6308,4.6308,4.6308,4.6308,4.6308,4.6308,4.6242,4.6207,4.6202,4.6091,4.6027,4.6002,4.5892,4.5822,4.5807,4.5801,4.5821,4.5807,4.5807,4.5807,4.5807,4.5867,4.5867,4.5807,4.5807,4.5807,3.0412,3.0254,3.0349,3.0522,3.1145,0.0,3.2295,3.297,3.3754,3.4744,3.4941,3.5488,3.7226,3.8125,3.8945,3.998,4.0742,4.1191,4.1191,4.1191,4.1191,4.1191,4.1348,4.1426,4.1426,4.1582,4.1699,4.1699,4.2285,4.3027,4.3906,4.4629,4.5391,4.6269,4.6308,4.6308,4.6308,4.6308,4.6308,4.6308,4.6308,4.6308,4.6308,4.6308,4.6308,4.6308,4.6308,4.6308,4.6308,4.6308,4.6308,4.6308,4.6308,4.6308,4.6308,4.6308,4.6308,4.6308,4.6308,4.6308,4.6308,4.6308,4.6308,4.6308,4.6308,4.6308,4.6308,4.6308,4.6308,4.6308,4.6308,4.6308,4.6308,4.6308,4.6308,4.6308,4.6308,4.6308,4.6308,4.6308,4.6308,4.6308,4.6308,4.6308,4.6308,4.6308,4.6308,4.6308,4.6308,4.6308,4.6308,4.6308,4.6289,4.6265,4.6206,4.6189,4.6115,4.6012,4.6022,4.5964,4.5814,4.5892,4.5917,4.5807,4.5807,4.5807,4.5807,4.5821,4.5821,4.5807,4.5807,4.5807,3.0442,3.0227,3.035,3.0836,3.1302,0.0,0.0,3.3524,3.4135,3.5133,3.5351,3.5625,3.6484,3.7012,3.7598,3.8457,3.9336,4.0059,4.0488,4.0937,4.1191,4.1191,4.1191,4.1191,4.1191,4.1191,4.1191,4.1191,4.1562,4.2363,4.3633,4.4101,4.4941,4.6269,4.6308,4.6308,4.6308,4.6308,4.6308,4.6308,4.6308,4.6308,4.6308,4.6308,4.6308,4.6308,4.6308,4.6308,4.6308,4.6308,4.6308,4.6308,4.6308,4.6308,4.6308,4.6308,4.6308,4.6308,4.6308,4.6308,4.6308,4.6308,4.6308,4.6308,4.6308,4.6308,4.6308,4.6308,4.6308,4.6308,4.6308,4.6308,4.6308,4.6308,4.6308,4.6308,4.6308,4.6308,4.6308,4.6308,4.6308,4.6308,4.6308,4.6308,4.6308,4.6308,4.6308,4.6308,4.6308,4.6308,4.6308,4.6308,4.6308,4.6289,4.6244,4.6212,4.6165,4.6105,4.6098,4.6045,4.5944,4.5982,4.5947,4.5807,4.5807,4.5807,4.5807,4.5807,4.5807,4.5807,4.5807,4.5807,3.0826,3.0622,3.0851,3.1633,3.1949,3.2453,0.0,0.0,0.0,3.5553,3.574,3.58,3.5976,3.5996,3.6289,3.7168,3.8027,3.8848,3.9551,4.0547,4.1191,4.1191,4.1348,4.1367,4.1211,4.1191,4.1191,4.1191,4.1191,4.1855,4.3379,4.3613,4.4414,4.5996,4.6211,4.6308,4.6308,4.6308,4.6308,4.6308,4.6308,4.6308,4.6308,4.6308,4.6308,4.6308,4.6308,4.6308,4.6308,4.6308,4.6308,4.6308,4.6308,4.6308,4.6308,4.6308,4.6308,4.6308,4.6308,4.6308,4.6308,4.6308,4.6308,4.6308,4.6308,4.6308,4.6308,4.6308,4.6308,4.6308,4.6308,4.6308,4.6308,4.6308,4.6308,4.6308,4.6308,4.6308,4.6308,4.6308,4.6308,4.6308,4.6308,4.6308,4.6308,4.6308,4.6308,4.6308,4.6308,4.6308,4.6308,4.6308,4.6308,4.6308,4.6308,4.6243,4.621,4.6204,4.6158,4.6122,4.608,4.6008,4.591,4.5848,4.5821,4.5807,4.5807,4.5807,4.5807,4.5807,4.5807,4.5807,3.2184,3.2153,3.2374,3.2618,3.3233,3.3699,3.3279,0.0,3.4474,3.4712,0.0,3.5077,3.5858,0.0,0.0,3.7168,3.8027,3.8633,3.873,4.0156,4.1191,4.1191,4.1836,4.1973,4.1269,4.1191,4.1191,4.1191,4.1191,4.1582,4.25,4.3281,4.4141,4.5117,4.5898,4.6308,4.6308,4.6308,4.6308,4.6308,4.6308,4.6308,4.6308,4.6308,4.6308,4.6308,4.6308,4.6308,4.6308,4.6308,4.6308,4.6308,4.6308,4.6308,4.6308,4.6308,4.6308,4.6308,4.6308,4.6308,4.6308,4.6308,4.6308,4.6308,4.6308,4.6308,4.6308,4.6308,4.6308,4.6308,4.6308,4.6308,4.6308,4.6308,4.6308,4.6308,4.6308,4.6308,4.6308,4.6308,4.6308,4.6308,4.6308,4.6308,4.6308,4.6308,4.6308,4.6308,4.6308,4.6308,4.6308,4.6308,4.6308,4.6308,4.6308,4.6289,4.6265,4.6204,4.6243,4.62,4.6013,4.5886,4.5861,4.598,4.5848,4.5807,4.5807,4.5807,4.5807,4.5807,4.5807,4.5807,3.2333,3.226,3.2543,3.3252,3.3735,3.4112,3.4389,3.4756,3.5096,3.526,0.0,0.0,0.0,0.0,0.0,0.0,3.6523,3.7266,3.7773,3.9355,4.0449,4.0449,4.1191,4.1562,4.123,4.1191,4.1191,4.1191,4.1191,4.1543,4.2363,4.3223,4.4101,4.4961,4.5859,4.6308,4.6308,4.6308,4.6308,4.6308,4.6308,4.6308,4.6308,4.6308,4.6308,4.6308,4.6308,4.6308,4.6308,4.6308,4.6308,4.6308,4.6308,4.6308,4.6308,4.6308,4.6308,4.6308,4.6308,4.6308,4.6308,4.6308,4.6308,4.6308,4.6308,4.6308,4.6308,4.6308,4.6308,4.6308,4.6308,4.6308,4.6308,4.6308,4.6308,4.6308,4.6308,4.6308,4.6308,4.6308,4.6308,4.6308,4.6308,4.6308,4.6308,4.6308,4.6308,4.6308,4.6308,4.6308,4.6308,4.6308,4.6308,4.6308,4.6308,4.6308,4.6289,4.6265,4.6288,4.6235,4.6056,4.5988,4.5947,4.5893,4.5834,4.5807,4.5807,4.5807,4.5807,4.5807,4.5807,4.5807,3.2694,3.2745,3.31,3.3891,3.42,3.4439,3.4948,3.5297,3.5477,3.5395,3.566,0.0,0.0,0.0,3.4784,3.5019,0.0,3.6211,3.6855,3.8437,3.9531,3.9531,4.0312,4.0937,4.1152,4.1191,4.1191,4.1191,4.1191,4.1445,4.2031,4.2871,4.373,4.4629,4.5488,4.6055,4.6308,4.6308,4.6308,4.6308,4.6308,4.6308,4.6308,4.6308,4.6308,4.6308,4.6308,4.6308,4.6308,4.6308,4.6308,4.6308,4.6308,4.6308,4.6308,4.6308,4.6308,4.6308,4.6308,4.6308,4.6308,4.6308,4.6308,4.6308,4.6308,4.6308,4.6308,4.6308,4.6308,4.6308,4.6308,4.6308,4.6308,4.6308,4.6308,4.6308,4.6308,4.6308,4.6308,4.6308,4.6308,4.6308,4.6308,4.6308,4.6308,4.6308,4.6308,4.6308,4.6308,4.6308,4.6308,4.6308,4.6308,4.6308,4.6308,4.6308,4.6308,4.6308,4.6288,4.6239,4.6155,4.6122,4.6024,4.5885,4.5861,4.5848,4.5807,4.5807,4.5827,4.5841,4.5821,4.5807,3.3805,3.4209,3.4684,3.4605,3.4823,3.4857,3.4129,3.4752,3.5282,3.4502,3.5127,3.5816,3.5851,3.5236,3.4979,0.0,3.5976,0.0,0.0,3.7539,3.8633,3.8633,3.9414,4.0254,4.1033,4.1152,4.1191,4.1191,4.1191,4.1211,4.123,4.1992,4.2832,4.3711,4.459,4.5449,4.6289,4.6308,4.6308,4.6308,4.6308,4.6308,4.6308,4.6308,4.6308,4.6308,4.6308,4.6308,4.6308,4.6308,4.6308,4.6308,4.6308,4.6308,4.6308,4.6308,4.6308,4.6308,4.6308,4.6308,4.6308,4.6308,4.6308,4.6308,4.6308,4.6308,4.6308,4.6308,4.6308,4.6308,4.6308,4.6308,4.6308,4.6308,4.6308,4.6308,4.6308,4.6308,4.6308,4.6308,4.6308,4.6308,4.6308,4.6308,4.6308,4.6308,4.6308,4.6308,4.6308,4.6308,4.6308,4.6308,4.6308,4.6308,4.6308,4.6308,4.6308,4.6308,4.624,4.6237,4.6289,4.6162,4.6098,4.6091,4.6027,4.5935,4.5807,4.5807,4.5874,4.5991,4.5848,4.5807,3.3915,3.4713,3.5407,3.4871,3.4917,3.488,3.4033,3.4606,3.5108,3.4378,3.5414,3.6314,3.5857,3.5629,0.0,0.0,0.0,3.5996,0.0,3.6504,3.709,3.7675,3.9023,4.0019,4.0273,4.0859,4.1191,4.1191,4.1191,4.1191,4.1191,4.1953,4.2539,4.2832,4.4238,4.5137,4.5449,4.6016,4.6308,4.6308,4.6308,4.6308,4.6308,4.6308,4.6308,4.6308,4.6308,4.6308,4.6308,4.6308,4.6308,4.6308,4.6308,4.6308,4.6308,4.6308,4.6308,4.6308,4.6308,4.6308,4.6308,4.6308,4.6308,4.6308,4.6308,4.6308,4.6308,4.6308,4.6308,4.6308,4.6308,4.6308,4.6308,4.6308,4.6308,4.6308,4.6308,4.6308,4.6308,4.6308,4.6308,4.6308,4.6308,4.6308,4.6308,4.6308,4.6308,4.6308,4.6308,4.6308,4.6308,4.6308,4.6308,4.6308,4.6308,4.6308,4.6308,4.6308,4.6288,4.6264,4.6238,4.6197,4.6145,4.6102,4.6036,4.598,4.5922,4.5835,4.588,4.5997,4.5854,4.5854,3.4115,3.4971,3.5706,3.5492,3.568,3.5608,3.4459,3.4956,3.5447,3.4685,3.5463,3.6366,3.6541,3.6181,3.5973,0.0,0.0,0.0,0.0,3.5996,3.6211,3.6776,3.8105,3.9219,3.9843,4.0137,4.0644,4.1562,4.1074,4.0996,4.1582,4.1855,4.2109,4.2383,4.3496,4.4375,4.498,4.5566,4.5996,4.6308,4.6308,4.6308,4.6308,4.6308,4.6308,4.6308,4.6308,4.6308,4.6308,4.6308,4.6308,4.6308,4.6308,4.6308,4.6308,4.6308,4.6308,4.6308,4.6308,4.6308,4.6308,4.6308,4.6308,4.6308,4.6308,4.6308,4.6308,4.6308,4.6308,4.6308,4.6308,4.6308,4.6308,4.6308,4.6308,4.6308,4.6308,4.6308,4.6308,4.6308,4.6308,4.6308,4.6308,4.6308,4.6308,4.6308,4.6308,4.6308,4.6308,4.6308,4.6308,4.6308,4.6308,4.6308,4.6308,4.6308,4.6308,4.6308,4.6308,4.6288,4.6239,4.6239,4.6206,4.6137,4.6091,4.6052,4.6036,4.5927,4.5927,4.6032,4.5922,4.5923]}]]